[[{"header":{"parameterUnit":"m.s-1","parameterCategory":1,"la1":30.6,"la2":28.766,"lo1":-90.7593,"lo2":-88.6598,"dx":0.0162,"dy":0.0183,"nx":116,"ny":114,"refTime":"2022-11-25T06:00:00:Z","depth":0,"parameterNumber":2,"parameterNumberName":"U-component_of_WINDS"},"data":[0.0,0.0,0.0,0.0,0.0,0.0,0.0,0.0,0.0,0.0,0.0,0.0,0.0,0.0,0.0,0.0,0.0,0.0,0.0,0.0,0.0,0.0,0.0,0.0,0.0,0.0,0.0,0.0,0.0,0.0,0.0,0.0,0.0,0.0,0.0,0.0,0.0,0.0,0.0,0.0,0.0,0.0,0.0,0.0,0.0,0.0,0.0,0.0,0.0,0.0,0.0,0.0,0.0,0.0,0.0,0.0,0.0,0.0,0.0,0.0,0.0,0.0,0.0,0.0,0.0,0.0,0.0,0.0,0.0,0.0,0.0,0.0,0.0,0.0,0.0,0.0,0.0,0.0,0.0,0.0,0.0,0.0,0.0,0.0,0.0,0.0,0.0,0.0,0.0,0.0,0.0,0.0,0.0,0.0,0.0,0.0,0.0,0.0,0.0,0.0,0.0,0.0,0.0,0.0,0.0,0.0,0.0,0.0,0.0,0.0,0.0,0.0,0.0,0.0,0.0,0.0,0.0,0.0,0.0,0.0,0.0,0.0,0.0,0.0,0.0,0.0,0.0,0.0,0.0,0.0,0.0,0.0,0.0,0.0,0.0,0.0,0.0,0.0,0.0,0.0,0.0,0.0,0.0,0.0,0.0,0.0,0.0,0.0,0.0,0.0,0.0,0.0,0.0,0.0,0.0,0.0,0.0,0.0,0.0,0.0,0.0,0.0,0.0,0.0,0.0,0.0,0.0,0.0,0.0,0.0,0.0,0.0,0.0,0.0,0.0,0.0,0.0,0.0,0.0,0.0,0.0,0.0,0.0,0.0,0.0,0.0,0.0,0.0,0.0,0.0,0.0,0.0,0.0,0.0,0.0,0.0,0.0,0.0,0.0,0.0,0.0,0.0,0.0,0.0,0.0,0.0,0.0,0.0,0.0,0.0,0.0,0.0,0.0,0.0,0.0,0.0,0.0,0.0,0.0,0.0,0.0,0.0,0.0,0.0,0.0,0.0,0.0,0.0,0.0,0.0,0.0,0.0,0.0,0.0,0.0,0.0,0.0,0.0,0.0,0.0,0.0,0.0,0.0,0.0,0.0,0.0,0.0,0.0,0.0,0.0,0.0,0.0,0.0,0.0,0.0,0.0,0.0,0.0,0.0,0.0,0.0,0.0,0.0,0.0,0.0,0.0,0.0,0.0,0.0,0.0,0.0,0.0,0.0,0.0,0.0,0.0,0.0,0.0,0.0,0.0,0.0,0.0,0.0,0.0,0.0,0.0,0.0,0.0,0.0,0.0,0.0,0.0,0.0,0.0,0.0,0.0,0.0,0.0,0.0,0.0,0.0,0.0,0.0,0.0,0.0,0.0,0.0,0.0,0.0,0.0,0.0,0.0,0.0,0.0,0.0,0.0,0.0,0.0,0.0,0.0,0.0,0.0,0.0,0.0,0.0,0.0,0.0,0.0,0.0,0.0,0.0,0.0,0.0,0.0,0.0,0.0,0.0,0.0,0.0,0.0,0.0,0.0,0.0,0.0,0.0,0.0,0.0,0.0,0.0,0.0,0.0,0.0,0.0,0.0,0.0,0.0,0.0,0.0,0.0,0.0,0.0,0.0,0.0,0.0,0.0,0.0,0.0,0.0,0.0,0.0,0.0,0.0,0.0,0.0,0.0,0.0,0.0,0.0,0.0,0.0,0.0,0.0,0.0,0.0,0.0,0.0,0.0,0.0,0.0,0.0,0.0,0.0,0.0,0.0,0.0,0.0,0.0,0.0,0.0,0.0,0.0,0.0,0.0,0.0,0.0,0.0,0.0,0.0,0.0,0.0,0.0,0.0,0.0,0.0,0.0,0.0,0.0,0.0,0.0,0.0,0.0,0.0,0.0,0.0,0.0,0.0,0.0,0.0,0.0,0.0,0.0,0.0,0.0,0.0,0.0,0.0,0.0,0.0,0.0,0.0,0.0,0.0,0.0,0.0,0.0,0.0,0.0,0.0,0.0,0.0,0.0,0.0,0.0,0.0,0.0,0.0,0.0,0.0,0.0,0.0,0.0,0.0,0.0,0.0,0.0,0.0,0.0,0.0,0.0,0.0,0.0,0.0,0.0,0.0,0.0,0.0,0.0,0.0,0.0,0.0,0.0,0.0,0.0,0.0,0.0,0.0,0.0,0.0,0.0,0.0,0.0,0.0,0.0,0.0,0.0,0.0,0.0,0.0,0.0,0.0,0.0,0.0,0.0,0.0,0.0,0.0,0.0,0.0,0.0,0.0,0.0,0.0,0.0,0.0,0.0,0.0,0.0,0.0,0.0,0.0,0.0,0.0,0.0,0.0,0.0,0.0,0.0,0.0,0.0,0.0,0.0,0.0,0.0,0.0,0.0,0.0,0.0,0.0,0.0,0.0,0.0,0.0,0.0,0.0,0.0,0.0,0.0,0.0,0.0,0.0,0.0,0.0,0.0,0.0,0.0,0.0,0.0,0.0,0.0,0.0,0.0,0.0,0.0,0.0,0.0,0.0,0.0,0.0,0.0,0.0,0.0,0.0,0.0,0.0,0.0,0.0,0.0,0.0,0.0,0.0,0.0,0.0,0.0,0.0,0.0,0.0,0.0,0.0,0.0,0.0,0.0,0.0,0.0,0.0,0.0,0.0,0.0,0.0,0.0,0.0,0.0,0.0,0.0,0.0,0.0,0.0,0.0,0.0,0.0,0.0,0.0,0.0,0.0,0.0,0.0,0.0,0.0,0.0,0.0,0.0,0.0,0.0,0.0,0.0,0.0,0.0,0.0,0.0,0.0,0.0,0.0,0.0,0.0,0.0,0.0,0.0,0.0,0.0,0.0,0.0,0.0,0.0,0.0,0.0,0.0,0.0,0.0,0.0,0.0,0.0,0.0,0.0,0.0,0.0,0.0,0.0,0.0,0.0,0.0,0.0,0.0,0.0,0.0,0.0,0.0,0.0,0.0,0.0,0.0,0.0,0.0,0.0,0.0,0.0,0.0,0.0,0.0,0.0,0.0,0.0,0.0,0.0,0.0,0.0,0.0,0.0,0.0,0.0,0.0,0.0,0.0,0.0,0.0,0.0,0.0,0.0,0.0,0.0,0.0,0.0,0.0,0.0,0.0,0.0,0.0,0.0,0.0,0.0,0.0,0.0,0.0,0.0,0.0,0.0,0.0,0.0,0.0,0.0,0.0,0.0,0.0,0.0,0.0,0.0,0.0,0.0,0.0,0.0,0.0,0.0,0.0,0.0,0.0,0.0,0.0,0.0,0.0,0.0,0.0,0.0,0.0,0.0,0.0,0.0,0.0,0.0,0.0,0.0,0.0,0.0,0.0,0.0,0.0,0.0,0.0,0.0,0.0,0.0,0.0,0.0,0.0,0.0,0.0,0.0,0.0,0.0,0.0,0.0,0.0,0.0,0.0,0.0,0.0,0.0,0.0,0.0,0.0,0.0,0.0,0.0,0.0,0.0,0.0,0.0,0.0,0.0,0.0,0.0,0.0,0.0,0.0,0.0,0.0,0.0,0.0,0.0,0.0,0.0,0.0,0.0,0.0,0.0,0.0,0.0,0.0,0.0,0.0,0.0,0.0,0.0,0.0,0.0,0.0,0.0,0.0,0.0,0.0,0.0,0.0,0.0,0.0,0.0,0.0,0.0,0.0,0.0,0.0,0.0,0.0,0.0,0.0,0.0,0.0,0.0,0.0,0.0,0.0,0.0,0.0,0.0,0.0,0.0,0.0,0.0,0.0,0.0,0.0,0.0,0.0,0.0,0.0,0.0,0.0,0.0,0.0,0.0,0.0,0.0,0.0,0.0,0.0,0.0,0.0,0.0,0.0,0.0,0.0,0.0,0.0,0.0,0.0,0.0,0.0,0.0,0.0,0.0,0.0,0.0,0.0,0.0,0.0,0.0,0.0,0.0,0.0,0.0,0.0,0.0,0.0,0.0,0.0,0.0,0.0,0.0,0.0,0.0,0.0,0.0,0.0,0.0,0.0,0.0,0.0,0.0,0.0,0.0,0.0,0.0,0.0,0.0,0.0,0.0,0.0,0.0,0.0,0.0,0.0,0.0,0.0,0.0,0.0,0.0,0.0,0.0,0.0,0.0,0.0,0.0,0.0,0.0,0.0,0.0,0.0,0.0,0.0,0.0,0.0,0.0,0.0,0.0,0.0,0.0,0.0,0.0,0.0,0.0,0.0,0.0,0.0,0.0,0.0,0.0,0.0,0.0,0.0,0.0,0.0,0.0,0.0,0.0,0.0,0.0,0.0,0.0,0.0,0.0,0.0,0.0,0.0,0.0,0.0,0.0,0.0,0.0,0.0,0.0,0.0,0.0,0.0,0.0,0.0,0.0,0.0,0.0,0.0,0.0,0.0,0.0,0.0,0.0,0.0,0.0,0.0,0.0,0.0,0.0,0.0,0.0,0.0,0.0,0.0,0.0,0.0,0.0,0.0,0.0,0.0,0.0,0.0,0.0,0.0,0.0,0.0,0.0,0.0,0.0,0.0,0.0,0.0,0.0,0.0,0.0,0.0,0.0,0.0,0.0,0.0,0.0,0.0,0.0,0.0,0.0,0.0,0.0,0.0,0.0,0.0,0.0,0.0,0.0,0.0,0.0,0.0,0.0,0.0,0.0,0.0,0.0,0.0,0.0,0.0,0.0,0.0,0.0,0.0,0.0,0.0,0.0,0.0,0.0,0.0,0.0,0.0,0.0,0.0,0.0,0.0,0.0,0.0,0.0,0.0,0.0,0.0,0.0,0.0,0.0,0.0,0.0,0.0,0.0,0.0,0.0,0.0,0.0,0.0,0.0,0.0,0.0,0.0,0.0,0.0,0.0,0.0,0.0,0.0,0.0,0.0,0.0,0.0,0.0,0.0,0.0,0.0,0.0,0.0,0.0,0.0,0.0,0.0,0.0,0.0,0.0,0.0,0.0,0.0,0.0,0.0,0.0,0.0,0.0,0.0,0.0,0.0,0.0,0.0,0.0,0.0,0.0,0.0,0.0,0.0,0.0,0.0,0.0,0.0,0.0,0.0,0.0,0.0,0.0,0.0,0.0,0.0,0.0,0.0,0.0,0.0,0.0,0.0,0.0,0.0,0.0,0.0,0.0,0.0,0.0,0.0,0.0,0.0,0.0,0.0,0.0,0.0,0.0,0.0,0.0,0.0,0.0,0.0,0.0,0.0,0.0,0.0,0.0,0.0,0.0,0.0,0.0,0.0,0.0,0.0,0.0,0.0,0.0,0.0,0.0,0.0,0.0,0.0,0.0,0.0,0.0,0.0,0.0,0.0,0.0,0.0,0.0,0.0,0.0,0.0,0.0,0.0,0.0,0.0,0.0,0.0,0.0,0.0,0.0,0.0,0.0,0.0,0.0,0.0,0.0,0.0,0.0,0.0,0.0,0.0,0.0,0.0,0.0,0.0,0.0,0.0,0.0,0.0,0.0,0.0,0.0,0.0,0.0,0.0,0.0,0.0,0.0,0.0,0.0,0.0,0.0,0.0,0.0,0.0,0.0,0.0,0.0,0.0,0.0,0.0,0.0,0.0,0.0,0.0,0.0,0.0,0.0,0.0,0.0,0.0,0.0,0.0,0.0,0.0,0.0,0.0,0.0,0.0,0.0,0.0,0.0,0.0,0.0,0.0,0.0,0.0,0.0,0.0,0.0,0.0,0.0,0.0,0.0,0.0,0.0,0.0,0.0,0.0,0.0,0.0,0.0,0.0,0.0,0.0,0.0,0.0,0.0,0.0,0.0,0.0,0.0,0.0,0.0,0.0,0.0,0.0,0.0,0.0,0.0,0.0,0.0,0.0,0.0,0.0,0.0,0.0,0.0,0.0,0.0,0.0,0.0,0.0,0.0,0.0,0.0,0.0,0.0,0.0,0.0,0.0,0.0,0.0,0.0,0.0,0.0,0.0,0.0,0.0,0.0,0.0,0.0,0.0,0.0,0.0,0.0,0.0,0.0,0.0,0.0,0.0,0.0,0.0,0.0,0.0,0.0,0.0,0.0,0.0,0.0,0.0,0.0,0.0,0.0,0.0,0.0,0.0,0.0,0.0,0.0,0.0,0.0,0.0,0.0,0.0,0.0,0.0,0.0,0.0,0.0,-1.0467,0.0,0.0,0.0,0.0,0.0,0.0,0.0,0.0,0.0,0.0,0.0,0.0,0.0,0.0,0.0,0.0,0.0,0.0,0.0,0.0,0.0,0.0,0.0,0.0,-0.9551,-0.9925,-1.0055,-1.0377,0.0,0.0,0.0,0.0,0.0,0.0,0.0,0.0,0.0,-1.0766,-1.0969,-1.0969,-1.1276,-1.1837,-1.1209,-1.0929,-1.0929,0.0,0.0,0.0,0.0,0.0,0.0,0.0,0.0,0.0,0.0,0.0,0.0,0.0,0.0,0.0,0.0,0.0,0.0,0.0,0.0,0.0,0.0,0.0,0.0,0.0,0.0,0.0,0.0,0.0,0.0,0.0,0.0,0.0,0.0,0.0,0.0,0.0,0.0,0.0,0.0,0.0,0.0,0.0,0.0,0.0,0.0,0.0,0.0,0.0,0.0,0.0,0.0,0.0,0.0,0.0,0.0,0.0,0.0,0.0,0.0,0.0,0.0,0.0,0.0,0.0,0.0,0.0,0.0,0.0,0.0,0.0,-1.1089,0.0,0.0,0.0,0.0,0.0,0.0,0.0,0.0,0.0,0.0,0.0,0.0,0.0,0.0,0.0,0.0,0.0,0.0,0.0,0.0,0.0,-0.9126,-0.9126,-0.9544,-1.0025,-1.0275,-1.0691,-1.0861,-1.0741,-1.0766,0.0,0.0,0.0,0.0,-0.9867,-1.0434,-1.0969,-1.1503,-1.181,-1.2211,-1.2692,-1.2999,-1.2999,-1.2719,-1.1797,0.0,0.0,0.0,0.0,0.0,0.0,0.0,0.0,0.0,0.0,0.0,0.0,0.0,0.0,0.0,0.0,0.0,0.0,0.0,0.0,0.0,0.0,0.0,0.0,0.0,0.0,0.0,0.0,0.0,0.0,0.0,0.0,0.0,0.0,0.0,0.0,0.0,0.0,0.0,0.0,0.0,0.0,0.0,0.0,0.0,0.0,0.0,0.0,0.0,0.0,0.0,0.0,0.0,0.0,0.0,0.0,0.0,0.0,0.0,0.0,0.0,0.0,0.0,0.0,-1.2212,-1.2334,-1.2696,-1.3213,-1.3918,-1.2876,-1.2785,-1.3341,0.0,0.0,0.0,0.0,0.0,0.0,0.0,0.0,0.0,0.0,0.0,0.0,0.0,0.0,0.0,0.0,0.0,0.0,0.0,0.0,-0.9126,-0.9126,-0.9544,-1.0098,-1.0535,-1.0792,-1.0772,-1.0463,-1.0844,0.0,0.0,0.0,0.0,-1.0562,-1.1076,-1.1476,-1.181,-1.336,-1.4148,-1.4229,-1.4536,-1.4656,-1.4563,-1.3427,-1.2746,-1.2472,0.0,0.0,0.0,0.0,0.0,0.0,0.0,0.0,0.0,0.0,0.0,0.0,0.0,0.0,0.0,0.0,0.0,0.0,0.0,0.0,0.0,0.0,0.0,0.0,0.0,0.0,0.0,0.0,0.0,0.0,0.0,0.0,0.0,0.0,0.0,0.0,0.0,0.0,0.0,0.0,0.0,-0.9955,-1.0006,0.0,0.0,0.0,0.0,0.0,0.0,0.0,0.0,0.0,0.0,0.0,0.0,0.0,0.0,-1.1037,-1.1927,-1.2559,-1.2803,-1.3779,-1.4317,-1.4428,-1.4557,-1.4697,-1.5073,-1.513,0.0,-1.3797,-1.3605,0.0,0.0,0.0,0.0,0.0,0.0,0.0,0.0,0.0,0.0,0.0,0.0,0.0,0.0,0.0,0.0,0.0,0.0,0.0,0.0,0.0,-1.0123,-1.0762,-1.1267,-1.1738,-1.1787,-1.1288,-1.123,0.0,0.0,0.0,-1.0795,-1.0863,-1.1527,-1.2398,-1.336,-1.4629,-1.5257,-1.5257,-1.5391,-1.5444,-1.5431,-1.491,-1.4148,-1.3227,-1.2839,0.0,0.0,0.0,0.0,0.0,0.0,0.0,0.0,0.0,0.0,0.0,0.0,0.0,0.0,0.0,0.0,0.0,0.0,0.0,0.0,0.0,0.0,0.0,0.0,0.0,0.0,0.0,0.0,0.0,0.0,0.0,0.0,0.0,0.0,0.0,0.0,0.0,0.0,0.0,-0.9409,-0.9694,-1.01,-0.9523,-0.9039,0.0,0.0,0.0,0.0,0.0,0.0,0.0,0.0,0.0,-1.1614,-1.163,-1.189,-1.2426,-1.307,-1.3485,-1.379,-1.478,-1.5283,-1.5443,-1.5756,-1.6093,-1.6282,-1.5979,-1.5895,-1.5719,-1.4512,-1.3559,-1.2657,0.0,0.0,0.0,0.0,-1.231,-1.2604,0.0,0.0,0.0,0.0,0.0,0.0,0.0,0.0,0.0,0.0,0.0,0.0,-0.9916,-1.0716,-1.1428,-1.1834,-1.2371,-1.2489,-1.1961,-1.1577,-1.1234,-1.0879,-1.0623,-1.0674,-1.1075,-1.2151,-1.3373,-1.4629,-1.5431,-1.5832,-1.5832,-1.5832,-1.5832,-1.5832,-1.5832,-1.5231,-1.4188,-1.3878,-1.3186,-1.2078,0.0,0.0,0.0,0.0,0.0,0.0,0.0,0.0,0.0,0.0,0.0,0.0,0.0,0.0,0.0,0.0,0.0,0.0,0.0,0.0,0.0,0.0,0.0,0.0,0.0,0.0,0.0,0.0,0.0,0.0,0.0,0.0,0.0,0.0,0.0,0.0,0.0,-0.9631,-0.9888,-1.0222,-1.012,-0.9819,0.0,0.0,0.0,0.0,0.0,0.0,-1.2028,-1.2044,-1.2312,-1.2889,-1.2905,-1.3141,-1.3636,-1.3904,-1.4276,-1.4604,-1.5337,-1.5949,-1.6277,-1.6731,-1.7048,-1.718,-1.6722,-1.6861,-1.7264,-1.5506,-1.4622,-1.4285,-1.3502,-1.331,-1.3328,-1.3854,-1.42,-1.4325,0.0,0.0,0.0,0.0,0.0,0.0,0.0,0.0,0.0,0.0,0.0,-0.994,-1.0284,-1.1021,-1.16,-1.1878,-1.2074,-1.2154,-1.1902,-1.1624,-1.1304,-1.1069,-1.0799,-1.0779,-1.1242,-1.3094,-1.4309,-1.4937,-1.5538,-1.5832,-1.5832,-1.5832,-1.5832,-1.5832,-1.5832,-1.5792,-1.5671,-1.483,-1.4269,-1.3745,-1.159,0.0,0.0,0.0,0.0,0.0,0.0,0.0,0.0,0.0,0.0,0.0,0.0,0.0,0.0,0.0,0.0,0.0,0.0,0.0,0.0,0.0,0.0,0.0,0.0,0.0,0.0,0.0,0.0,0.0,0.0,0.0,0.0,0.0,0.0,0.0,0.0,0.0,0.0,-1.0881,-1.1371,0.0,0.0,0.0,0.0,-1.1922,-1.1971,-1.2223,-1.2751,-1.2783,-1.3108,-1.3815,-1.3831,-1.401,-1.4375,-1.4391,-1.4794,-1.5878,-1.5887,-1.6446,-1.7255,-1.7398,-1.7398,-1.7407,-1.7398,-1.7214,-1.7062,-1.6615,-1.6095,-1.5744,-1.5882,-1.519,-1.4504,-1.5328,-1.5549,-1.5532,0.0,0.0,0.0,-0.921,-0.9053,-0.8873,-0.8705,-0.8741,-0.8825,-0.8969,-0.9693,-1.0357,-1.0791,-1.156,-1.2277,-1.288,-1.3112,-1.3112,-1.2942,-1.2184,-1.1849,-1.2025,-1.1267,-1.1552,-1.3046,-1.4111,-1.4937,-1.5524,-1.5725,-1.5832,-1.5832,-1.5832,-1.5832,-1.5832,-1.5642,-1.5642,-1.5615,-1.5312,-1.4887,-1.4236,-1.2433,-1.1456,0.0,0.0,0.0,0.0,0.0,0.0,0.0,0.0,0.0,0.0,0.0,0.0,0.0,0.0,0.0,0.0,0.0,0.0,0.0,0.0,0.0,0.0,0.0,0.0,0.0,0.0,0.0,0.0,0.0,0.0,0.0,0.0,0.0,0.0,0.0,0.0,0.0,-1.157,-1.2139,0.0,-1.1679,-1.2077,-1.2556,-1.3035,-1.3384,-1.3758,-1.418,-1.4205,-1.4375,-1.4749,-1.4765,-1.4879,-1.513,-1.5244,-1.5483,-1.5864,-1.6216,-1.6658,-1.7033,-1.7241,-1.7492,-1.7615,-1.7167,-1.7306,-1.7604,-1.7171,-1.6617,-1.6286,-1.6348,-1.6205,-1.6147,-1.6509,-1.6824,-1.7106,0.0,-0.9916,0.0,-0.9268,-0.9124,-0.9101,-0.8956,-0.91,-0.9268,-0.9512,-1.0236,-1.09,-1.1335,-1.2111,-1.2794,-1.3324,-1.3547,-1.3597,-1.3508,-1.2585,-1.2191,-1.2465,-1.1871,-1.2318,-1.396,-1.4628,-1.5245,-1.5737,-1.5737,-1.5642,-1.5547,-1.5642,-1.5642,-1.5547,-1.5547,-1.5452,-1.5356,-1.4867,-1.4646,-1.4501,-1.2664,-1.1775,-1.1271,0.0,0.0,0.0,0.0,0.0,0.0,0.0,0.0,0.0,0.0,0.0,0.0,0.0,0.0,0.0,0.0,0.0,0.0,0.0,0.0,0.0,0.0,0.0,0.0,0.0,0.0,0.0,0.0,0.0,0.0,0.0,0.0,0.0,0.0,0.0,-1.2499,-1.189,-1.2747,-1.307,-1.2515,-1.3084,-1.3644,-1.4058,-1.4473,-1.4806,-1.5041,-1.5114,-1.5204,-1.5325,-1.5333,-1.539,-1.5512,-1.5569,-1.565,-1.5934,-1.6483,-1.6748,-1.7031,-1.7483,-1.7747,-1.7936,-1.7557,-1.7687,-1.8258,-1.7947,-1.7545,-1.7241,-1.7105,-1.7299,-1.7575,-1.7575,-1.7826,-1.8258,-0.9868,-0.9664,-0.9484,-0.9484,-0.9256,-0.9172,-0.9436,-0.9484,-0.9676,-1.026,-1.1033,-1.1636,-1.1902,-1.265,-1.3133,-1.3145,-1.3387,-1.3532,-1.3532,-1.2759,-1.2312,-1.2312,-1.2609,-1.3134,-1.3937,-1.4657,-1.5165,-1.5452,-1.5452,-1.5356,-1.5083,-1.5356,-1.5356,-1.5083,-1.5356,-1.5261,-1.5,-1.3619,-1.3823,-1.4771,-1.2335,-1.1626,-1.1794,0.0,0.0,0.0,0.0,0.0,0.0,0.0,0.0,0.0,0.0,0.0,0.0,0.0,0.0,0.0,0.0,0.0,0.0,0.0,0.0,0.0,0.0,0.0,0.0,0.0,0.0,0.0,0.0,0.0,0.0,0.0,0.0,0.0,-1.2277,-1.2674,-1.2884,-1.215,-1.3344,-1.3993,-1.3474,-1.4205,-1.4789,-1.496,-1.5139,-1.5244,-1.5244,-1.5415,-1.552,-1.5528,-1.5528,-1.5528,-1.5528,-1.535,-1.5597,-1.6427,-1.6538,-1.6871,-1.7727,-1.7845,-1.8172,-1.838,-1.8588,-1.8673,-1.8711,-1.9108,-1.9042,-1.8636,-1.8239,-1.8324,-1.8683,-1.8683,-1.8683,-1.8626,-0.9832,-0.9664,-0.9484,-0.9484,-0.9424,-0.9388,-0.9472,-0.964,-0.988,-1.0284,-1.1033,-1.1709,-1.2155,-1.2759,-1.3278,-1.3664,-1.3761,-1.3797,-1.3797,-1.2868,-1.2312,-1.2312,-1.3508,-1.4297,-1.4447,-1.4879,-1.5089,-1.5178,-1.5178,-1.5178,-1.5083,-1.5178,-1.5178,-1.5083,-1.4975,-1.4497,-1.3785,-1.3292,-1.2893,-1.2385,-1.0769,-1.031,-1.036,0.0,0.0,0.0,0.0,0.0,0.0,0.0,0.0,0.0,0.0,0.0,0.0,0.0,0.0,0.0,0.0,0.0,0.0,0.0,0.0,0.0,0.0,0.0,0.0,0.0,0.0,0.0,0.0,0.0,0.0,0.0,0.0,-1.444,-1.3928,-1.444,-1.4794,-1.439,-1.4759,-1.4852,-1.4529,-1.4749,-1.4968,-1.5147,-1.5212,-1.5301,-1.5431,-1.5488,-1.5577,-1.5699,-1.5699,-1.5699,-1.5699,-1.578,-1.5878,-1.6139,-1.6845,-1.7249,-1.7643,-1.8272,-1.8532,-1.8588,-1.8654,-1.8673,-1.8683,-1.8796,-1.8777,-1.8683,-1.8711,-1.8787,-1.8872,-1.873,-1.8768,-1.8872,-0.9676,-0.9592,-0.9484,-0.9484,-0.9484,-0.9484,-0.9484,-0.9796,-1.0167,-1.061,-1.1262,-1.1938,-1.2578,-1.3037,-1.3459,-1.387,-1.4002,-1.393,-1.3604,-1.2892,-1.2626,-1.2964,-1.3909,-1.4481,-1.4688,-1.4879,-1.4892,-1.4892,-1.4892,-1.4942,-1.4971,-1.5055,-1.5118,-1.5133,-1.5035,-1.4418,-1.3344,-1.2739,-1.1885,-1.0837,-0.9611,-0.9506,-0.9811,-0.8645,-0.8014,-0.7799,-0.7702,-0.7499,-0.7285,-0.7197,0.0,0.0,0.0,0.0,0.0,0.0,0.0,0.0,0.0,0.0,0.0,0.0,0.0,0.0,0.0,0.0,0.0,0.0,0.0,0.0,0.0,0.0,0.0,0.0,-1.4095,-1.5032,-1.529,-1.5709,-1.5817,-1.5396,-1.543,-1.5353,-1.5065,-1.5082,-1.5155,-1.5342,-1.5423,-1.5512,-1.5618,-1.5699,-1.578,-1.5886,-1.5813,-1.5813,-1.5886,-1.5918,-1.6008,-1.6154,-1.674,-1.713,-1.7302,-1.7937,-1.8229,0.0,-1.8394,-1.8486,-1.8578,-1.8744,-1.8818,0.0,0.0,0.0,0.0,0.0,-1.8801,-1.8885,-0.9484,-0.9484,-0.9484,-0.9484,-0.9484,-0.9484,-0.9484,-0.9928,-1.0514,-1.1045,-1.1588,-1.224,-1.3073,-1.3375,-1.3628,-1.393,-1.4159,-1.3978,-1.3218,-1.2964,-1.3145,-1.3833,-1.3918,-1.4157,-1.4688,-1.4688,-1.47,-1.4737,-1.4737,-1.4692,-1.4763,-1.4949,-1.5071,-1.5113,-1.519,-1.448,-1.3172,-1.2142,-1.101,-0.9886,-0.8948,-0.9137,-0.9823,-0.8898,-0.8404,-0.8296,-0.8296,-0.8119,-0.7889,-0.7889,0.0,0.0,0.0,0.0,0.0,0.0,0.0,0.0,0.0,0.0,0.0,0.0,0.0,0.0,0.0,0.0,0.0,0.0,0.0,0.0,0.0,0.0,0.0,0.0,-1.481,-1.5425,-1.6355,-1.6572,-1.642,-1.5761,-1.5633,-1.5562,-1.5409,-1.5268,-1.535,-1.5528,-1.5683,-1.5772,-1.5772,0.0,0.0,0.0,0.0,-1.5902,-1.6105,-1.5967,-1.6064,-1.6389,-1.6734,-1.6935,-1.7129,-1.7443,-1.7618,-1.7812,-1.7987,-1.8163,-1.8356,-1.869,-1.8822,-1.8725,-1.8735,-1.8941,-1.9287,-1.9121,-1.9022,-1.8813,-0.952,-0.9484,-0.9484,-0.9484,-0.9484,-0.9484,-0.9484,-0.9928,-1.0514,-1.1045,-1.1588,-1.2312,-1.3326,-1.3483,-1.3713,-1.4183,-1.4268,-1.4051,-1.3471,-1.3592,-1.3652,-1.3592,-1.4002,-1.4244,-1.44,-1.44,-1.4509,-1.474,-1.474,-1.4775,-1.5028,-1.5028,-1.5052,-1.5113,-1.4163,-1.3236,-1.2154,-1.1098,-1.0015,-0.9064,-0.8961,-0.881,-0.8793,-0.8584,-0.8465,-0.8438,-0.8438,-0.8404,-0.835,-0.835,-0.8255,-0.8113,-0.7957,-0.7807,0.0,0.0,0.0,0.0,0.0,0.0,0.0,0.0,0.0,0.0,0.0,0.0,0.0,0.0,0.0,0.0,0.0,0.0,0.0,-1.3068,-1.4382,-1.5614,-1.6564,-1.6924,-1.7075,-1.6796,-1.6416,-1.6205,-1.6406,-1.5781,-1.5696,-1.6199,-1.5917,-1.5772,-1.5772,-1.5804,0.0,-1.604,-1.6016,-1.6146,-1.647,-1.6592,-1.6747,-1.695,0.0,0.0,-1.8627,-1.8602,-1.8796,-1.9337,-1.9026,-1.8884,-1.8927,-1.8998,-1.9124,-1.9337,-1.9124,-1.9328,-1.9756,-1.9624,-1.9276,-1.9071,-0.97,-0.9676,-0.964,-0.9508,-0.9484,-0.9484,-0.9484,-0.9928,-1.0514,-1.1045,-1.1697,-1.2421,-1.323,-1.3194,-1.3218,-1.3483,-1.3375,-1.3423,-1.3688,-1.3713,-1.3773,-1.3894,-1.4159,-1.4292,-1.4292,-1.4292,-1.4437,-1.4714,-1.4714,-1.492,-1.5306,-1.5306,-1.5378,-1.5499,-1.4339,-1.3234,-1.2159,-1.0974,-0.9843,-0.894,-0.894,-0.8845,-0.871,-0.871,-0.871,-0.871,-0.871,-0.871,-0.871,-0.871,-0.8662,-0.8594,-0.8513,-0.833,-0.8085,0.0,0.0,0.0,0.0,0.0,0.0,0.0,0.0,0.0,0.0,0.0,0.0,0.0,0.0,-1.0335,-1.1394,0.0,-1.251,-1.3521,-1.4169,-1.4765,-1.5739,-1.646,-1.713,-1.7627,-1.7244,-1.6959,-1.7065,-1.6664,-1.636,-1.6546,-1.6391,-1.627,-1.6032,-1.604,-1.6162,-1.6438,-1.6365,-1.6487,-1.6844,-1.6933,-1.7071,-1.725,-1.7873,-1.8373,-1.8733,-1.8639,-1.8818,-1.9086,-1.863,-1.8639,-1.8561,-1.8473,-1.8638,-1.8742,-1.7928,-1.8149,-1.8796,-1.8796,-1.8262,-1.7712,-0.9952,-0.9952,-0.9844,-0.9544,-0.9484,-0.9484,-0.9484,-0.988,-1.0441,-1.0972,-1.1648,-1.2288,-1.2831,-1.2687,-1.259,-1.2699,-1.2566,-1.288,-1.3845,-1.3761,-1.3857,-1.428,-1.4292,-1.4292,-1.4292,-1.4292,-1.4437,-1.4714,-1.4714,-1.498,-1.5499,-1.5499,-1.5527,-1.5565,-1.4374,-1.3186,-1.1982,-1.0891,-0.9809,-0.894,-0.894,-0.894,-0.894,-0.894,-0.894,-0.894,-0.894,-0.894,-0.894,-0.894,-0.894,-0.894,-0.894,-0.8771,-0.8533,-0.8364,-0.8459,0.0,0.0,0.0,0.0,0.0,0.0,0.0,0.0,-0.9313,-0.9449,-1.0378,-1.067,-1.1254,-1.2605,-1.2564,-1.2866,-1.4095,-1.3909,-1.4055,-1.4894,-1.5879,-1.673,-1.7785,-1.7873,-1.7792,-1.779,-1.7328,-1.6957,-1.707,-1.6782,-1.6518,-1.6467,-1.6341,-1.6527,-1.6893,-1.6763,-1.6868,-1.7266,-1.7234,-1.7307,-1.7494,-1.7927,-1.8158,-1.8199,-1.8018,-1.8035,-1.806,-1.7944,-1.7977,-1.7936,-1.7835,-1.7684,-1.7676,-1.688,-1.6955,-1.7463,-1.7529,-1.7025,-1.6325,-1.0333,-1.0284,-1.0128,-0.9568,-0.9484,-0.9484,-0.9484,-0.9724,-1.0176,-1.0695,-1.1045,-1.1455,-1.1999,-1.2035,-1.2192,-1.2662,-1.2904,-1.3278,-1.387,-1.4099,-1.4232,-1.4292,-1.4292,-1.4292,-1.4292,-1.4292,-1.4437,-1.4714,-1.4714,-1.498,-1.5499,-1.5499,-1.5106,-1.4385,-1.3176,-1.1982,-1.0781,-0.9588,-0.9051,-0.894,-0.894,-0.894,-0.894,-0.894,-0.894,-0.894,-0.894,-0.894,-0.894,-0.894,-0.894,-0.894,-0.894,-0.8913,-0.8832,-0.854,-0.8391,-0.8269,-0.8052,-0.8492,-0.9157,-0.9754,-0.9795,-1.0114,0.0,-1.1463,-1.1179,-1.2216,-1.2447,-1.2528,-1.2924,-1.3051,-1.3281,-1.3549,-1.3749,-1.4368,-1.5226,-1.5715,-1.6164,-1.7173,-1.7887,-1.8689,-1.9053,-1.7687,-1.7104,-1.8126,-1.6759,-1.6285,-1.6818,-1.6631,-1.6714,-1.7071,-1.7063,-1.7299,-1.7819,-1.7664,-1.7672,-1.7851,-1.719,-1.7135,-1.7829,-1.6915,-1.6818,-1.7333,-1.691,-1.6793,-1.6979,-1.7055,-1.6946,-1.7104,-1.6967,-1.6632,-1.6095,-1.6744,-1.6672,-1.6318,-1.055,-1.0309,-0.9964,-0.9748,-0.958,-0.9484,-0.9484,-0.97,-1.0067,-1.0441,-1.0852,-1.1202,-1.1431,-1.131,-1.1371,-1.1745,-1.2312,-1.294,-1.3628,-1.4063,-1.4292,-1.4292,-1.4292,-1.4292,-1.4292,-1.4292,-1.4437,-1.4714,-1.4097,-1.4283,-1.527,-1.4023,-1.3624,-1.3837,-1.2131,-1.1116,-1.0672,-0.9375,-0.894,-0.894,-0.894,-0.894,-0.894,-0.894,-0.894,-0.894,-0.894,-0.8879,0.0,-0.8906,-0.8879,-0.8818,-0.8913,-0.8879,-0.8777,-0.8655,-0.8757,-0.9076,-0.9795,-0.9856,-0.9897,-1.0643,-1.0785,-1.0934,-1.1681,-1.1633,-1.1701,-1.2664,-1.3003,-1.3166,-1.3322,-1.3519,-1.3688,0.0,-1.3953,-1.4277,-1.4717,-1.5308,-1.5881,-1.6233,-1.7148,-1.7707,-1.7768,-1.6974,-1.6713,-1.68,-1.6283,-1.6051,-1.6262,-1.616,-1.6354,-1.6876,-1.7137,-1.7599,-1.8126,-1.8043,-1.8043,-1.8126,-1.7713,-1.7547,-1.7802,-1.7063,-1.6865,-1.7024,-1.7019,-1.7088,-1.7443,-1.6758,-1.6644,-1.6363,-1.586,-1.5341,-1.502,-1.5861,-1.5727,-1.5198,-1.0478,-1.02,-0.9844,-0.9784,-0.9604,-0.9484,-0.9484,-0.964,-0.9856,-1.0119,-1.055,-1.0791,-1.0791,-1.055,-1.0562,-1.0972,-1.1745,-1.2542,-1.335,-1.3966,-1.4292,-1.4292,-1.4292,-1.4292,-1.4292,-1.4292,-1.4401,-1.4606,-1.3489,-1.3513,-1.4476,-1.2741,-1.2235,-1.2755,-1.1186,-1.0329,-1.0062,-0.9201,-0.8899,-0.894,-0.894,-0.894,-0.894,-0.894,-0.8913,-0.8872,-0.8872,-0.8804,-0.8716,-0.8743,-0.871,-0.8662,-0.873,-0.8703,-0.8655,-0.8696,-0.894,-0.9429,-1.0487,-1.0561,-1.0507,-1.1212,-1.1579,-1.1762,-1.1762,-1.1911,-1.223,-1.2888,-1.3254,-1.3498,-1.3607,-1.3777,-1.3939,-1.4055,-1.4109,-1.4177,-1.4285,-1.4829,-1.5352,-1.5352,-1.5881,-1.6179,-1.6056,-1.6238,-1.6113,-1.6057,-1.5917,-1.5768,-1.5941,-1.5861,-1.622,-1.6872,-1.712,-1.7451,-1.7721,-1.7903,-1.7878,-1.7648,-1.7596,-1.7293,-1.711,-1.6788,-1.6574,-1.6506,-1.6442,-1.6842,-1.698,-1.6206,-1.5913,-1.5579,-1.4812,-1.4489,-1.4306,-1.5049,-1.4864,-1.4306,-0.994,-0.988,-0.9796,-0.9544,-0.9484,-0.9484,-0.9484,-0.9484,-0.9592,-0.9844,-0.9892,-0.9904,-0.9904,-0.9676,-0.9832,-1.0659,-1.1467,-1.2276,-1.3085,-1.387,-1.4292,-1.4292,-1.4292,-1.4292,-1.4292,-1.4292,-1.4304,-1.4304,-1.3232,-1.2856,-1.3192,-1.2084,-1.1198,-1.036,-1.0256,-0.9625,-0.8716,-0.8716,-0.8804,-0.894,-0.894,-0.894,-0.894,-0.894,-0.8845,-0.8716,-0.8716,-0.8716,-0.8669,-0.8384,-0.8377,-0.8465,-0.833,-0.8384,-0.852,-0.8669,-0.8716,-0.8804,-0.913,-0.9842,-1.0629,-1.124,-1.2047,-1.2691,-1.2691,-1.2915,-1.3132,-1.3159,-1.341,-1.3627,-1.3627,-1.3871,-1.4068,-1.4075,-1.4197,-1.4292,-1.4299,-1.4299,-1.4299,-1.4299,-1.4299,-1.4299,0.0,-1.5024,-1.5894,-1.6576,-1.5677,-1.541,-1.6464,-1.6423,-1.6495,-1.6658,-1.6658,-1.6584,-1.6627,-1.6988,-1.6903,-1.6189,-1.6196,-1.6022,-1.5483,-1.5271,-1.5045,-1.5167,-1.5174,-1.5286,-1.5142,-1.4808,-1.4658,-1.4502,-1.4367,-1.4306,-1.4319,-1.4455,-1.4414,-1.4319,-1.0441,-1.0107,-0.9904,-1.0055,-0.9712,-0.9484,-0.9484,-0.9484,-0.952,-0.9604,-0.9616,0.0,0.0,0.0,0.0,0.0,-1.1455,-1.2264,-1.3073,-1.3701,-1.4111,-1.4292,-1.4292,-1.4292,-1.4292,-1.4292,-1.4292,-1.4292,-1.3221,-1.3061,-1.3831,-1.1373,-1.0488,-1.0985,-0.9563,-0.8834,-0.856,-0.856,-0.8648,-0.8784,-0.8784,-0.8845,-0.894,-0.894,-0.8777,-0.8547,0.0,-0.835,-0.8269,-0.8269,-0.8167,-0.8065,-0.8221,-0.8235,-0.8235,-0.8486,-0.8838,-0.9306,-1.0005,-1.0704,-1.143,-1.223,-1.2732,-1.3051,-1.3152,-1.3254,-1.3376,-1.3573,-1.339,-1.3214,-1.3308,-1.3492,-1.3593,-1.3492,-1.3939,-1.4299,-1.4299,-1.4299,-1.4299,-1.4299,-1.4299,0.0,0.0,0.0,0.0,-1.5154,-1.4914,-1.4903,-1.5533,-1.5469,-1.5732,-1.596,-1.6228,-1.6514,-1.6644,-1.6826,-1.6795,-1.656,-1.6118,-1.5625,-1.5087,-1.5045,-1.5031,-1.4896,-1.4997,-1.4957,-1.4814,-1.476,-1.4652,-1.4516,-1.457,-1.459,-1.4611,-1.476,-1.4848,-1.4882,-1.0586,-1.0453,-1.0381,-1.0453,-1.0048,0.0,0.0,0.0,0.0,0.0,0.0,0.0,0.0,0.0,0.0,0.0,0.0,-1.189,-1.2518,-1.323,-1.3737,-1.4002,-1.393,-1.3966,-1.4147,-1.3978,-1.4014,-1.4292,-1.3132,-1.2984,-1.3842,-1.1296,-1.0555,-1.1278,-0.9485,-0.8874,-0.8916,-0.8612,-0.8554,-0.8784,-0.8676,-0.8723,-0.8845,-0.8737,-0.8506,0.0,-0.8079,-0.7929,-0.7807,-0.7855,-0.7773,-0.7685,-0.7889,-0.8065,-0.8269,-0.8615,-0.911,-0.9768,-1.0833,-1.1443,-1.1993,-1.2895,-1.3227,-1.3349,-1.339,-1.3566,-1.3729,-1.3763,-1.3417,-1.3112,-1.3098,-1.322,-1.32,-1.2834,-1.3451,-1.396,-1.3905,-1.3946,-1.4061,-1.4272,-1.4299,-1.4265,0.0,0.0,0.0,-1.4421,-1.4536,-1.4706,-1.4957,-1.5018,-1.5231,-1.5596,-1.5682,-1.5971,-1.6103,-1.6345,-1.6551,-1.6559,-1.5917,-1.5417,-1.5052,-1.5086,-1.5031,-1.4896,-1.4889,-1.4896,-1.4889,-1.4787,-1.4713,-1.4685,-1.4787,-1.4821,-1.4841,-1.4991,-1.5174,-1.5323,-1.0466,-1.0767,-1.1033,0.0,0.0,0.0,0.0,0.0,0.0,0.0,0.0,0.0,0.0,0.0,0.0,0.0,0.0,0.0,-1.1516,-1.2493,-1.3181,-1.3459,-1.3254,-1.335,-1.3857,-1.3297,-1.3417,-1.416,-1.2869,-1.2512,-1.294,-1.1747,-1.1072,-1.1072,-1.0002,-0.9606,-0.9665,-0.8663,-0.8506,-0.8866,-0.8574,-0.8547,-0.8642,-0.8364,-0.8065,-0.778,-0.7645,-0.7489,-0.7333,-0.7204,-0.7292,-0.7455,-0.7489,-0.7984,-0.8648,-0.9089,-0.9544,-1.0188,-1.1491,-1.1979,-1.2325,-1.3207,-1.3539,-1.3614,-1.3478,-1.3892,-1.417,-1.3702,-1.3458,-1.3234,-1.2908,-1.2996,-1.2881,-1.2169,-1.2834,-1.3397,-1.3247,-1.3356,-1.3661,0.0,-1.4299,-1.4299,-1.4299,0.0,0.0,-1.4326,0.0,-1.4808,-1.497,-1.5113,-1.5181,-1.5181,-1.5181,-1.512,-1.4984,-1.5494,-1.5938,-1.5938,-1.5368,-1.5181,-1.5174,-1.5045,-1.5059,-1.5167,-1.4882,-1.4923,-1.516,-1.4875,-1.4848,-1.4984,-1.4991,-1.4997,-1.5025,-1.5167,-1.5404,-1.5448,0.0,0.0,0.0,0.0,0.0,0.0,0.0,0.0,0.0,0.0,0.0,0.0,0.0,0.0,0.0,0.0,0.0,0.0,-1.1504,-1.1974,-1.2433,-1.2892,-1.3049,-1.3181,-1.3314,-1.2643,-1.2484,-1.2674,-1.1754,-1.1382,-1.15,-1.0538,-1.0002,-1.0002,-0.8924,-0.8457,-0.8392,-0.8199,-0.8167,-0.8262,-0.8187,-0.8174,-0.8201,-0.8126,-0.7916,-0.7651,-0.7611,-0.736,-0.7088,-0.738,-0.7957,-0.8615,-0.9055,-0.9401,-0.9713,-1.0053,-1.0548,-1.1138,-1.1816,-1.244,-1.3024,-1.3587,-1.3844,-1.398,-1.4055,-1.419,-1.4109,-1.3431,-1.2813,-1.2176,-1.143,-1.187,-1.2244,-1.1938,-1.3119,0.0,-1.4021,-1.4048,-1.4129,-1.4285,-1.4299,-1.4299,-1.4299,-1.4496,0.0,0.0,-1.4699,-1.4855,-1.5113,-1.516,-1.5181,-1.5181,-1.5181,-1.5167,-1.5126,-1.5355,-1.5368,-1.5368,-1.5181,-1.5181,-1.5181,-1.5147,-1.5147,-1.5181,-1.5099,-1.5113,-1.5174,-1.5099,-1.5092,-1.514,-1.5255,-1.5371,-1.5486,-1.5628,-1.4813,-1.3563,0.0,0.0,0.0,0.0,0.0,0.0,0.0,0.0,0.0,0.0,0.0,0.0,0.0,0.0,0.0,0.0,0.0,0.0,0.0,-1.1685,-1.2119,-1.2192,-1.2457,-1.2602,-1.2602,-1.1989,-1.1849,-1.2178,-1.1321,-1.104,-1.1333,-1.0334,-0.9877,-0.9877,-0.8761,-0.8298,-0.8298,-0.7834,-0.7719,0.0,0.0,-0.7787,-0.7841,-0.7773,-0.7604,-0.74,-0.74,-0.7489,-0.7699,-0.8282,-0.8818,-0.93,-0.97,-1.0012,-1.0331,-1.0758,-1.1219,-1.1714,-1.2298,-1.2901,-1.3451,-1.3763,-1.4007,-1.4075,-1.3695,-1.3709,-1.3532,-1.2589,-1.1898,-1.1301,-1.0724,-1.1355,-1.1823,-1.1409,-1.2786,-1.3905,-1.3905,-1.3905,-1.4027,-1.4353,-1.434,-1.4326,-1.4387,-1.4604,-1.4767,0.0,-1.4841,-1.4943,-1.5167,-1.5126,-1.512,-1.5181,-1.5181,-1.5181,-1.5181,-1.5181,-1.5181,-1.5181,-1.5181,-1.5181,-1.5181,-1.512,-1.516,-1.5276,0.0,-1.5235,-1.5466,-1.5337,-1.5357,-1.5486,-1.5574,-1.5655,-1.5549,-1.4839,-1.3755,-1.2647,0.0,0.0,0.0,0.0,0.0,0.0,0.0,0.0,0.0,-0.9676,-0.9832,-0.994,0.0,0.0,0.0,0.0,0.0,0.0,0.0,0.0,-1.2023,-1.16,-1.183,-1.1962,-1.1926,-1.1301,-1.1307,-1.204,-1.0913,-1.072,-1.1314,-1.0346,-0.9924,-0.9751,-0.8835,-0.8495,-0.8416,-0.7482,-0.7285,-0.7502,-0.7387,-0.7407,-0.7495,0.0,-0.7258,-0.7143,-0.7163,-0.7733,-0.8601,-0.9354,-0.9686,-0.9829,-1.0046,-1.0399,-1.0839,-1.1382,-1.1721,-1.2074,-1.2773,-1.3275,-1.3641,-1.3797,-1.4075,-1.4027,-1.2996,-1.2963,-1.2786,-1.1531,-1.0948,-1.0588,-1.0358,-1.105,-1.1477,-1.0928,-1.2264,-1.341,-1.3532,-1.3532,-1.377,-1.4434,-1.4387,-1.4353,-1.4496,-1.4652,-1.4801,-1.4957,-1.497,-1.5031,-1.5174,-1.5065,-1.5059,-1.5181,-1.5181,-1.5181,-1.5181,-1.5181,-1.5181,-1.5181,-1.5181,-1.5181,-1.5181,-1.5059,-1.516,-1.5425,0.0,0.0,-1.5866,-1.5608,-1.5455,-1.5486,-1.5486,-1.5283,-1.489,-1.2913,-1.2175,-1.1634,0.0,0.0,0.0,0.0,0.0,0.0,0.0,0.0,0.0,0.0,-1.0502,-1.0345,0.0,0.0,0.0,0.0,0.0,0.0,0.0,0.0,0.0,-1.1854,-1.2107,-1.2143,-1.1926,-1.101,-1.0523,-1.0458,-0.9468,-0.8711,-0.826,-0.8205,-0.7848,-0.7362,-0.7247,-0.7218,-0.7232,-0.7088,-0.7102,-0.7054,-0.7143,-0.7129,-0.7054,-0.7143,0.0,0.0,-0.7285,-0.7828,-0.8601,-0.9354,-1.01,-1.0826,-1.147,-1.1809,-1.202,-1.2244,-1.2345,-1.2467,-1.2854,-1.3193,-1.3505,-1.3777,-1.4075,-1.4061,-1.3132,-1.2963,-1.2549,-1.0975,-1.0493,-1.0154,-0.9503,-1.012,-1.0887,-1.1382,-1.2447,-1.3471,-1.4211,-1.4217,-1.4238,-1.4482,-1.4387,-1.4353,-1.4496,-1.4652,0.0,0.0,0.0,0.0,-1.5174,-1.516,-1.516,-1.5181,-1.5181,-1.5181,-1.5181,-1.5181,-1.5181,-1.5181,-1.5181,-1.5181,-1.5181,-1.516,-1.5309,-1.5594,0.0,0.0,-1.6035,-1.5988,-1.4991,-1.3427,-1.3427,-1.2432,-1.0636,-1.0436,-0.9044,-0.7455,0.0,0.0,0.0,0.0,0.0,0.0,0.0,-1.0659,-1.0972,-1.1648,-1.1636,-1.1516,-1.1359,-1.1455,-1.1588,0.0,0.0,0.0,0.0,0.0,0.0,0.0,-1.2095,-1.2131,-1.1721,-1.1097,-1.0727,-1.0614,0.0,-0.8295,-0.7999,-0.7165,-0.6613,-0.6234,-0.6308,-0.6342,-0.6349,-0.6498,-0.6525,-0.6478,-0.6702,-0.6797,-0.6824,-0.6973,0.0,0.0,-0.7434,-0.797,-0.8669,-0.911,-0.9958,-1.0975,-1.1803,-1.2169,-1.2318,-1.2461,-1.2501,-1.2535,-1.2684,-1.3051,-1.3437,-1.358,-1.396,-1.3919,-1.2474,-1.2142,-1.1653,-0.9924,-0.9449,-0.9259,-0.8974,-0.9652,-1.0378,-1.0744,-1.2074,-1.3268,-1.3851,-1.4143,-1.438,-1.4604,-1.4434,-1.4387,-1.4611,-1.4699,-1.4835,0.0,0.0,0.0,-1.5181,-1.5181,-1.5181,-1.5181,-1.5181,-1.5181,-1.5181,-1.5181,-1.5181,-1.5181,-1.4228,-1.3664,-1.3664,-1.2528,-1.2668,-1.4073,-1.2897,0.0,-1.4271,-1.3267,-1.2063,-1.1259,-1.1259,-1.0658,-0.9661,-0.8457,-0.7251,-0.6254,0.0,0.0,0.0,0.0,0.0,0.0,0.0,-1.1298,-1.1685,-1.2542,-1.2783,-1.2699,-1.2228,-1.1999,-1.1926,0.0,0.0,0.0,0.0,0.0,0.0,0.0,0.0,0.0,-1.1709,0.0,0.0,-1.0818,-0.9069,0.0,0.0,0.0,0.0,0.0,-0.5833,-0.5833,-0.5813,-0.6003,-0.6057,0.0,0.0,-0.6593,-0.6722,0.0,0.0,0.0,0.0,-0.8018,-0.856,-0.8845,-0.9564,-1.0487,-1.1355,-1.1843,-1.2128,-1.2271,-1.2332,-1.2379,-1.2474,-1.2915,-1.3363,-1.339,-1.3831,-1.3749,-1.183,-1.1369,-1.0833,-0.9028,-0.854,-0.8492,-0.8676,-0.9313,-0.9883,-1.0107,-1.1457,-1.2698,-1.3315,-1.3783,-1.4217,-1.4638,-1.4462,-1.4414,-1.4713,-1.474,0.0,0.0,0.0,0.0,-1.5228,-1.5228,-1.5228,-1.5228,-1.5208,-1.5201,-1.5201,-1.5208,-1.4825,-1.4241,-1.2722,-1.1773,-1.139,-0.9901,-1.0199,-1.1727,-1.0188,0.0,0.0,-1.0458,-0.946,-0.9055,-0.9055,-0.8654,-0.8055,-0.6447,-0.5642,-0.545,0.0,0.0,0.0,0.0,0.0,0.0,0.0,-1.1902,-1.2578,-1.3628,-1.3568,-1.3326,-1.3049,-1.2988,-1.288,0.0,0.0,0.0,0.0,0.0,0.0,0.0,0.0,0.0,0.0,0.0,0.0,-0.9992,-0.8709,0.0,0.0,0.0,0.0,0.0,0.0,-0.5928,-0.582,-0.6112,0.0,0.0,0.0,0.0,0.0,0.0,0.0,0.0,0.0,-0.7834,-0.8004,-0.8703,-0.9008,-0.9232,-0.9998,-1.0806,-1.1504,-1.1653,-1.1789,-1.1979,-1.2393,-1.284,-1.3227,-1.3363,-1.3749,-1.362,-1.1803,-1.1287,-1.0677,-0.8872,-0.8391,-0.8377,-0.8655,-0.8893,-0.9347,-1.0297,-1.0717,-1.1504,-1.3166,-1.3329,-1.3587,-1.4434,-1.4394,-1.4414,-1.4713,-1.474,0.0,0.0,0.0,0.0,0.0,-1.5391,-1.5391,-1.5391,-1.5296,-1.5242,-1.5242,-1.5276,-1.3932,-1.1421,-1.1232,-1.0649,-0.9315,-0.9207,-0.9297,-0.9586,0.0,0.0,0.0,-0.9861,-0.8457,-0.6648,-0.6648,-0.5443,-0.3835,-0.3633,-0.3431,-0.3436,0.0,0.0,0.0,0.0,0.0,0.0,-1.2373,-1.253,-1.2988,-1.4232,-1.4014,-1.3713,-1.3604,-1.3314,-1.2952,-1.2506,0.0,0.0,0.0,0.0,0.0,0.0,0.0,0.0,0.0,0.0,-0.9371,-0.9656,-0.8335,0.0,0.0,0.0,0.0,0.0,0.0,-0.5861,-0.5813,-0.603,0.0,0.0,0.0,0.0,0.0,0.0,0.0,0.0,0.0,0.0,-0.7991,-0.8296,-0.8642,-0.8947,-0.8967,-0.953,-1.0351,-1.1226,-1.1586,-1.1823,-1.2359,-1.2766,-1.3078,-1.3227,-1.3193,-1.2773,-1.143,-1.0724,-0.9978,-0.8635,-0.8235,-0.8221,-0.852,-0.8554,-0.873,-0.932,-0.9924,-1.0629,-1.1525,-1.2454,-1.3207,-1.3654,-1.4055,-1.438,0.0,0.0,0.0,0.0,0.0,0.0,0.0,-1.4379,-1.3566,-1.3674,-1.3078,-1.2835,-1.2762,-1.1421,-0.9698,-0.8167,-0.8561,-0.8185,-0.723,-0.6117,-0.637,-0.744,0.0,0.0,0.0,-0.6246,-0.5242,-0.4438,-0.4438,-0.4035,-0.323,-0.323,-0.323,-0.3234,0.0,0.0,0.0,0.0,0.0,-1.1986,-1.2868,-1.2904,-1.3254,-1.4437,-1.4195,-1.3882,-1.3797,-1.3254,-1.2759,-1.2457,-1.253,0.0,0.0,0.0,0.0,0.0,0.0,0.0,0.0,0.0,-0.8748,-0.9108,-0.7878,-0.7273,0.0,0.0,-0.6078,-0.5935,0.0,0.0,0.0,0.0,0.0,0.0,0.0,0.0,0.0,0.0,0.0,0.0,0.0,0.0,0.0,0.0,0.0,-0.8615,-0.8303,-0.8594,-0.93,-1.0561,-1.1131,-1.1491,-1.2128,-1.2589,-1.2935,-1.3125,-1.2807,-1.2176,-1.1179,-1.0365,-0.951,-0.8425,-0.8113,-0.8119,-0.837,-0.837,-0.8431,-0.873,-0.9347,-0.9964,-1.0487,-1.1565,-1.2433,-1.28,-1.3315,-1.3783,0.0,0.0,0.0,0.0,0.0,0.0,0.0,-1.3074,-1.1885,-1.2384,-1.0825,-0.9998,-1.009,-0.6844,-0.4938,-0.4367,-0.533,-0.5715,-0.5142,-0.3837,-0.3875,-0.5294,0.0,0.0,0.0,-0.3833,-0.323,-0.323,-0.323,-0.323,-0.323,-0.323,-0.323,-0.3234,0.0,0.0,0.0,0.0,0.0,0.0,-1.2542,-1.294,-1.3399,-1.4195,-1.4075,-1.3809,-1.3544,-1.2807,-1.2421,-1.2674,-1.2469,0.0,0.0,0.0,0.0,0.0,0.0,0.0,0.0,0.0,-0.7426,-0.8098,-0.7267,-0.6763,-0.6551,-0.6471,-0.639,-0.6331,0.0,0.0,0.0,0.0,0.0,0.0,0.0,0.0,0.0,0.0,0.0,0.0,0.0,0.0,0.0,0.0,0.0,0.0,0.0,-0.8153,-0.8486,-0.953,-1.0263,-1.0894,-1.1633,-1.2277,-1.28,-1.3098,-1.2732,-1.206,-1.1151,-1.0365,-0.9483,-0.8289,-0.8038,-0.8085,-0.8241,-0.8384,-0.8581,-0.8886,-0.9062,-0.9523,-1.0568,-1.0731,-1.1077,-1.1965,-1.2081,-1.2433,-1.3329,0.0,0.0,0.0,0.0,0.0,0.0,-1.1666,-1.0361,-1.2509,-0.9116,-0.731,-0.7623,-0.2667,-0.0,-0.0,-0.2098,-0.3052,-0.3054,-0.3115,-0.3142,0.0,0.0,0.0,0.0,-0.323,-0.323,-0.323,-0.323,-0.323,-0.323,-0.323,-0.323,-0.323,0.0,0.0,0.0,0.0,0.0,0.0,0.0,-1.2361,-1.2518,-1.3133,-1.2976,-1.2856,-1.2952,-1.2409,-1.2228,-1.2662,-1.23,0.0,0.0,0.0,0.0,0.0,0.0,0.0,0.0,0.0,-0.7062,-0.7433,-0.7039,-0.6926,-0.6926,-0.6722,-0.6546,-0.6403,-0.6302,-0.6234,0.0,0.0,0.0,0.0,0.0,0.0,0.0,0.0,0.0,0.0,0.0,0.0,0.0,0.0,0.0,0.0,0.0,0.0,0.0,-0.875,-0.9476,-1.0222,-1.0765,-1.1131,-1.1355,-1.1341,-1.0819,-1.0229,-0.9944,-0.93,-0.8621,-0.814,-0.8038,-0.8085,-0.8241,-0.8221,-0.8377,-0.8988,-0.9042,-0.9232,-0.9869,-1.0928,-1.1701,-1.1884,-1.2901,-1.3743,0.0,0.0,0.0,0.0,0.0,0.0,0.0,0.0,-1.0551,-1.0262,-0.6384,-0.4428,-0.4575,-0.1526,-0.0,-0.0,-0.1335,-0.2479,-0.3054,-0.3093,0.0,0.0,0.0,0.0,0.0,-0.323,-0.323,-0.323,-0.323,-0.323,-0.323,-0.323,-0.323,-0.323,0.0,0.0,0.0,0.0,0.0,0.0,0.0,-1.2023,-1.2071,-1.2506,-1.2324,-1.2135,-1.2225,-1.156,-1.1261,-1.169,-1.1139,0.0,0.0,0.0,0.0,0.0,0.0,0.0,0.0,-0.6837,-0.6905,-0.7143,-0.7109,-0.7109,-0.7136,-0.6953,-0.6722,-0.6471,-0.6383,-0.6308,0.0,0.0,0.0,0.0,0.0,0.0,-0.7156,0.0,0.0,0.0,0.0,0.0,0.0,0.0,0.0,0.0,0.0,0.0,0.0,0.0,-0.8838,-0.9435,-1.0005,-1.0351,-1.0541,-1.05,-0.993,-0.9381,-0.9381,-0.8804,-0.8228,-0.8072,-0.8038,-0.8072,-0.8167,-0.8153,-0.8296,-0.8818,-0.8872,-0.913,-0.9917,-1.086,-1.1579,-1.1884,-1.3078,0.0,0.0,0.0,0.0,0.0,0.0,0.0,0.0,0.0,-0.9285,-0.9216,-0.5209,-0.289,-0.248,-0.1526,-0.1145,-0.1144,-0.1335,-0.2098,-0.3054,-0.3084,0.0,0.0,0.0,0.0,0.0,-0.323,-0.323,-0.323,-0.323,-0.323,-0.323,-0.323,-0.323,-0.3228,0.0,0.0,0.0,0.0,0.0,0.0,0.0,-1.1774,-1.1938,-1.2086,-1.1918,-1.1642,-1.1335,-1.0433,-0.9891,-0.999,0.0,0.0,0.0,0.0,0.0,0.0,0.0,0.0,0.0,-0.6912,-0.6987,-0.7143,-0.7305,-0.7319,-0.719,-0.7177,-0.6932,-0.6505,-0.6491,-0.6403,0.0,0.0,0.0,0.0,-0.6885,-0.7027,0.0,0.0,0.0,0.0,0.0,0.0,0.0,0.0,0.0,0.0,0.0,0.0,0.0,0.0,0.0,0.0,0.0,-0.9802,-1.0181,-1.029,-0.9795,-0.9286,-0.9286,-0.875,0.0,-0.8072,-0.8038,-0.8045,-0.8052,-0.8167,-0.8316,-0.8499,-0.8642,-0.9198,-1.0417,-1.0704,-1.105,-1.204,-1.2648,0.0,0.0,0.0,0.0,0.0,0.0,0.0,0.0,0.0,-0.6666,-0.858,-0.5003,-0.2695,-0.1716,-0.2479,-0.2862,-0.2862,-0.2098,-0.2098,-0.3054,-0.3086,0.0,0.0,0.0,0.0,0.0,-0.323,-0.323,-0.323,-0.323,-0.323,-0.323,-0.323,-0.323,-0.3227,0.0,0.0,0.0,0.0,0.0,0.0,0.0,0.0,0.0,0.0,-1.0307,-1.0121,-0.9448,-0.9125,-0.9135,0.0,0.0,0.0,0.0,0.0,0.0,0.0,0.0,0.0,0.0,-0.6756,-0.6878,-0.7143,-0.7414,-0.7584,-0.7651,-0.7543,-0.7251,-0.6817,-0.6702,-0.6505,0.0,0.0,0.0,0.0,-0.7034,-0.7183,0.0,0.0,0.0,0.0,-0.7414,-0.759,0.0,0.0,0.0,0.0,0.0,0.0,0.0,0.0,-0.778,-0.7848,-0.8024,0.0,-0.8859,-0.8662,-0.8486,-0.8357,0.0,-0.8221,-0.8085,-0.8045,-0.8038,-0.8072,-0.8194,-0.8147,-0.8289,-0.8899,-0.8933,-0.9238,-1.0174,-1.1257,-1.2364,-1.3044,-1.2283,0.0,0.0,0.0,0.0,0.0,0.0,0.0,0.0,0.0,-0.4004,-0.4577,-0.3632,-0.3059,-0.2671,-0.1336,-0.0764,-0.0764,-0.2099,-0.2862,-0.3054,-0.3108,0.0,0.0,0.0,0.0,-0.323,-0.323,-0.323,-0.323,-0.323,-0.323,-0.323,-0.323,-0.323,-0.323,0.0,0.0,0.0,0.0,0.0,0.0,0.0,0.0,0.0,0.0,0.0,-0.9008,-0.8246,0.0,0.0,0.0,0.0,0.0,0.0,0.0,0.0,0.0,0.0,0.0,0.0,-0.6702,-0.6878,-0.7244,-0.7482,-0.7672,-0.7807,-0.7665,-0.736,-0.6919,-0.6627,-0.641,0.0,0.0,0.0,-0.6939,-0.7082,0.0,0.0,0.0,0.0,0.0,-0.7346,-0.7475,0.0,-0.7604,-0.7692,-0.7794,0.0,0.0,0.0,0.0,-0.7597,-0.7597,-0.7597,-0.7882,-0.8133,-0.7977,-0.7984,-0.8038,-0.8038,-0.8038,-0.8038,-0.8038,-0.8038,-0.8065,-0.8147,-0.8072,-0.8234,-0.8838,-0.8828,-0.911,-1.0205,-1.1511,-1.2346,-1.202,-1.1464,0.0,0.0,0.0,0.0,0.0,0.0,0.0,0.0,0.0,-0.3052,-0.3054,-0.3052,-0.3052,-0.3052,-0.0954,-0.0,-0.0,-0.1526,-0.267,-0.3054,-0.3086,0.0,0.0,0.0,0.0,-0.323,-0.323,-0.323,-0.323,-0.323,-0.323,-0.323,-0.323,-0.323,-0.3228,0.0,0.0,0.0,0.0,0.0,0.0,0.0,0.0,0.0,0.0,0.0,0.0,0.0,0.0,0.0,0.0,0.0,0.0,0.0,0.0,0.0,0.0,0.0,0.0,0.0,0.0,-0.6919,-0.7373,-0.755,-0.7706,-0.7841,-0.7746,-0.7434,-0.6946,-0.6519,-0.6302,0.0,0.0,-0.677,-0.6939,-0.7034,0.0,0.0,0.0,0.0,0.0,0.0,0.0,0.0,-0.7468,-0.7604,-0.7733,-0.7665,0.0,0.0,0.0,0.0,0.0,-0.759,-0.7787,-0.8048,-0.7814,-0.7909,-0.8031,-0.8011,-0.8024,-0.8038,-0.8038,-0.8038,-0.7992,-0.8044,-0.8036,-0.8141,-0.8169,-0.8514,-0.9071,-1.0184,-1.1149,-1.1499,-1.0517,0.0,0.0,0.0,0.0,0.0,0.0,0.0,0.0,0.0,0.0,0.0,-0.2864,-0.3054,-0.2862,-0.2671,-0.0954,-0.0,-0.0,-0.0954,-0.2098,-0.3052,-0.3056,-0.3086,0.0,0.0,0.0,-0.3224,-0.3228,-0.323,-0.323,-0.323,-0.323,-0.323,-0.323,-0.3227,-0.322,0.0,0.0,0.0,0.0,0.0,0.0,0.0,0.0,0.0,0.0,0.0,0.0,0.0,0.0,0.0,0.0,0.0,0.0,0.0,0.0,0.0,0.0,0.0,0.0,0.0,0.0,0.0,-0.7373,-0.7645,-0.7855,-0.8004,-0.8119,-0.7787,-0.7095,-0.6776,-0.6491,-0.6274,-0.6437,-0.6668,-0.6919,-0.681,0.0,0.0,0.0,0.0,0.0,0.0,0.0,0.0,-0.7109,-0.721,-0.7373,-0.6993,0.0,0.0,0.0,0.0,0.0,-0.7529,-0.847,-0.8998,-0.7918,-0.7834,-0.8004,-0.7875,-0.7943,-0.8038,-0.8038,-0.8038,-0.8007,-0.819,-0.8313,-0.8054,-0.6893,-0.8474,-0.9758,-0.9585,-0.9215,-0.9123,-0.9445,0.0,0.0,0.0,0.0,0.0,0.0,0.0,0.0,0.0,0.0,0.0,-0.1716,-0.2672,-0.229,-0.0573,-0.0191,-0.0,-0.0,-0.0954,-0.2098,-0.3054,-0.3078,-0.3096,0.0,0.0,-0.3186,-0.3197,-0.322,-0.323,-0.323,-0.323,-0.323,-0.323,-0.323,-0.3215,-0.3194,0.0,0.0,0.0,0.0,0.0,0.0,0.0,0.0,0.0,0.0,0.0,0.0,0.0,0.0,0.0,0.0,0.0,0.0,0.0,0.0,0.0,0.0,0.0,0.0,0.0,0.0,0.0,-0.7611,-0.7909,-0.8092,-0.816,-0.7821,-0.7434,-0.7007,-0.6634,-0.639,-0.6345,-0.641,-0.6647,-0.6926,0.0,0.0,0.0,0.0,0.0,0.0,0.0,0.0,0.0,0.0,-0.7068,-0.7197,-0.6912,0.0,0.0,0.0,0.0,0.0,-0.7197,-0.7903,-0.8512,-0.8201,-0.8297,-0.8284,-0.7991,-0.7199,-0.6565,-0.6502,-0.6443,-0.6551,-0.703,-0.6412,-0.6362,-0.7964,-0.844,-0.7565,-0.4749,-0.5507,-0.6724,0.0,0.0,0.0,0.0,0.0,0.0,0.0,0.0,0.0,0.0,0.0,0.0,0.0,-0.1145,-0.0954,-0.0,-0.0,-0.0573,-0.1717,-0.1526,-0.2098,-0.3052,-0.3066,-0.3082,-0.31,0.0,-0.3172,-0.319,-0.3219,-0.323,-0.323,-0.323,-0.323,-0.323,-0.323,-0.3223,-0.3213,0.0,0.0,0.0,0.0,0.0,0.0,0.0,0.0,0.0,0.0,0.0,0.0,0.0,0.0,0.0,0.0,0.0,0.0,0.0,0.0,0.0,0.0,0.0,0.0,0.0,0.0,-0.7394,-0.7916,-0.8221,-0.8357,-0.8303,-0.7617,-0.7183,-0.6959,-0.6546,-0.6342,-0.6315,-0.6424,-0.6647,-0.6919,0.0,0.0,0.0,0.0,0.0,0.0,0.0,0.0,0.0,0.0,0.0,0.0,0.0,0.0,0.0,-0.6817,-0.6858,-0.6993,-0.7068,-0.7581,-0.8165,-0.871,-0.8537,-0.8155,-0.7939,-0.6587,-0.529,-0.5226,-0.5183,-0.519,-0.5462,-0.458,-0.4945,-0.8146,-0.7491,-0.5074,-0.0676,0.0,0.0,0.0,0.0,0.0,0.0,0.0,0.0,0.0,0.0,0.0,0.0,0.0,0.0,0.0,-0.0191,-0.0,-0.0,-0.0,-0.0954,-0.3052,-0.2288,-0.2288,-0.3052,-0.3052,-0.3065,-0.3089,-0.3126,-0.3156,-0.318,-0.3216,-0.323,-0.323,-0.323,-0.323,-0.323,-0.3223,-0.3224,-0.3234,0.0,0.0,0.0,0.0,0.0,0.0,0.0,0.0,0.0,0.0,0.0,0.0,0.0,0.0,0.0,0.0,0.0,0.0,0.0,0.0,0.0,0.0,0.0,0.0,0.0,-0.7678,-0.7909,-0.8235,-0.8533,-0.8608,-0.8459,-0.7984,-0.7536,-0.7109,-0.6803,-0.6586,-0.6458,-0.6471,-0.6647,-0.6905,-0.662,0.0,0.0,0.0,0.0,0.0,0.0,0.0,0.0,0.0,0.0,0.0,0.0,0.0,-0.6939,-0.6919,-0.7014,-0.719,-0.7475,-0.8484,-0.9464,-0.936,-0.7901,-0.6802,-0.7623,-0.6358,-0.5218,-0.5381,-0.5331,-0.5085,-0.4205,-0.4374,-0.4836,-0.5403,-0.5271,-0.3899,0.0,0.0,0.0,0.0,0.0,0.0,0.0,0.0,0.0,0.0,0.0,0.0,0.0,0.0,0.0,0.0,0.0,-0.0,-0.0,-0.0,-0.0954,-0.3052,-0.3052,-0.3052,-0.3052,-0.3052,-0.3054,-0.3059,-0.3118,-0.3144,-0.315,-0.3206,-0.323,-0.323,-0.323,-0.323,-0.3227,-0.3201,-0.3208,-0.3231,0.0,0.0,0.0,0.0,0.0,0.0,0.0,0.0,0.0,0.0,0.0,0.0,0.0,0.0,0.0,0.0,0.0,0.0,0.0,0.0,0.0,0.0,0.0,-0.7122,-0.7448,-0.778,-0.8099,-0.8404,-0.8513,-0.854,-0.8465,-0.7733,-0.7258,-0.6993,-0.66,-0.6444,-0.6471,-0.6471,-0.6647,-0.6919,-0.6803,-0.677,0.0,0.0,0.0,0.0,0.0,0.0,0.0,0.0,-0.6552,-0.6668,-0.6485,-0.6661,-0.6892,-0.6702,-0.6749,-0.6892,-0.7007,-0.7205,-0.7494,-0.782,-0.6246,-0.502,-0.6789,-0.5213,-0.3469,-0.349,-0.3586,-0.3492,-0.2973,-0.3215,-0.3563,-0.3792,-0.3705,0.0,0.0,0.0,0.0,0.0,0.0,0.0,0.0,0.0,0.0,0.0,0.0,0.0,0.0,0.0,0.0,0.0,0.0,-0.0,-0.0,-0.0,-0.0763,-0.2098,-0.2862,-0.3052,-0.3052,-0.3052,-0.3052,-0.3055,-0.3096,-0.3126,-0.3146,-0.3187,-0.3215,-0.323,-0.323,-0.323,-0.3228,-0.3219,-0.3221,-0.3236,0.0,0.0,0.0,0.0,0.0,0.0,0.0,0.0,0.0,0.0,0.0,0.0,0.0,0.0,0.0,0.0,0.0,0.0,0.0,0.0,0.0,0.0,0.0,-0.7095,-0.7292,-0.7787,-0.814,-0.8343,-0.8543,-0.8543,-0.8426,-0.7657,-0.7252,-0.7048,-0.66,-0.6505,-0.6675,-0.6586,-0.6695,-0.6926,-0.6878,-0.6763,0.0,0.0,0.0,0.0,0.0,0.0,0.0,0.0,-0.643,-0.6552,-0.6491,-0.6647,-0.6739,-0.6331,-0.635,-0.6412,-0.6093,-0.5807,-0.5762,-0.6322,-0.5002,-0.3927,-0.5541,-0.4008,-0.2353,-0.2406,-0.2742,-0.2736,-0.236,-0.2697,-0.3009,0.0,0.0,0.0,0.0,0.0,0.0,0.0,0.0,0.0,0.0,0.0,0.0,0.0,0.0,0.0,0.0,0.0,0.0,0.0,0.0,0.0,-0.0,-0.0,-0.0572,-0.1526,-0.267,-0.3052,-0.3052,-0.3052,-0.3052,-0.3054,-0.3084,-0.3115,-0.3145,-0.3175,-0.3205,-0.323,-0.323,-0.323,-0.3231,-0.324,-0.3245,-0.3253,0.0,0.0,0.0,0.0,0.0,0.0,0.0,0.0,0.0,0.0,0.0,0.0,0.0,0.0,0.0,0.0,0.0,0.0,0.0,0.0,0.0,0.0,0.0,-0.6837,-0.7129,-0.7726,-0.8038,-0.8045,-0.8653,-0.8742,-0.8414,-0.7951,-0.764,-0.7346,-0.6898,-0.6865,-0.7115,-0.6824,-0.679,-0.6912,-0.6763,-0.6607,-0.6471,0.0,0.0,0.0,0.0,0.0,0.0,0.0,-0.6376,-0.6335,-0.6783,-0.6824,-0.6562,-0.5849,-0.5823,-0.5741,-0.4896,-0.468,-0.4832,-0.4993,-0.4183,-0.3519,-0.3932,-0.2997,-0.2259,-0.2617,-0.3185,-0.3495,-0.2617,-0.3274,-0.3473,-0.2714,0.0,0.0,0.0,0.0,0.0,0.0,0.0,0.0,0.0,0.0,0.0,0.0,0.0,0.0,0.0,0.0,0.0,0.0,0.0,0.0,-0.0,-0.0,-0.0572,-0.1526,-0.267,-0.3052,-0.3052,-0.3052,-0.3052,-0.3054,-0.3084,-0.3115,-0.3145,-0.3176,-0.3205,-0.323,-0.323,-0.323,-0.3234,-0.3265,-0.3276,-0.3284,0.0,0.0,0.0,0.0,0.0,0.0,0.0,0.0,0.0,0.0,0.0,0.0,0.0,0.0,0.0,0.0,0.0,0.0,-0.6023,-0.5969,-0.6037,0.0,0.0,0.0,0.0,0.0,-0.7917,-0.835,-0.8528,-0.8307,-0.7815,-0.7647,-0.7365,-0.6898,-0.6871,-0.679,-0.6668,-0.6695,-0.6729,-0.6776,-0.7,-0.695,-0.6732,0.0,0.0,0.0,0.0,0.0,0.0,0.0,0.0,0.0,-0.5392,-0.5293,-0.4874,-0.4582,-0.4617,-0.4551,-0.4278,-0.3982,-0.3693,-0.3611,-0.3207,-0.2707,-0.2844,-0.3102,-0.3269,-0.3426,-0.3231,-0.2829,-0.2503,-0.2794,0.0,0.0,0.0,0.0,0.0,0.0,0.0,0.0,0.0,0.0,0.0,0.0,0.0,0.0,0.0,0.0,0.0,0.0,0.0,0.0,0.0,0.0,-0.0,-0.0,-0.0572,-0.1526,-0.267,-0.3052,-0.3052,-0.3052,-0.3052,-0.3052,-0.3062,-0.3095,-0.3146,-0.3197,-0.3223,-0.323,-0.323,-0.323,-0.3234,-0.3265,-0.3276,-0.3284,0.0,0.0,0.0,0.0,0.0,0.0,0.0,0.0,0.0,0.0,-0.6837,-0.6742,0.0,0.0,0.0,0.0,0.0,0.0,-0.5935,-0.5908,-0.5976,-0.6159,-0.6363,-0.66,0.0,-0.7379,-0.7745,-0.795,-0.8313,-0.8124,-0.7604,-0.766,-0.7531,-0.7061,-0.7156,-0.7061,-0.6831,-0.6888,-0.6923,-0.6874,-0.6797,-0.6605,-0.6411,0.0,0.0,0.0,0.0,0.0,0.0,0.0,0.0,0.0,-0.4503,-0.4344,-0.4038,-0.3653,-0.3645,-0.3638,-0.3373,-0.3065,-0.2849,-0.2905,-0.269,-0.2575,-0.2962,-0.3133,-0.3328,-0.3321,-0.3306,-0.294,-0.262,-0.3053,0.0,0.0,0.0,0.0,0.0,0.0,0.0,0.0,0.0,0.0,0.0,0.0,0.0,0.0,0.0,0.0,0.0,0.0,0.0,0.0,0.0,0.0,-0.0,-0.0,-0.0572,-0.1526,-0.3052,-0.3624,-0.3434,-0.3243,-0.3052,-0.3054,-0.3078,-0.311,-0.3148,-0.3206,-0.323,-0.323,-0.323,-0.323,-0.3235,-0.3279,-0.3294,-0.3302,0.0,0.0,0.0,0.0,0.0,0.0,0.0,0.0,0.0,-0.6702,-0.6681,-0.662,0.0,0.0,0.0,-0.6338,-0.6118,-0.5969,-0.5833,-0.5942,-0.6023,-0.6051,-0.6428,-0.6702,-0.7109,-0.7527,-0.752,-0.7102,-0.7953,-0.8057,-0.7489,-0.7915,-0.7887,-0.7556,-0.7463,-0.7362,-0.7272,-0.7052,-0.693,-0.6798,-0.6071,-0.5834,-0.5725,-0.5033,0.0,0.0,0.0,0.0,0.0,0.0,0.0,0.0,-0.3939,-0.3834,-0.3572,-0.3038,-0.2938,-0.2892,-0.242,-0.2223,-0.2285,-0.2587,-0.2534,-0.2603,-0.3591,-0.3173,-0.2701,-0.2728,-0.3396,-0.3571,-0.295,-0.3457,0.0,0.0,0.0,0.0,0.0,0.0,0.0,0.0,0.0,0.0,0.0,0.0,0.0,0.0,0.0,0.0,0.0,0.0,0.0,0.0,0.0,0.0,-0.0191,-0.0191,-0.0572,0.0,-0.3624,-0.4198,-0.3817,-0.3434,-0.3243,-0.3246,-0.3311,-0.3339,-0.3344,-0.3206,-0.323,-0.323,-0.323,-0.323,-0.3238,-0.3299,-0.3321,-0.2913,0.0,0.0,0.0,0.0,0.0,0.0,0.0,0.0,-0.6695,-0.6539,-0.6519,-0.6464,-0.6322,-0.6281,0.0,-0.6338,-0.6118,-0.6017,-0.5983,-0.6047,-0.6184,-0.6423,-0.6933,-0.7041,-0.6973,-0.7267,-0.7204,-0.6797,-0.7498,-0.7573,-0.7066,-0.757,-0.7656,-0.7148,-0.6789,-0.6412,-0.5982,-0.532,-0.4963,-0.4947,-0.504,-0.5012,-0.492,-0.5029,-0.4985,0.0,0.0,0.0,0.0,0.0,0.0,0.0,-0.3124,-0.275,-0.2115,-0.2112,-0.2112,-0.2059,-0.2004,-0.2171,-0.2327,-0.2423,-0.2536,-0.2635,-0.284,-0.2856,-0.2862,-0.3542,-0.3268,-0.2978,0.0,0.0,0.0,0.0,0.0,0.0,0.0,0.0,0.0,0.0,0.0,0.0,0.0,0.0,0.0,0.0,0.0,0.0,0.0,0.0,0.0,0.0,0.0,-0.2288,-0.1144,-0.1144,-0.1716,0.0,-0.3815,-0.4007,-0.3817,-0.4196,-0.4194,-0.42,-0.4282,-0.432,-0.4326,-0.4008,-0.3836,-0.3836,-0.3433,-0.323,-0.3238,-0.3299,-0.2698,-0.1872,0.0,0.0,0.0,0.0,0.0,0.0,0.0,0.0,-0.6647,-0.6491,-0.6471,-0.6417,-0.6274,-0.6193,0.0,0.0,-0.6043,-0.6068,-0.6068,-0.6134,-0.6303,-0.661,-0.7147,-0.733,-0.6932,-0.7182,-0.707,-0.6593,-0.7002,-0.7089,-0.6993,-0.688,-0.6812,-0.6789,-0.5985,-0.5518,-0.517,-0.483,-0.468,-0.4604,-0.438,-0.4304,-0.4222,-0.3993,-0.3785,-0.3565,-0.3085,0.0,0.0,0.0,0.0,0.0,0.0,0.0,-0.1764,-0.2006,-0.198,-0.196,-0.2248,-0.2386,-0.2474,-0.2488,-0.2611,-0.2692,-0.2692,-0.2703,-0.2884,-0.3221,-0.3109,0.0,0.0,0.0,0.0,0.0,0.0,0.0,0.0,0.0,0.0,0.0,0.0,0.0,0.0,0.0,0.0,0.0,0.0,0.0,0.0,0.0,0.0,0.0,-0.3052,-0.2862,-0.2288,-0.2288,-0.2479,-0.3052,-0.4196,-0.4768,-0.4956,-0.4766,-0.4575,-0.4581,-0.4671,-0.4712,-0.4718,-0.4408,-0.424,-0.4038,-0.3635,-0.3028,-0.2427,-0.2474,-0.1867,-0.0832,0.0,0.0,0.0,0.0,0.0,0.0,0.0,0.0,0.0,-0.6451,-0.6437,-0.6383,-0.6234,-0.6105,-0.5969,0.0,0.0,0.0,-0.6136,-0.63,-0.6578,-0.6812,-0.7389,-0.7401,-0.6984,-0.7204,-0.7054,-0.6631,-0.6528,-0.6691,-0.6943,-0.6226,-0.601,-0.631,-0.519,-0.4671,-0.4499,-0.4496,-0.4513,-0.4365,-0.3684,-0.3471,-0.3526,-0.2706,-0.236,-0.2324,-0.2373,-0.2395,-0.2339,-0.2243,0.0,0.0,0.0,0.0,-0.1889,-0.2187,-0.2271,-0.2312,-0.2436,-0.2491,-0.2619,-0.2619,-0.2692,-0.2692,-0.2692,-0.2712,-0.2732,-0.2736,0.0,0.0,0.0,0.0,0.0,0.0,0.0,0.0,0.0,0.0,0.0,0.0,0.0,0.0,0.0,0.0,0.0,0.0,0.0,0.0,0.0,0.0,-0.2862,-0.3052,-0.3052,-0.3052,-0.3052,-0.3052,-0.3052,-0.3052,-0.4385,-0.5337,-0.6098,-0.5156,-0.4965,-0.477,-0.4857,-0.49,-0.4915,-0.5,-0.4638,-0.424,-0.3836,-0.2826,-0.1618,-0.144,-0.0622,0.0416,0.0,0.0,0.0,0.0,0.0,0.0,0.0,0.0,0.0,0.0,-0.6288,-0.6234,-0.6078,-0.6044,-0.5969,-0.5813,-0.595,-0.615,-0.6279,0.0,0.0,-0.7316,-0.7357,-0.7362,-0.7235,-0.7171,-0.7075,-0.7031,-0.6576,-0.6352,-0.644,-0.6133,-0.5791,-0.5292,-0.4263,-0.3814,-0.3756,-0.2935,-0.258,-0.2562,-0.2411,-0.2414,-0.242,-0.227,-0.2194,-0.2188,-0.2194,-0.2231,-0.2354,-0.2336,-0.2355,0.0,0.0,0.0,-0.2196,-0.2414,-0.237,-0.2262,-0.222,-0.2256,-0.238,-0.263,-0.2692,-0.2692,-0.2692,-0.2695,-0.2706,0.0,0.0,0.0,0.0,0.0,0.0,0.0,0.0,0.0,0.0,0.0,0.0,0.0,0.0,0.0,0.0,0.0,0.0,0.0,0.0,0.0,0.0,-0.2098,-0.2098,-0.3052,-0.3052,-0.3052,-0.3052,-0.3052,-0.3052,-0.3052,-0.4194,-0.5147,-0.6101,-0.5961,-0.5955,-0.5911,-0.5979,-0.6037,-0.6087,-0.5559,-0.5409,-0.5248,-0.3431,-0.2422,-0.2223,-0.0817,0.0412,0.1454,0.0,0.0,0.0,0.0,0.0,0.0,0.0,0.0,0.0,0.0,0.0,-0.6166,-0.5928,-0.5901,-0.5806,-0.5707,-0.5985,-0.6242,-0.6477,-0.6721,-0.6984,-0.7062,-0.7311,-0.7319,-0.7222,-0.7145,-0.7009,-0.6842,-0.6448,-0.5934,-0.5319,-0.5245,-0.4936,-0.4498,-0.3378,-0.2857,-0.2847,-0.2396,-0.2139,-0.2188,-0.212,-0.2414,-0.2829,-0.2315,-0.2455,-0.2832,-0.2388,-0.2191,-0.2225,-0.239,-0.2398,-0.2382,-0.2441,0.0,0.0,0.0,-0.2448,-0.2502,-0.2582,-0.2503,-0.2562,-0.2637,-0.2692,-0.2692,-0.2692,-0.2692,-0.2697,0.0,0.0,0.0,0.0,0.0,0.0,0.0,0.0,0.0,0.0,0.0,0.0,0.0,0.0,0.0,0.0,0.0,0.0,0.0,0.0,0.0,-0.2268,-0.2281,-0.267,-0.3052,-0.3434,-0.3434,-0.3434,-0.3434,-0.3624,-0.4004,-0.4575,-0.5354,-0.615,-0.6177,-0.6175,-0.6153,-0.6248,-0.6305,-0.6335,-0.6196,-0.6034,-0.5858,-0.3635,-0.1817,-0.0404,0.0612,0.1642,0.2683,0.0,0.0,0.0,0.0,0.0,0.0,0.0,0.0,0.0,0.0,0.0,-0.6098,-0.5833,0.0,0.0,0.0,-0.5874,-0.6218,-0.6526,-0.6602,-0.6708,-0.6829,-0.7107,-0.7183,-0.7087,-0.7157,-0.6957,-0.6419,-0.6216,-0.5451,-0.4344,-0.4265,-0.4053,-0.3718,-0.273,-0.2307,-0.2368,-0.2169,-0.212,-0.2174,-0.2296,-0.2769,-0.333,-0.2826,-0.2982,-0.3455,-0.2678,-0.2392,-0.2398,-0.2362,-0.2335,-0.2322,-0.2382,-0.2398,0.0,0.0,0.0,-0.2482,-0.2667,-0.261,-0.2415,-0.2545,-0.2619,-0.2637,-0.2682,-0.2692,-0.2692,0.0,0.0,0.0,0.0,0.0,0.0,0.0,0.0,0.0,0.0,0.0,0.0,0.0,0.0,0.0,0.0,0.0,0.0,0.0,0.0,0.0,-0.1878,-0.2655,-0.3052,-0.3052,-0.3434,-0.3624,-0.3817,-0.4006,-0.4202,-0.4785,-0.5167,-0.5579,-0.6213,-0.6229,-0.6237,-0.624,-0.6316,-0.6357,-0.6177,-0.5819,-0.5642,-0.5455,-0.3433,-0.1211,0.1011,0.1831,0.2655,0.3283,0.0,0.0,0.0,0.0,0.0,0.0,0.0,0.0,0.0,0.0,0.0,-0.5983,-0.582,-0.58,-0.5693,-0.5446,-0.5537,-0.586,-0.6366,-0.6218,-0.6386,-0.6976,-0.6795,0.0,-0.7001,-0.7155,-0.678,-0.5957,-0.5584,-0.4891,-0.3798,-0.3564,-0.324,-0.2858,-0.2591,-0.2507,-0.2485,-0.2251,-0.2185,-0.2264,-0.2936,-0.325,-0.3346,-0.3843,-0.3975,-0.3931,-0.3106,-0.2793,-0.2771,-0.2394,-0.2204,-0.2188,-0.2249,-0.2341,-0.2349,0.0,0.0,0.0,-0.2357,-0.2056,-0.1844,-0.2285,-0.2416,-0.2482,-0.2653,0.0,0.0,0.0,0.0,0.0,0.0,0.0,0.0,0.0,0.0,0.0,0.0,0.0,0.0,0.0,0.0,0.0,0.0,0.0,0.0,0.0,0.0,0.0,-0.3005,-0.3036,-0.3052,-0.3052,-0.3052,-0.3434,-0.3817,-0.4387,-0.4789,-0.5416,-0.522,-0.5442,-0.6284,-0.6341,-0.6368,-0.6365,-0.6313,-0.6324,-0.6177,-0.4183,-0.3404,-0.323,-0.1816,-0.0605,0.0404,0.2423,0.3251,0.328,0.0,0.0,0.0,0.0,0.0,0.0,0.0,0.0,0.0,0.0,0.0,0.0,0.0,-0.5718,-0.5658,-0.5545,-0.567,-0.5926,-0.6229,-0.6152,-0.6331,-0.6781,-0.6332,-0.6145,-0.6383,-0.5822,-0.5412,-0.5075,-0.4751,-0.4271,-0.3555,-0.3483,-0.3139,-0.2659,-0.2515,-0.2452,-0.2431,-0.2114,-0.2014,-0.2164,-0.2895,-0.3393,-0.3688,-0.383,-0.4114,-0.4373,-0.3434,-0.3019,-0.2853,-0.2717,-0.2455,-0.2196,-0.2259,-0.2207,-0.2225,-0.2246,-0.2182,-0.2098,-0.2106,-0.204,-0.2063,-0.2131,-0.2315,-0.244,-0.2506,-0.2609,0.0,0.0,0.0,0.0,0.0,0.0,0.0,0.0,0.0,0.0,0.0,0.0,0.0,0.0,0.0,0.0,0.0,0.0,0.0,0.0,0.0,0.0,-0.2977,-0.3025,-0.3243,-0.3624,-0.3624,-0.3636,-0.4045,-0.5007,-0.5418,-0.4887,-0.5471,-0.5301,-0.4159,-0.4176,-0.4996,-0.6433,-0.6412,-0.6417,-0.6436,-0.5628,-0.3624,-0.101,-0.0606,0.0606,0.2221,0.2828,0.3238,0.3251,0.0,0.0,0.0,0.0,0.0,0.0,0.0,0.0,-0.6084,-0.624,0.0,0.0,0.0,0.0,-0.567,-0.5672,-0.5801,-0.5961,-0.6195,-0.6069,-0.6079,-0.6248,-0.5816,-0.5557,-0.5434,-0.4844,-0.4448,-0.4097,-0.3911,-0.3542,-0.3017,-0.3017,-0.283,-0.2534,-0.2371,-0.2368,-0.2463,-0.218,-0.2063,-0.2175,-0.3046,-0.3503,-0.3726,-0.3984,-0.4334,-0.4453,-0.3689,-0.3313,-0.3144,-0.3139,-0.3007,-0.2855,-0.2469,-0.2327,-0.2159,-0.2166,-0.213,-0.2044,-0.1939,-0.1889,-0.1929,-0.1947,-0.2117,-0.2264,-0.2406,-0.2523,0.0,0.0,0.0,0.0,0.0,0.0,0.0,0.0,0.0,0.0,0.0,0.0,0.0,0.0,0.0,0.0,0.0,0.0,0.0,0.0,0.0,0.0,-0.3518,-0.3584,-0.382,-0.4025,-0.4025,-0.4045,-0.4475,-0.4862,-0.469,-0.4145,-0.5528,-0.5554,-0.4201,-0.3401,-0.4419,-0.6472,-0.6472,-0.5659,-0.4242,-0.4242,-0.2625,-0.0,-0.0,0.101,0.2628,0.3032,0.3232,0.3234,0.0,0.0,0.0,0.0,0.0,0.0,0.0,0.0,-0.6084,-0.624,0.0,0.0,0.0,0.0,0.0,-0.5871,-0.5871,-0.5969,-0.6132,-0.5959,-0.5709,-0.5404,-0.5365,-0.503,-0.4295,-0.4361,-0.4028,-0.3155,-0.3128,-0.2784,-0.2173,-0.2167,-0.23,-0.2403,-0.2172,-0.2262,-0.258,-0.2455,-0.2341,-0.2316,-0.354,-0.3768,-0.3456,-0.458,-0.4709,-0.4205,-0.3923,-0.37,-0.367,-0.3559,-0.3871,-0.4013,-0.3118,-0.2485,-0.2223,-0.2155,-0.1998,-0.1828,0.0,0.0,0.0,-0.1718,-0.1812,-0.1945,-0.2357,0.0,0.0,0.0,0.0,0.0,0.0,0.0,0.0,0.0,0.0,0.0,0.0,0.0,0.0,0.0,0.0,0.0,0.0,0.0,0.0,0.0,0.0,-0.3886,-0.4444,-0.4528,-0.4596,-0.4643,-0.426,-0.4475,-0.5107,-0.373,-0.2959,-0.2987,-0.4985,-0.6014,-0.6267,-0.4042,-0.4245,-0.6272,-0.6272,-0.3841,-0.0,-0.0,-0.0,-0.0,-0.0,0.0606,0.1818,0.283,0.3232,0.3234,0.0,0.0,0.0,0.0,0.0,-0.6338,-0.6338,-0.6132,-0.6084,0.0,0.0,0.0,-0.6108,-0.6127,-0.6109,-0.609,-0.5601,-0.5339,-0.5382,-0.4874,-0.4546,-0.461,-0.4125,-0.3756,-0.3591,-0.3113,-0.2702,-0.2492,-0.2391,-0.2253,-0.2177,-0.209,-0.2136,-0.2217,-0.2223,-0.2226,-0.2264,-0.2057,-0.2076,-0.2292,-0.3449,-0.3953,-0.4047,-0.4781,-0.5211,-0.5118,0.0,-0.4496,-0.4074,0.0,-0.4132,-0.3057,-0.251,-0.2283,-0.2161,-0.1929,-0.181,-0.1675,-0.1483,0.0,0.0,0.0,0.0,0.0,0.0,0.0,0.0,0.0,0.0,0.0,0.0,0.0,0.0,0.0,0.0,0.0,0.0,0.0,0.0,0.0,0.0,0.0,0.0,0.0,0.0,0.0,0.0,-0.4224,-0.4442,-0.4717,-0.4789,-0.4258,-0.5036,-0.4881,-0.377,-0.1785,-0.0797,-0.0805,-0.1408,-0.1814,-0.1818,-0.1212,-0.1212,-0.1818,-0.1818,-0.1212,-0.0,-0.0,-0.0,-0.0,-0.0,0.0606,0.1818,0.283,0.3232,0.3231,0.0,0.0,-0.6749,-0.6593,-0.6498,-0.6444,-0.6444,-0.6393,-0.643,0.0,0.0,0.0,-0.6331,-0.6257,-0.6278,-0.6412,-0.5432,-0.4898,-0.5223,-0.4505,-0.4012,-0.3885,-0.347,-0.3158,-0.2819,-0.2384,-0.218,-0.2207,-0.2049,-0.2085,-0.218,-0.1992,-0.2005,-0.2128,-0.2079,-0.2065,-0.213,-0.1877,-0.194,-0.2296,-0.3535,-0.4004,-0.395,-0.4778,-0.5133,0.0,0.0,0.0,-0.4514,-0.5604,-0.4774,-0.332,-0.3129,-0.2681,-0.2125,-0.1858,-0.1746,-0.1698,-0.1488,-0.1405,-0.14,-0.1444,0.0,0.0,-0.1918,-0.2061,0.0,0.0,0.0,0.0,0.0,0.0,0.0,0.0,0.0,0.0,0.0,0.0,0.0,0.0,0.0,0.0,0.0,0.0,0.0,0.0,-0.4529,-0.477,-0.5027,-0.5296,-0.4992,-0.3697,-0.4481,-0.3342,-0.06,-0.02,-0.0,-0.0,-0.0,-0.0,-0.0,-0.0,-0.0,-0.0,-0.0,-0.0,-0.0,-0.0,-0.0,-0.0,-0.0,0.0606,0.1818,0.283,0.3232,0.323,0.0,0.0,-0.6892,-0.677,-0.6736,-0.6729,-0.6749,-0.6791,-0.6905,0.0,-0.6942,-0.6761,-0.6714,-0.6449,-0.6324,-0.6441,-0.5111,-0.4551,-0.5087,-0.4461,-0.3723,-0.3135,-0.3068,-0.2806,-0.2211,-0.2155,-0.2158,-0.222,-0.2088,-0.1997,-0.2124,-0.1932,-0.1905,-0.1956,-0.1847,-0.1856,-0.1946,-0.1856,-0.1995,-0.2342,-0.361,-0.3846,0.0,0.0,-0.5006,-0.4983,-0.5163,-0.5087,-0.4951,-0.5819,-0.5341,-0.4246,-0.4129,-0.3305,-0.2307,-0.1874,-0.1855,-0.1857,-0.1581,-0.1405,-0.1403,-0.1457,-0.1455,0.0,-0.1982,-0.2046,0.0,0.0,0.0,0.0,0.0,0.0,0.0,0.0,0.0,0.0,0.0,0.0,0.0,0.0,0.0,0.0,0.0,0.0,0.0,-0.5022,-0.5077,-0.5335,-0.5623,-0.5311,-0.4232,-0.2544,-0.2158,-0.0198,0.3418,0.2219,0.1009,-0.0,0.1009,0.1414,0.1414,0.1009,0.0808,0.0808,0.0808,0.0808,0.0808,0.0808,0.101,0.1414,0.0404,0.0808,0.2221,0.303,0.3232,0.323,-0.6844,-0.6892,-0.6953,-0.7041,-0.6959,-0.7011,-0.7309,-0.7275,-0.7318,-0.7737,-0.7735,-0.7545,-0.7041,-0.6688,-0.6061,-0.5143,-0.4222,-0.3659,-0.3623,-0.2891,-0.2407,-0.2335,-0.2338,-0.2274,-0.2147,-0.2133,-0.2158,-0.222,-0.1984,-0.1956,-0.2124,-0.1891,-0.1845,-0.1896,-0.1828,-0.1809,-0.1837,-0.1907,-0.2357,-0.2992,-0.32,-0.3768,-0.4586,-0.5117,-0.5681,-0.621,-0.6502,-0.6029,-0.5259,-0.4785,-0.4798,-0.4704,-0.3674,-0.3445,-0.3213,-0.2055,-0.2089,-0.2255,-0.1556,-0.1405,-0.1393,-0.1404,-0.144,0.0,-0.1591,-0.166,0.0,0.0,0.0,0.0,0.0,0.0,0.0,0.0,0.0,0.0,0.0,0.0,0.0,0.0,0.0,0.0,0.0,0.0,-0.4843,-0.5022,-0.5477,-0.5175,-0.3526,-0.0566,0.134,0.1742,0.351,0.4923,0.5774,0.8858,0.6869,-0.0,0.7071,1.0327,1.0327,0.6654,0.5235,0.5235,0.5235,0.5235,0.5235,0.5235,0.7264,0.9718,0.2626,0.2221,0.5246,0.3838,0.3232,0.323,-0.6817,-0.6932,-0.7061,-0.7224,-0.7326,-0.7464,-0.7891,-0.796,-0.8004,-0.8253,-0.802,-0.7436,-0.6245,-0.571,-0.5206,-0.4688,-0.3576,-0.2957,-0.316,-0.2432,-0.2079,-0.2079,-0.2079,-0.2096,-0.2127,-0.2127,-0.2158,-0.222,-0.2096,-0.2003,-0.2124,-0.191,-0.2107,-0.2507,-0.205,-0.205,-0.2409,-0.2084,-0.2168,-0.2627,-0.3326,0.0,-0.5376,-0.5667,-0.6205,-0.7041,-0.6747,-0.6309,-0.5919,-0.4892,-0.4742,0.0,-0.4055,-0.3711,-0.3331,-0.2352,-0.2353,-0.241,-0.1538,-0.1356,-0.1416,-0.1431,-0.1436,0.0,0.0,0.0,-0.1699,0.0,0.0,0.0,0.0,0.0,0.0,0.0,0.0,0.0,0.0,0.0,0.0,0.0,0.0,0.0,0.0,0.0,-0.538,-0.5383,-0.2909,-0.1102,-0.0,0.2998,0.5517,0.7536,0.8741,0.9412,0.9542,1.1823,1.0053,0.4427,0.7867,1.0717,1.2759,1.0703,0.9681,0.9681,0.9681,0.9681,0.9681,0.9681,1.0904,1.2542,0.8076,0.7282,0.8525,0.7273,0.607,0.5072,-0.6778,-0.6997,-0.7285,-0.7503,-0.7541,-0.7689,-0.8124,-0.8015,-0.7971,-0.8217,-0.7875,-0.7007,-0.5494,-0.5058,-0.4755,-0.4693,-0.3473,-0.2804,-0.3082,-0.2565,-0.2206,-0.2112,-0.2022,-0.2033,-0.2164,-0.2141,-0.2121,-0.2186,-0.211,-0.2016,-0.2091,-0.1916,-0.2274,-0.2908,-0.2223,-0.2315,-0.2856,-0.2217,-0.2138,-0.2484,0.0,-0.4569,-0.5406,-0.5682,-0.6287,-0.6951,-0.6487,-0.6307,-0.6169,-0.5353,-0.4881,-0.4649,-0.4445,-0.4014,-0.3416,-0.2567,-0.2568,-0.257,-0.1612,-0.1408,-0.1463,-0.147,-0.1453,-0.1485,0.0,0.0,0.0,0.0,0.0,0.0,0.0,0.0,0.0,0.0,0.0,0.0,0.0,0.0,0.0,0.0,0.0,0.0,0.0,0.0,-0.4934,-0.4301,-0.0,0.3412,0.4797,0.634,0.8704,1.2165,1.2192,1.2299,1.2508,1.2748,1.1803,0.9456,0.8252,0.9472,1.2939,1.2933,1.2933,1.2933,1.2933,1.2933,1.2933,1.2933,1.2922,1.2912,1.314,1.2393,1.1028,1.0946,0.9338,0.7547,-0.6998,-0.7253,-0.7505,-0.7482,-0.7091,-0.6955,-0.7369,-0.6617,-0.6029,-0.6338,-0.6848,-0.69,-0.6117,-0.6288,-0.6095,-0.5043,-0.4666,-0.4085,-0.3213,-0.2992,-0.282,-0.2605,-0.2202,-0.215,-0.2531,-0.212,-0.1932,-0.1992,-0.1883,-0.1853,-0.1902,-0.1837,-0.1922,-0.204,-0.2289,-0.2311,-0.2197,-0.2398,-0.3002,-0.3862,-0.3729,-0.3629,0.0,-0.4619,-0.5222,-0.5705,-0.5843,-0.593,-0.5891,0.0,-0.4777,-0.4542,-0.3602,-0.3941,-0.4213,-0.2329,-0.2521,-0.3017,-0.1782,-0.1468,-0.1538,-0.146,-0.1516,-0.157,-0.1494,0.0,-0.1504,-0.151,0.0,0.0,0.0,0.0,0.0,0.0,0.0,0.0,0.0,0.0,0.0,0.0,0.0,0.0,0.0,0.0,0.0,0.089,0.1683,0.4553,1.0519,1.1026,1.1512,1.2216,1.2314,1.2422,1.2558,1.2678,1.2797,1.2505,1.2305,1.2511,1.2917,1.2901,1.2895,1.2895,1.2895,1.2895,1.2895,1.2895,1.2895,1.2895,1.3948,1.32,1.1435,1.1831,1.101,0.9584,-0.6841,-0.6854,-0.681,-0.6878,-0.6373,-0.6195,-0.6593,-0.6327,-0.5836,-0.5307,-0.5565,-0.5349,-0.4495,-0.4468,-0.4464,-0.4196,-0.4096,-0.3776,0.0,0.0,-0.2882,-0.2408,-0.2098,-0.2071,-0.2283,-0.2057,-0.1946,-0.1973,-0.1888,-0.1858,-0.188,-0.1823,-0.2102,-0.2668,-0.2523,-0.2882,-0.3554,-0.2996,-0.3165,0.0,0.0,0.0,0.0,-0.3326,-0.3298,-0.2604,-0.2752,-0.3316,-0.3991,0.0,-0.3931,0.0,-0.4419,-0.4085,-0.3506,-0.2836,-0.2748,-0.2645,-0.1719,-0.1961,-0.2285,-0.1595,-0.1973,-0.2266,-0.1567,-0.1431,-0.1434,-0.1457,0.0,0.0,0.0,0.0,0.0,0.0,-0.1158,0.0,0.0,0.0,0.0,0.0,0.0,0.0,0.0,0.0,0.0,0.0,0.0,0.8327,1.1523,1.1846,1.1955,1.2074,1.2188,1.2341,1.2536,1.2591,1.2716,1.2901,1.2901,1.2901,1.2901,1.289,1.289,1.289,1.289,1.289,1.289,1.289,1.289,1.3095,1.4196,1.4094,1.3565,1.3492,1.2936,1.2194,-0.6277,-0.6209,-0.5906,-0.6108,-0.5593,-0.5132,-0.524,-0.5301,-0.5052,-0.4361,-0.4434,-0.4274,-0.3567,-0.3679,-0.393,-0.4243,-0.4361,-0.4214,0.0,0.0,-0.33,-0.2881,-0.2333,-0.2178,-0.2501,-0.2152,-0.194,-0.1924,-0.188,-0.1867,-0.188,-0.1823,-0.2214,-0.2892,-0.2698,-0.2925,-0.3459,-0.2885,-0.2569,-0.23,-0.1407,-0.0668,-0.0458,-0.1889,-0.1929,-0.1326,-0.1326,-0.2168,-0.3353,-0.329,-0.333,0.0,-0.3993,-0.3115,-0.1846,-0.1912,-0.1758,-0.1422,-0.1126,-0.1584,-0.2091,-0.1622,-0.1874,-0.205,-0.1189,-0.0798,-0.0624,-0.0643,-0.054,0.0,0.0,0.0,-0.0543,-0.0662,0.0,0.0207,0.0,0.0,0.0,0.0,0.0,0.0,0.0,0.0,0.0,0.0,0.0,0.0,1.1612,1.1759,1.1873,1.1982,1.2107,1.2292,1.2531,1.2536,1.2656,1.289,1.289,1.289,1.289,1.289,1.289,1.289,1.289,1.289,1.289,1.289,1.289,1.3101,1.4024,1.456,1.488,1.5227,1.491,1.4618,-0.5063,-0.5184,-0.53,-0.509,-0.4532,-0.3898,-0.3039,-0.2877,-0.2945,-0.3125,0.0,0.0,0.0,0.0,0.0,-0.6123,0.0,-0.6413,-0.5389,0.0,-0.4443,-0.4847,-0.3103,-0.2613,-0.3671,-0.2518,-0.1858,-0.1804,-0.1801,-0.1828,-0.188,-0.1823,-0.1867,-0.2079,-0.254,-0.1936,-0.0548,-0.1395,-0.1111,-0.0138,-0.0277,0.0299,0.1147,0.0,-0.1691,-0.336,-0.336,0.0,0.0,-0.4826,-0.3602,0.0,0.0,0.0,0.0,0.0,0.1376,0.071,0.0,0.0,-0.0226,-0.1133,-0.0928,-0.0283,-0.0088,0.0717,0.1475,0.1476,0.1616,0.165,0.1621,0.1615,0.152,0.1428,0.1431,0.0,0.0,0.0,0.0,0.0,0.0,0.0,0.0,0.0,0.0,0.0,0.0,0.0,1.1552,1.1754,1.1873,1.1982,1.2107,1.2292,1.2531,1.2536,1.2656,1.289,1.289,1.289,1.289,1.289,1.289,1.289,1.289,1.289,1.289,1.289,1.289,1.2901,1.3621,1.4357,1.5109,1.6273,1.6534,1.652,-0.3432,-0.3469,-0.3641,-0.409,-0.3572,-0.3013,-0.2908,-0.2875,0.0,0.0,0.0,0.0,0.0,-0.52,-0.5365,0.0,0.0,-0.5906,-0.5432,-0.4815,0.0,0.0,0.0,-0.2643,0.0,-0.2569,-0.1992,-0.1853,-0.1853,-0.1861,-0.188,-0.1823,-0.188,-0.2119,-0.2559,-0.2336,-0.1684,-0.1876,-0.1533,-0.0683,0.0,0.0292,0.1866,0.0,0.0,0.1848,0.1008,0.0336,0.0,0.0164,-0.0,-0.0151,-0.0,0.0883,0.1934,0.2136,0.2388,0.0,0.0,0.0,0.1071,0.1213,0.0,0.0,0.0,0.1357,0.157,0.157,0.1716,0.1753,0.1719,0.1713,0.1705,0.1589,0.2052,0.2405,0.0,0.0,0.0,0.0,0.0,0.0,0.0,0.0,0.0,0.0,0.0,0.0,0.0,1.171,1.1835,1.1873,1.2069,1.2292,1.2531,1.2536,1.2656,1.289,1.289,1.289,1.289,1.289,1.289,1.289,1.289,1.289,1.289,1.289,1.309,1.3507,1.4327,1.4849,1.5526,1.6073,1.6333,1.6714,-0.2561,-0.257,-0.273,-0.3291,-0.3033,-0.2706,-0.2823,0.0,0.0,0.0,-0.4279,0.0,-0.5257,0.0,-0.5384,0.0,-0.5801,-0.5859,-0.5565,-0.5111,0.0,-0.4922,-0.3912,0.0,0.0,-0.3219,-0.2584,-0.2408,-0.2116,-0.1978,-0.1976,-0.1875,-0.1899,-0.211,-0.2422,-0.2028,-0.1228,-0.2191,-0.1868,-0.0728,0.0,0.0454,0.0,0.0,0.1321,0.3236,0.0,0.2184,0.168,0.168,0.1632,0.1584,0.1656,0.2671,0.3802,0.3865,0.423,0.4461,0.3949,0.3346,0.0,0.2839,0.2447,0.0,0.2427,0.0,0.3007,0.3007,0.3002,0.3056,0.3347,0.3076,0.283,0.2971,0.3265,0.351,0.0,0.3976,0.0,0.0,0.0,0.0,0.0,0.0,0.0,0.0,0.0,0.0,0.0,0.0,1.1775,1.1819,1.2009,1.2243,1.2531,1.2536,1.2656,1.289,1.289,1.289,1.289,1.289,1.289,1.289,1.289,1.289,1.289,1.289,1.329,1.3713,1.4524,1.5258,1.5738,1.6132,1.6554,1.6632,-0.252,-0.2523,-0.2564,-0.2676,-0.2738,0.0,0.0,0.0,-0.3442,0.0,-0.4571,-0.483,-0.5428,-0.5925,-0.6117,-0.582,-0.6317,0.0,-0.5859,-0.5827,0.0,0.0,-0.5223,-0.514,-0.5804,0.0,0.0,-0.3396,-0.2584,-0.2223,-0.2223,-0.197,-0.1918,-0.1989,-0.2172,-0.1018,0.0881,-0.2057,-0.1971,-0.0,-0.0501,0.0827,0.2923,0.1333,0.0,0.1203,0.1797,0.1176,0.0336,0.0336,0.1512,0.3024,0.3526,0.4703,0.6221,0.6727,0.6727,0.6467,0.5423,0.517,0.49,0.3737,0.0,0.0,0.0,0.0,0.5549,0.5549,0.5284,0.5328,0.6239,0.5561,0.4969,0.5284,0.4896,0.4524,0.4447,0.4504,0.478,0.0,0.0,0.0,0.0,0.0,0.0,0.0,0.0,0.0,0.0,0.0,0.0,1.1813,1.1928,1.2156,1.2515,1.2531,1.2651,1.2879,1.2884,1.289,1.289,1.289,1.289,1.289,1.289,1.289,1.289,1.289,1.329,1.3901,1.4434,1.5176,1.5757,1.6647,1.6775,1.6299,-0.2646,-0.2719,-0.2777,0.0,-0.2698,-0.2722,0.0,0.0,0.0,0.0,-0.5441,-0.582,-0.6677,-0.6644,-0.6562,-0.6449,-0.6709,0.0,0.0,0.0,0.0,-0.7149,-0.6108,-0.5734,-0.6502,-0.4912,-0.3921,-0.3552,-0.2628,-0.2177,-0.2218,-0.2035,-0.2068,-0.218,-0.2294,-0.0967,0.123,-0.0361,0.0139,0.1798,0.0333,0.0969,0.0,0.0,0.1599,0.2857,0.1797,0.252,0.4036,0.4036,0.4707,0.5714,0.6218,0.6721,0.7227,0.7562,0.7729,0.7698,0.7401,0.7363,0.7072,0.6385,0.6309,0.6237,0.0,0.0,0.0,0.0,0.0,0.0,0.0,0.552,0.519,0.4749,0.4451,0.4312,0.4422,0.443,0.0,0.5446,0.0,0.0,0.0,0.0,0.0,0.0,0.0,0.0,0.0,0.0,0.0,1.1797,1.1928,1.2074,1.2265,1.2444,1.2607,1.2754,1.2846,1.289,1.289,1.289,1.289,1.289,1.289,1.289,1.289,1.329,1.3884,1.4295,1.5038,1.5851,1.648,1.6041,1.5982,1.5877,-0.2651,-0.2752,-0.2839,-0.2856,0.0,0.0,-0.3474,0.0,0.0,-0.5284,-0.5552,0.0,-0.6857,-0.6974,-0.6998,-0.6896,-0.709,0.0,-0.6885,0.0,0.0,-0.7661,-0.7243,-0.719,-0.7553,-0.6337,0.0,-0.445,-0.3493,-0.2685,-0.2138,-0.1899,-0.1842,-0.1889,-0.1572,-0.0681,0.0524,-0.0251,0.0428,0.1882,0.0824,0.0,0.0,0.2469,0.2772,0.377,0.2807,0.3866,0.572,0.572,0.6224,0.6727,0.7227,0.7394,0.7562,0.7897,0.806,0.806,0.806,0.806,0.7991,0.7689,0.7533,0.7329,0.6843,0.6729,0.6729,0.0,0.0,0.0,0.0,0.0,0.5271,0.4553,0.432,0.4263,0.4361,0.4504,0.0,0.0,0.5992,0.0,0.0,0.0,0.0,0.0,0.0,0.0,0.0,0.0,0.0,1.1558,1.1743,1.1993,1.2324,1.2308,1.246,1.2786,1.2803,1.2835,1.289,1.289,1.289,1.289,1.289,1.289,1.289,1.349,1.4083,1.4488,1.5441,1.5799,1.5725,1.5443,1.5692,1.5969,-0.2624,-0.273,-0.2847,0.0,0.0,0.0,0.0,-0.3794,0.0,-0.5353,0.0,-0.6022,-0.6439,-0.7021,-0.7348,-0.7137,0.0,-0.746,-0.7126,-0.803,-0.8286,-0.7832,-0.8483,-0.8783,-0.8802,-0.8019,-0.6898,0.0,-0.4519,-0.3322,-0.2102,-0.1607,-0.1402,-0.1319,-0.0696,-0.0326,-0.0198,-0.0266,0.0446,0.1513,0.1305,0.249,0.4418,0.4172,0.4013,0.4152,0.4023,0.4875,0.6053,0.6053,0.6389,0.6895,0.7394,0.7562,0.7562,0.8064,0.806,0.806,0.806,0.806,0.806,0.806,0.806,0.7942,0.7476,0.737,0.737,0.737,0.6994,0.6925,0.0,0.0,0.5365,0.4655,0.4504,0.4491,0.454,0.4784,0.5093,0.5322,0.0,0.0,0.0,0.0,0.0,0.0,0.0,0.0,0.0,0.0,0.0,1.1346,1.1585,0.0,1.2411,0.0,1.2319,1.2792,1.2748,1.2786,1.289,1.289,1.289,1.289,1.289,1.289,1.289,1.349,1.4083,1.4688,1.5623,1.548,1.4886,1.4905,1.5692,1.6493,-0.2752,-0.2886,-0.2992,-0.2962,0.0,-0.3886,-0.4878,-0.5361,-0.5721,-0.6095,-0.6681,-0.7039,-0.7072,-0.7306,-0.7369,-0.7239,-0.7452,0.0,0.0,0.0,0.0,-0.9076,-0.9181,-0.913,-0.8907,-0.8057,-0.6934,0.0,0.0,-0.3126,-0.1975,-0.1327,-0.0845,-0.0598,-0.0709,-0.0269,0.0833,0.2864,0.0,0.3419,0.3498,0.369,0.4013,0.4029,0.4199,0.453,0.4537,0.5046,0.5552,0.5885,0.6556,0.7394,0.7897,0.7897,0.8064,0.806,0.806,0.806,0.806,0.806,0.806,0.806,0.806,0.804,0.7942,0.7921,0.7921,0.7921,0.7848,0.768,0.735,0.0,0.0,0.0,0.0,0.0,0.0,0.5975,0.6005,0.59,0.0,0.0,0.0,0.0,0.0,0.0,0.0,0.0,0.0,0.0,0.0,0.0,0.0,0.0,0.0,0.0,0.0,1.2303,1.2678,1.2868,1.289,1.289,1.289,1.289,1.289,1.289,1.289,1.3884,1.4682,1.5081,1.4906,1.4988,1.531,1.5424,1.5982,1.648,-0.2916,-0.2989,-0.3098,-0.3256,0.0,0.0,0.0,-0.574,0.0,-0.6268,-0.6559,-0.6837,-0.6837,-0.7231,-0.7399,-0.7399,-0.7594,-0.7929,-0.8393,-0.8333,-0.8544,-0.9169,-0.8907,0.0,-0.6588,-0.6448,-0.5166,-0.2613,0.0,-0.1466,-0.0617,-0.0133,0.0196,0.0324,0.0392,0.1346,0.293,0.0,0.0,0.4604,0.4633,0.471,0.471,0.471,0.4878,0.5046,0.5046,0.5216,0.5552,0.5885,0.6556,0.7063,0.7227,0.7562,0.7729,0.7729,0.7897,0.806,0.806,0.806,0.806,0.806,0.806,0.806,0.806,0.806,0.806,0.806,0.806,0.7872,0.7243,0.6607,0.0,0.0,0.0,0.0,0.0,0.0,0.6454,0.6447,0.7051,0.0,0.0,0.0,0.0,0.0,0.0,0.0,0.0,0.0,0.0,0.0,0.0,0.0,0.0,0.0,0.0,1.2547,1.2716,1.2825,1.289,1.289,1.289,1.289,1.289,1.309,1.349,1.4482,1.4875,1.4875,1.5472,1.5764,1.5903,1.5976,1.6551,1.6907,-0.3028,-0.3155,-0.327,-0.3605,-0.4169,0.0,-0.5005,-0.5687,-0.6125,-0.6282,-0.6421,-0.6463,-0.6467,-0.697,-0.7213,-0.7213,-0.7546,-0.7715,-0.7706,-0.7469,-0.7194,-0.7187,-0.6934,-0.5838,-0.3572,-0.4025,-0.3104,0.0,0.0,-0.0,0.0214,0.0965,0.1293,0.139,0.1938,0.0,0.0,0.0,0.4519,0.5292,0.5434,0.5384,0.5384,0.5384,0.5384,0.5384,0.5384,0.5384,0.5384,0.5885,0.6221,0.656,0.6727,0.7063,0.7394,0.7394,0.7729,0.806,0.806,0.806,0.806,0.806,0.806,0.806,0.806,0.806,0.806,0.806,0.806,0.7872,0.7243,0.6827,0.0,0.0,0.0,0.0,0.0,0.0,0.6847,0.7061,0.699,0.0,0.0,0.0,0.0,0.0,0.7964,0.0,0.9764,0.0,0.0,0.0,0.0,1.1786,1.2112,0.0,1.2352,0.0,1.2727,1.277,1.2884,1.2863,1.2863,1.289,1.289,1.329,1.3889,1.4682,1.5081,1.4875,1.6069,1.6543,1.6453,1.6515,1.6877,1.7462,-0.2988,-0.3174,0.0,0.0,0.0,0.0,0.0,-0.5391,-0.5949,-0.6674,-0.6516,-0.6523,-0.6833,-0.6562,-0.6431,-0.6431,-0.6494,-0.5893,-0.4132,-0.4179,-0.3394,-0.1773,-0.1775,-0.1461,-0.0821,-0.1312,-0.1561,0.0,0.0,-0.0646,-0.1187,0.0968,0.2097,0.2493,0.3521,0.0,0.0,0.4638,0.5083,0.5335,0.5371,0.5384,0.5384,0.5384,0.5384,0.5384,0.5384,0.5384,0.5384,0.5384,0.5717,0.6221,0.656,0.7063,0.7394,0.7394,0.7729,0.806,0.806,0.806,0.806,0.806,0.806,0.806,0.806,0.806,0.806,0.806,0.806,0.7872,0.7243,0.7542,0.7595,0.0,0.0,0.0,0.0,0.0,0.7444,0.7608,0.74,0.0,0.0,0.0,0.0,0.0,0.8111,0.0,0.0,0.0,0.0,1.077,0.0,1.0916,1.0742,1.2004,0.0,1.2406,1.2607,1.277,1.2884,1.277,1.2781,1.289,1.289,1.3484,1.4476,1.4476,1.5081,1.5884,1.5678,1.6083,1.6921,1.7206,1.7451,1.7805,0.0,0.0,0.0,0.0,0.0,0.0,0.0,-0.5139,-0.5566,-0.6088,-0.6332,-0.6448,-0.6655,-0.5226,-0.4287,-0.4314,-0.321,-0.2251,-0.1767,-0.13,-0.0818,-0.0327,-0.0164,0.0827,0.2662,0.0826,0.0787,0.0,0.0,0.0,0.1711,0.2685,0.3293,0.3658,0.0,0.4536,0.4535,0.4973,0.5372,0.5384,0.5384,0.5384,0.5384,0.5384,0.5384,0.5384,0.5384,0.5384,0.5384,0.5384,0.5552,0.572,0.5888,0.6221,0.6556,0.6556,0.6892,0.7227,0.7227,0.7394,0.7729,0.7729,0.7897,0.806,0.806,0.806,0.806,0.806,0.806,0.7987,0.7733,0.7631,0.7574,0.0,0.0,0.0,0.0,0.0,0.806,0.8286,0.8202,0.8347,0.0,0.0,0.0,0.0,0.7899,0.0,0.0,0.0,0.0,1.0291,0.0,1.152,1.1204,1.2063,1.2482,1.2466,1.2558,1.2667,1.2776,1.2727,1.277,1.289,1.3484,1.3884,1.4083,1.5472,1.6076,1.6083,1.6871,1.7459,1.7886,1.8119,1.8434,1.8511,-0.4108,0.0,-0.4174,0.0,-0.4698,-0.4774,-0.509,-0.5139,-0.4992,-0.4872,-0.4966,-0.5243,-0.5288,-0.3685,-0.241,-0.1781,-0.0325,0.0813,0.1138,0.1645,0.2152,0.2481,0.2669,0.0,0.5538,0.3328,0.3372,0.5406,0.388,0.0,0.3297,0.3817,0.0,0.0,0.4727,0.4997,0.5205,0.524,0.5384,0.5384,0.5384,0.5384,0.5384,0.5384,0.5384,0.5384,0.5384,0.5384,0.5384,0.5384,0.5384,0.5384,0.5384,0.5717,0.6053,0.6053,0.6389,0.6727,0.6727,0.6895,0.7227,0.7227,0.7394,0.7729,0.7729,0.7729,0.7729,0.7897,0.7749,0.7765,0.7933,0.7815,0.7689,0.8027,0.0,0.0,0.0,0.8959,0.8994,0.8637,0.8702,0.8912,0.9035,0.0,0.0,0.0,0.0,0.0,0.0,0.0,0.0,0.0,0.0,0.0,0.0,1.2063,1.2449,1.264,1.2498,1.2526,1.2705,1.2705,1.277,1.289,1.4083,1.4283,1.4083,1.6069,1.6672,1.6679,1.8061,1.8655,1.8679,1.8852,1.8962,1.9072,-0.4092,-0.4144,-0.4392,-0.5044,-0.5104,-0.5125,-0.5191,-0.5202,-0.455,-0.2761,-0.2597,-0.2596,-0.2594,-0.2109,-0.0974,0.1297,0.1475,0.2308,0.4617,0.4667,0.5703,0.0,0.0,0.7725,0.7394,0.6892,0.5541,0.3352,0.0,0.0,0.2085,0.3603,0.4585,0.4947,0.4953,0.5083,0.5376,0.5382,0.5384,0.5384,0.5384,0.5384,0.5384,0.5384,0.5384,0.5384,0.5384,0.5384,0.5384,0.5384,0.5384,0.5384,0.5384,0.5717,0.6053,0.6053,0.6389,0.6727,0.6727,0.6727,0.6727,0.6727,0.6727,0.6727,0.6727,0.6727,0.6895,0.7394,0.712,0.7003,0.7348,0.7921,0.8207,0.786,0.0,0.0,0.0,1.024,1.0276,0.8831,0.8568,0.8774,0.9453,0.0,0.0,0.0,0.0,0.0,0.0,0.0,0.0,1.071,1.0742,0.0,1.1107,1.1938,1.2531,1.2879,1.2401,1.2362,1.2705,1.2705,1.277,1.289,1.4083,1.4476,1.4676,1.6268,1.7268,1.7672,1.8259,1.8853,1.9281,1.9451,1.941,1.9345,-0.4828,-0.4847,-0.4884,-0.5153,-0.5175,-0.5194,-0.5256,-0.4274,-0.3297,-0.2657,-0.1496,-0.0166,0.1328,0.1649,0.2305,0.0,0.4831,0.601,0.0,0.7038,0.7387,0.806,0.7729,0.7562,0.7394,0.5544,0.4703,0.5208,0.0,0.0,0.0,0.4589,0.4947,0.5316,0.5316,0.524,0.5384,0.5384,0.5384,0.5384,0.5384,0.5384,0.5384,0.5384,0.5384,0.5384,0.5384,0.5384,0.5384,0.5384,0.5357,0.5322,0.5322,0.5519,0.5552,0.5552,0.572,0.5888,0.5888,0.6053,0.6221,0.6221,0.656,0.6727,0.6727,0.6765,0.6986,0.7894,0.7925,0.8117,0.8977,0.923,0.9431,0.9302,0.9826,0.0,0.9453,0.9783,0.9918,0.913,0.9736,1.0216,0.0,1.014,0.0,0.0,0.0,0.0,0.0,0.0,0.0,0.0,1.096,0.0,1.1221,1.1808,1.2248,1.252,1.2199,1.2194,1.2471,1.2634,1.2968,1.349,1.4283,1.4676,1.5081,1.6871,1.7474,1.787,1.8663,1.9058,1.9264,1.9321,1.9378,1.9459,-0.5232,-0.5218,-0.5045,-0.4413,-0.4252,-0.3939,-0.3321,-0.2327,-0.1333,-0.0839,0.0336,0.1847,0.4199,0.4341,0.0,0.5703,0.6721,0.7562,0.7897,0.806,0.7897,0.7562,0.7394,0.7227,0.6892,0.0,0.0,0.5885,0.4284,0.4008,0.5089,0.5089,0.5254,0.5384,0.5384,0.5384,0.5384,0.5384,0.5384,0.5382,0.5527,0.5516,0.5513,0.549,0.5482,0.5482,0.5316,0.5316,0.5316,0.5316,0.5292,0.5259,0.5259,0.5286,0.5322,0.5343,0.5349,0.5354,0.5379,0.5552,0.5879,0.5855,0.6202,0.6731,0.7099,0.7311,0.754,0.8486,0.8532,0.8557,0.9426,0.9859,0.993,0.9754,1.0165,1.0387,0.9674,1.0209,1.0264,0.9427,0.0,0.0,0.0,1.0565,0.0,0.0,0.0,0.0,0.0,0.0,0.0,1.0481,1.1351,0.0,1.1542,1.1841,1.2112,1.2352,1.215,1.214,1.2292,1.2482,1.3082,1.369,1.4283,1.4881,1.5678,1.707,1.787,1.8061,1.8861,1.9256,1.9256,1.9256,1.9329,1.9427,-0.5124,-0.4923,0.0,0.0,-0.2481,0.0,-0.0168,0.0168,0.084,0.252,0.2858,0.3698,0.5885,0.572,0.5888,0.7227,0.0,0.0,0.0,0.7729,0.7729,0.6727,0.7063,0.6892,0.6053,0.6053,0.5885,0.5384,0.5384,0.5384,0.5384,0.5384,0.5384,0.5384,0.5384,0.5384,0.5384,0.5384,0.5384,0.5379,0.5817,0.5793,0.5784,0.5724,0.57,0.5697,0.5367,0.5202,0.5202,0.5202,0.5199,0.5196,0.5196,0.5196,0.521,0.5275,0.5292,0.5305,0.5535,0.5552,0.5538,0.5479,0.6174,0.7084,0.8017,0.8211,0.8415,0.9025,0.8939,0.8824,0.918,0.9787,1.003,0.9487,1.056,1.1099,1.003,1.0743,1.0778,0.0,0.0,0.0,0.0,1.0221,1.0639,0.0,0.0,0.0,0.0,0.0,1.0465,1.1754,1.1792,1.1851,1.1976,1.1976,1.2091,1.2319,1.221,1.2161,1.2161,1.2292,1.2937,1.3678,1.4277,1.5081,1.6282,1.7275,1.8061,1.8457,1.9058,1.9256,1.9256,1.9256,1.9256,1.9281,0.0,0.0,-0.0667,-0.0669,-0.0669,-0.0502,-0.0,0.1176,0.2184,0.2688,0.3868,0.5046,0.5552,0.5384,0.572,0.6389,0.6389,0.6556,0.6895,0.7227,0.7227,0.6727,0.6727,0.6556,0.6053,0.5717,0.5552,0.5384,0.5384,0.5384,0.5384,0.5384,0.5384,0.5384,0.5384,0.5384,0.5384,0.5384,0.5384,0.5384,0.5535,0.553,0.5524,0.546,0.5437,0.5431,0.5221,0.5202,0.5202,0.5202,0.5172,0.5134,0.5134,0.5294,0.5638,0.5754,0.5787,0.5967,0.6372,0.6727,0.6888,0.6871,0.7428,0.7851,0.8281,0.8354,0.8602,0.9582,0.9796,0.9992,1.0702,1.1078,1.0921,1.0387,1.1099,1.1099,0.9674,1.0209,1.0661,0.0,1.0249,1.0767,1.1118,1.1139,1.0987,0.0,0.0,0.0,0.0,1.0362,1.065,1.1514,1.1542,1.1645,1.1857,1.1857,1.1889,1.1944,1.2004,1.2031,1.2042,1.2254,1.308,1.4144,1.4433,1.5273,1.6672,1.7466,1.8061,1.8457,1.9058,1.9256,1.9256,1.9256,1.9256,1.9264,-0.1692,-0.0505,0.0504,0.1176,0.1176,0.1512,0.2352,0.3362,0.3868,0.3868,0.471,0.5384,0.5384,0.5384,0.5552,0.5717,0.6053,0.6221,0.6389,0.6895,0.6727,0.6056,0.6392,0.6221,0.5717,0.5552,0.5384,0.5384,0.5384,0.5384,0.5384,0.5384,0.5384,0.5384,0.5384,0.5384,0.5384,0.5384,0.5384,0.5382,0.5519,0.5657,0.5628,0.5561,0.5518,0.5489,0.5131,0.512,0.512,0.512,0.5098,0.5071,0.5071,0.5566,0.6251,0.6526,0.6581,0.6625,0.6874,0.7394,0.7905,0.8282,0.8636,0.9027,0.9567,0.9651,0.9897,1.054,1.0743,1.0921,1.1455,1.1455,1.1277,1.0565,1.057,1.0334,0.9117,0.9342,0.0,1.0007,1.0209,1.0743,1.1455,1.1455,1.1264,1.0808,0.0,0.0,1.078,1.084,1.1052,1.1444,1.1455,1.152,1.165,1.1764,1.1846,1.1895,1.1906,1.1966,1.208,1.221,1.3012,1.4293,1.462,1.587,1.7268,1.7863,1.8457,1.8853,1.9256,1.9256,1.9256,1.9256,1.9256,1.9256,-0.0,0.0676,0.1344,0.2858,0.3026,0.3698,0.5216,0.5384,0.5384,0.5384,0.5384,0.5384,0.5384,0.5384,0.5384,0.5384,0.5717,0.6053,0.6053,0.6392,0.6224,0.5384,0.5885,0.5885,0.5384,0.5384,0.5384,0.5384,0.5384,0.5384,0.5384,0.5384,0.5384,0.5384,0.5373,0.5376,0.5384,0.5373,0.5376,0.5379,0.5657,0.5763,0.57,0.5632,0.5566,0.5507,0.5181,0.5022,0.5022,0.5022,0.5022,0.5022,0.5187,0.5868,0.6738,0.7301,0.7549,0.7801,0.771,0.8072,0.8605,0.9531,0.9849,1.0043,1.1025,1.1286,1.133,1.1433,1.1455,1.1455,1.1455,1.1455,1.1234,1.0058,1.0002,0.9753,0.8611,0.0,0.895,0.981,1.003,1.0387,1.1277,1.1455,1.1455,1.1455,1.1455,0.0,0.0,1.1455,1.1455,1.1455,1.1455,1.1471,1.1509,1.1716,1.1873,1.1987,1.1873,1.1933,1.2145,1.2367,1.3141,1.4459,1.5209,1.6474,1.787,1.8259,1.8853,1.9256,1.9256,1.9256,1.9256,1.9256,1.9256,1.9256,0.2357,0.387,0.5043,0.5046,0.5046,0.5046,0.5384,0.5384,0.5384,0.5384,0.5384,0.5384,0.5384,0.5384,0.5384,0.5384,0.5384,0.5552,0.5552,0.5885,0.5885,0.5384,0.5885,0.5885,0.5384,0.5384,0.5384,0.5384,0.5384,0.5384,0.5384,0.5384,0.5384,0.5382,0.533,0.5335,0.5382,0.533,0.5338,0.5384,0.5373,0.5499,0.5437,0.5375,0.5311,0.5249,0.5038,0.5022,0.5022,0.5022,0.5022,0.5187,0.6033,0.6581,0.7305,0.8212,0.8967,0.955,0.9235,0.9469,1.0048,1.0572,1.0881,1.1031,1.1259,1.1351,1.1433,1.1449,1.1455,1.1455,1.1455,1.1455,1.1052,0.9861,1.0078,1.0086,0.8371,0.0,0.9251,0.9313,0.9674,1.0209,1.0743,1.1277,1.1455,1.1455,1.1455,1.1455,1.1455,1.1455,1.1455,1.1455,1.1455,1.1552,1.1759,1.1797,1.1873,1.1987,1.1873,1.1889,1.2025,1.3175,1.413,1.4893,1.6144,1.7268,1.8457,1.8457,1.8853,1.9256,1.9256,1.9256,1.9256,1.9256,1.9256,1.9256,0.4036,0.5046,0.5717,0.5384,0.5384,0.5384,0.5384,0.5384,0.5384,0.5384,0.5384,0.5384,0.5384,0.5384,0.5384,0.5384,0.5384,0.5384,0.5384,0.5552,0.5552,0.5384,0.5552,0.5552,0.5384,0.5384,0.5384,0.5384,0.5384,0.5384,0.5384,0.5384,0.5368,0.5335,0.5305,0.5292,0.5283,0.5256,0.5262,0.5286,0.5286,0.5251,0.5194,0.5164,0.5115,0.506,0.503,0.5022,0.5025,0.5688,0.5862,0.6029,0.6901,0.7791,0.8367,0.8903,0.9487,1.007,1.007,1.0325,1.0598,1.1003,1.1145,1.1291,1.1357,1.1417,1.1455,1.1455,1.1277,1.1099,1.1099,1.0921,1.045,0.9583,0.9621,0.0,0.0,0.877,0.9083,0.9295,0.9674,1.0209,1.0565,1.1277,1.1455,1.1455,1.1455,1.1455,1.1455,1.1455,1.1455,1.1455,1.1455,1.1574,1.1819,1.1819,1.1911,1.2085,1.1966,1.2343,1.3022,1.3596,1.4521,1.5835,1.6933,1.7863,1.8457,1.8853,1.9058,1.9256,1.9256,1.9256,1.9256,1.9256,1.9256,1.9256,0.5048,0.5384,0.5384,0.5384,0.5384,0.5384,0.5384,0.5384,0.5384,0.5384,0.5384,0.5384,0.5384,0.5384,0.5384,0.5384,0.5384,0.5384,0.5384,0.5384,0.5384,0.5384,0.5384,0.5371,0.5343,0.5357,0.5357,0.5343,0.5343,0.5343,0.5343,0.5343,0.5316,0.5273,0.5259,0.5234,0.5202,0.5188,0.5188,0.5202,0.5202,0.5166,0.5112,0.5112,0.524,0.5355,0.5355,0.5522,0.5859,0.6553,0.6894,0.7065,0.7956,0.8689,0.9414,0.9603,0.9838,1.0237,1.057,1.0846,1.0987,1.1079,1.121,1.134,1.1433,1.1455,1.1455,1.1455,1.1099,1.0743,1.0743,1.0387,0.9796,0.9284,0.0,0.0,0.0,0.862,0.8813,0.9108,0.9674,1.0209,1.0565,1.1099,1.1455,1.1455,1.1455,1.1455,1.1455,1.1455,1.1455,1.1455,1.1455,1.1574,1.1819,1.1819,1.1938,1.2172,1.2074,1.2636,1.3676,1.4,1.5083,1.6558,1.7659,1.8205,1.86,1.9042,1.9256,1.9256,1.9256,1.9256,1.9256,1.9256,1.9256,1.9256,0.5384,0.5384,0.5384,0.5384,0.5384,0.5384,0.5384,0.5384,0.5384,0.5384,0.5384,0.5384,0.5384,0.5384,0.5384,0.5384,0.5384,0.5384,0.5384,0.5384,0.5384,0.5384,0.5384,0.5333,0.5218,0.527,0.5273,0.5215,0.5215,0.5215,0.5215,0.5215,0.5213,0.5207,0.515,0.5153,0.5199,0.5142,0.515,0.5202,0.5202,0.5166,0.5112,0.5112,0.5587,0.638,0.638,0.6901,0.777,0.7778,0.7778,0.7956,0.887,0.924,0.9429,1.0361,1.0565,1.0737,1.0737,1.0911,1.109,1.1101,1.1275,1.1444,1.1455,1.1455,1.1455,1.1455,1.1099,1.0743,1.0743,1.0387,0.9807,0.8964,0.0,0.0,0.8302,0.8386,0.8579,0.8603,0.9496,1.003,1.003,1.0921,1.1455,1.1455,1.1455,1.1455,1.1455,1.1455,1.1455,1.1455,1.1455,1.1574,1.1819,1.1819,1.1938,1.2172,1.2161,1.2722,1.3676,1.4754,1.5786,1.6964,1.8261,1.9004,1.9013,1.9191,1.9256,1.9256,1.9256,1.9256,1.9256,1.9256,1.9256,1.9256,0.5384,0.5384,0.5384,0.5384,0.5384,0.5384,0.5384,0.5384,0.5384,0.5384,0.5384,0.5384,0.5384,0.5384,0.5384,0.5384,0.5384,0.5384,0.5384,0.5384,0.5368,0.533,0.5327,0.5289,0.5204,0.5226,0.5226,0.5202,0.5202,0.5202,0.5202,0.5202,0.5183,0.5145,0.5123,0.5104,0.5087,0.5066,0.509,0.5147,0.5789,0.5959,0.5975,0.6616,0.7095,0.742,0.742,0.7601,0.7961,0.8508,0.8693,0.8875,0.9803,1.0169,1.018,1.056,1.0791,1.0851,1.0851,1.0971,1.1118,1.0841,1.0978,1.0921,1.0921,1.0921,1.1099,1.1455,1.0921,1.0209,1.0209,0.9674,0.9056,0.8805,0.0,0.8698,0.8457,0.8456,0.8607,0.8607,0.9496,1.003,1.003,1.0921,1.1455,1.1455,1.1455,1.1455,1.1455,1.1455,1.1455,1.1455,1.1455,1.1574,1.1819,1.1819,1.1938,1.2172,1.2922,1.3676,1.4617,1.5899,1.6927,1.7899,1.852,1.8883,1.8988,1.9061,1.9159,1.9256,1.9256,1.9256,1.9256,1.9256,1.9256,1.9256,0.5384,0.5384,0.5384,0.5384,0.5384,0.5384,0.5384,0.5384,0.5384,0.5384,0.5384,0.5384,0.5384,0.5384,0.5384,0.5384,0.5384,0.5384,0.5384,0.5365,0.533,0.5267,0.5283,0.5248,0.5147,0.5164,0.5164,0.5145,0.5145,0.5145,0.5145,0.5145,0.5123,0.5082,0.5082,0.506,0.5022,0.5355,0.5548,0.559,0.6571,0.6934,0.6985,0.7629,0.8131,0.8323,0.8323,0.8503,0.8866,0.9598,0.9793,0.9803,1.0544,1.0737,1.0737,1.0737,1.0797,1.0878,1.0784,1.0865,1.0783,1.0719,1.0656,1.0743,1.0565,1.0565,1.0743,1.0921,1.0387,0.9852,0.9852,0.9143,0.8607,0.8607,0.8607,0.8607,0.8607,0.8607,0.8607,0.8607,0.9496,1.003,1.003,1.0921,1.1455,1.1455,1.1455,1.1455,1.1455,1.1455,1.1455,1.1455,1.181,1.209,1.2118,1.2163,1.2488,1.2733,1.367,1.4617,1.5744,1.6423,1.7419,1.8371,1.8558,1.8704,1.8826,1.8939,1.9053,1.9175,1.924,1.9256,1.9256,1.9256,1.9224,1.9175,0.5384,0.5384,0.5384,0.5384,0.5384,0.5384,0.5384,0.5384,0.5384,0.5384,0.5384,0.5384,0.5384,0.5384,0.5384,0.5384,0.5384,0.5384,0.5384,0.5327,0.5267,0.5204,0.5259,0.5207,0.5025,0.5079,0.5082,0.5022,0.5022,0.5022,0.5022,0.5022,0.5022,0.5022,0.5022,0.5022,0.5025,0.6039,0.6546,0.6553,0.7597,0.7952,0.7952,0.7952,0.8499,0.925,0.925,0.9973,1.0737,1.0737,1.0737,1.0737,1.0737,1.0737,1.0737,1.0737,1.0737,1.0624,1.0522,1.0406,1.0432,1.0544,1.0656,1.0565,1.003,1.0387,1.0565,1.003,0.9674,0.9322,0.9322,0.8964,0.8607,0.8607,0.8607,0.8607,0.8607,0.8607,0.8607,0.8607,0.9496,1.003,1.003,1.0921,1.1455,1.1455,1.1455,1.1455,1.1455,1.1455,1.1455,1.1455,1.2343,1.2936,1.3065,1.3205,1.3407,1.367,1.4805,1.5744,1.6681,1.6681,1.7242,1.8184,1.8371,1.8452,1.8485,1.8834,1.898,1.9004,1.9183,1.9256,1.9256,1.9256,1.9142,1.898,0.5384,0.5384,0.5384,0.5384,0.5384,0.5384,0.5384,0.5384,0.5384,0.5384,0.5384,0.5384,0.5384,0.5384,0.5384,0.5384,0.5384,0.5384,0.5384,0.5368,0.5311,0.5207,0.518,0.512,0.5022,0.5038,0.5038,0.5022,0.5022,0.5022,0.5022,0.5022,0.5358,0.6036,0.6036,0.638,0.7069,0.7416,0.7463,0.7685,0.853,0.8912,0.8976,0.9637,0.9988,1.0351,1.0351,1.0538,1.0737,1.0737,1.0737,1.0737,1.0737,1.0737,1.0737,1.0737,1.0857,1.0838,1.0568,1.1558,1.222,1.015,0.9651,0.9674,0.95,1.0911,1.1793,1.0387,1.0911,1.1261,0.9674,0.8964,0.8607,0.8607,0.8607,0.8607,0.8607,0.8607,0.8607,0.8607,0.9496,1.003,1.003,1.0921,1.1455,1.1455,1.1455,1.181,1.252,1.252,1.2698,1.3401,1.3755,1.4004,1.397,1.4289,1.4454,1.4646,1.5687,1.6119,1.6119,1.7242,1.7803,1.7624,1.8046,1.8403,1.8655,1.8761,1.8948,1.9183,1.924,1.9256,1.9256,1.9256,1.9142,1.898,0.5384,0.5384,0.5384,0.5384,0.5384,0.5384,0.5384,0.5384,0.5384,0.5384,0.5384,0.5384,0.5384,0.5384,0.5384,0.5384,0.5384,0.5384,0.5384,0.5363,0.5316,0.5243,0.5503,0.5428,0.5022,0.5044,0.5046,0.5022,0.5384,0.5554,0.5531,0.6029,0.6543,0.7072,0.7072,0.742,0.7952,0.8315,0.853,0.8588,0.9453,0.9843,0.9903,1.057,1.0737,1.0737,1.0737,1.0737,1.0737,1.0737,1.0737,1.0737,1.0737,1.0737,1.0737,1.0737,1.1379,1.2057,1.1595,1.2954,1.4177,1.2302,1.1965,1.1965,1.1788,1.3022,1.3899,1.2491,1.3192,1.3545,1.2137,1.161,1.1255,1.1083,1.0555,0.9843,0.9669,0.9139,0.8607,0.8607,0.9496,1.003,1.003,1.1277,1.2165,1.2514,1.2692,1.2869,1.3407,1.3407,1.3755,1.4285,1.4639,1.4864,1.4956,1.5291,1.5476,1.5142,1.6346,1.6808,1.6501,1.7429,1.7803,1.7803,1.7989,1.8298,1.8517,1.8582,1.8744,1.8948,1.9021,1.9045,1.9045,1.9045,1.8931,1.8769,0.5384,0.5384,0.5384,0.5384,0.5384,0.5384,0.5384,0.5384,0.5384,0.5384,0.5384,0.5384,0.5384,0.5384,0.5384,0.5384,0.5384,0.5384,0.5384,0.5499,0.5465,0.546,0.622,0.6281,0.5353,0.5249,0.5252,0.5193,0.611,0.6626,0.6716,0.7432,0.7956,0.7965,0.7965,0.8131,0.8144,0.9053,0.9424,0.9433,1.0361,1.0737,1.0737,1.0737,1.0737,1.0737,1.0737,1.0737,1.0737,1.0737,1.0737,1.0737,1.0904,1.0904,1.0904,1.1065,1.2483,1.3796,1.3435,1.4951,1.6482,1.5958,1.653,1.6705,1.582,1.6179,1.653,1.582,1.582,1.582,1.5645,1.5645,1.5477,1.5132,1.3369,1.1959,1.1438,0.9847,0.8607,0.8607,0.9496,1.0209,1.0209,1.181,1.3407,1.4285,1.4285,1.4285,1.4462,1.4462,1.4462,1.4462,1.5352,1.5704,1.5704,1.6387,1.6273,1.586,1.6796,1.7266,1.725,1.7437,1.7616,1.8176,1.8176,1.8184,1.8217,1.8379,1.846,1.8493,1.8663,1.8728,1.8728,1.8728,1.8606,1.8452,0.5384,0.5384,0.5384,0.5384,0.5384,0.5384,0.5384,0.5384,0.5384,0.5384,0.5384,0.5384,0.5384,0.5384,0.5384,0.5384,0.5384,0.5384,0.5384,0.6038,0.634,0.6285,0.7252,0.7518,0.7252,0.7267,0.7267,0.7248,0.7448,0.7621,0.7601,0.7782,0.8315,0.9048,0.9048,0.9419,1.0159,1.0356,1.0367,1.0367,1.056,1.0737,1.0737,1.0737,1.0737,1.0737,1.0737,1.0737,1.0737,1.0737,1.0737,1.0904,1.2388,1.2886,1.3052,1.4526,1.5308,1.5646,1.53,1.7007,1.8741,1.8409,1.9864,2.0395,1.6522,1.723,1.8104,1.5996,1.7055,1.7755,1.5996,1.5645,1.5645,1.5477,1.3539,1.2137,1.1959,1.0021,0.8607,0.8607,1.0026,1.1088,1.1088,1.2863,1.4108,1.4285,1.4285,1.4639,1.5352,1.5352,1.5521,1.5873,1.6225,1.6049,1.5704,1.5918,1.6107,1.6613,1.6567,1.671,1.6868,1.7242,1.7429,1.7616,1.7989,1.8257,1.8395,1.8436,1.8533,1.8671,1.8712,1.8728,1.8728,1.8728,1.8606,1.8428,0.5384,0.5384,0.5384,0.5384,0.5384,0.5384,0.5384,0.5384,0.5384,0.5384,0.5384,0.5384,0.5384,0.5717,0.6221,0.6724,0.6724,0.6724,0.6724,0.7056,0.7372,0.7331,0.8161,0.8632,0.8579,0.9071,0.8857,0.7952,0.8367,0.8557,0.8508,0.9048,0.9429,0.9983,0.9983,1.018,1.0737,1.0737,1.0737,1.0737,1.0737,1.0737,1.0737,1.0737,1.0737,1.0737,1.0737,1.0737,1.0737,1.0737,1.1231,1.2229,1.3052,1.4038,1.4856,1.5679,1.6799,1.7486,1.7501,1.9061,2.0828,2.0865,2.1801,2.1974,1.9507,2.0038,2.0568,1.9333,2.0038,2.0568,1.9159,1.8985,1.8985,1.8636,1.6354,1.4428,1.4258,1.1793,1.003,1.0204,1.1444,1.2503,1.3394,1.4285,1.5168,1.5521,1.5697,1.5697,1.6049,1.6049,1.6049,1.6049,1.6049,1.5881,1.5704,1.5528,1.569,1.6204,1.6286,1.645,1.6681,1.7242,1.7624,1.7803,1.7989,1.8233,1.8322,1.8322,1.8428,1.8598,1.8598,1.8647,1.8728,1.8728,1.8606,1.8428,0.5384,0.5384,0.5384,0.5384,0.5384,0.5384,0.5384,0.5552,0.5552,0.5552,0.572,0.5888,0.5888,0.6553,0.7223,0.806,0.806,0.806,0.806,0.8232,0.8399,0.8399,0.9235,0.9574,0.9574,1.0404,0.9973,0.8323,0.9151,0.9525,0.9603,1.0356,1.0737,1.0737,1.0737,1.0737,1.0737,1.0737,1.0737,1.0737,1.0737,1.0737,1.0737,1.0737,1.0737,1.0737,1.0737,1.0737,1.0737,1.0737,1.1896,1.3383,1.3714,1.502,1.65,1.6828,1.8101,1.9444,1.9648,2.0864,2.2277,2.2557,2.2622,2.2632,2.2675,2.2686,2.2686,2.2686,2.2686,2.2686,2.2686,2.2859,2.2686,2.2341,1.97,1.7413,1.6721,1.3912,1.1976,1.2154,1.2863,1.3925,1.5704,1.5881,1.6233,1.7112,1.7112,1.6928,1.6577,1.6401,1.6225,1.5704,1.5704,1.5528,1.5528,1.4999,1.4977,1.5469,1.6015,1.636,1.6681,1.7242,1.7616,1.8176,1.8176,1.8176,1.8176,1.8176,1.8282,1.8452,1.8452,1.8566,1.872,1.8688,1.8582,1.8428,0.5384,0.5384,0.5384,0.5384,0.5384,0.5384,0.5384,0.6053,0.6553,0.6553,0.7223,0.7725,0.7725,0.7893,0.7893,0.806,0.806,0.806,0.806,0.8733,0.9235,0.9235,1.007,1.057,1.057,1.057,1.0554,1.0356,1.0388,1.0565,1.0544,1.056,1.0737,1.0737,1.0737,1.0737,1.0737,1.0737,1.0737,1.0737,1.0737,1.0737,1.0737,1.0737,1.0737,1.0737,1.0737,1.0737,1.0737,1.0737,1.1896,1.3714,1.5185,1.6828,1.8626,2.012,2.08,2.1047,2.127,2.152,2.1825,2.2266,2.2385,2.2428,2.2632,2.2686,2.2686,2.2686,2.2686,2.2686,2.2686,2.3031,2.3204,2.3204,2.1424,1.9498,1.7763,1.5477,1.3375,1.2325,1.3742,1.533,1.6761,1.6936,1.6936,1.7112,1.7112,1.7112,1.6936,1.6577,1.6225,1.5704,1.5352,1.4822,1.4476,1.4476,1.4798,1.5462,1.6007,1.636,1.6681,1.7242,1.7616,1.8176,1.8176,1.8176,1.8176,1.8176,1.8282,1.8452,1.8452,1.8566,1.8704,1.855,1.8476,1.8428,0.6053,0.6053,0.6221,0.6892,0.6892,0.6892,0.6892,0.7223,0.7558,0.7558,0.7893,0.806,0.806,0.8566,0.9068,0.9564,0.9564,0.9564,0.9564,0.9903,1.007,1.007,1.057,1.0737,1.0737,1.0737,1.0737,1.0737,1.0737,1.0737,1.0737,1.0737,1.0737,1.0737,1.0737,1.0737,1.0737,1.0737,1.0737,1.0737,1.0737,1.0737,1.0737,1.0737,1.0737,1.0737,1.0737,1.0737,1.0904,1.1896,1.3376,1.5185,1.682,1.8626,2.0282,2.1114,2.1276,2.133,2.1556,2.162,2.1706,2.204,2.2234,2.2363,2.246,2.2589,2.2686,2.2686,2.2859,2.3031,2.3031,2.3548,2.372,2.372,2.2481,2.0732,1.8819,1.7071,1.5323,1.4278,1.5337,1.6401,1.7112,1.7112,1.7112,1.7112,1.7112,1.6936,1.6753,1.6225,1.5881,1.5352,1.4822,1.4476,1.4299,1.4299,1.4586,1.5333,1.597,1.6551,1.7055,1.7616,1.7989,1.8176,1.8176,1.8176,1.8176,1.8176,1.8347,1.8606,1.8606,1.8777,1.9004,1.8818,1.8688,1.859]},{"header":{"parameterUnit":"m.s-1","parameterCategory":1,"la1":30.6,"la2":28.766,"lo1":-90.7593,"lo2":-88.6598,"dx":0.0162,"dy":0.0183,"nx":116,"ny":114,"refTime":"2022-11-25T06:00:00:Z","depth":0,"parameterNumber":3,"parameterNumberName":"V-component_of_WINDS"},"data":[0.0,0.0,0.0,0.0,0.0,0.0,0.0,0.0,0.0,0.0,0.0,0.0,0.0,0.0,0.0,0.0,0.0,0.0,0.0,0.0,0.0,0.0,0.0,0.0,0.0,0.0,0.0,0.0,0.0,0.0,0.0,0.0,0.0,0.0,0.0,0.0,0.0,0.0,0.0,0.0,0.0,0.0,0.0,0.0,0.0,0.0,0.0,0.0,0.0,0.0,0.0,0.0,0.0,0.0,0.0,0.0,0.0,0.0,0.0,0.0,0.0,0.0,0.0,0.0,0.0,0.0,0.0,0.0,0.0,0.0,0.0,0.0,0.0,0.0,0.0,0.0,0.0,0.0,0.0,0.0,0.0,0.0,0.0,0.0,0.0,0.0,0.0,0.0,0.0,0.0,0.0,0.0,0.0,0.0,0.0,0.0,0.0,0.0,0.0,0.0,0.0,0.0,0.0,0.0,0.0,0.0,0.0,0.0,0.0,0.0,0.0,0.0,0.0,0.0,0.0,0.0,0.0,0.0,0.0,0.0,0.0,0.0,0.0,0.0,0.0,0.0,0.0,0.0,0.0,0.0,0.0,0.0,0.0,0.0,0.0,0.0,0.0,0.0,0.0,0.0,0.0,0.0,0.0,0.0,0.0,0.0,0.0,0.0,0.0,0.0,0.0,0.0,0.0,0.0,0.0,0.0,0.0,0.0,0.0,0.0,0.0,0.0,0.0,0.0,0.0,0.0,0.0,0.0,0.0,0.0,0.0,0.0,0.0,0.0,0.0,0.0,0.0,0.0,0.0,0.0,0.0,0.0,0.0,0.0,0.0,0.0,0.0,0.0,0.0,0.0,0.0,0.0,0.0,0.0,0.0,0.0,0.0,0.0,0.0,0.0,0.0,0.0,0.0,0.0,0.0,0.0,0.0,0.0,0.0,0.0,0.0,0.0,0.0,0.0,0.0,0.0,0.0,0.0,0.0,0.0,0.0,0.0,0.0,0.0,0.0,0.0,0.0,0.0,0.0,0.0,0.0,0.0,0.0,0.0,0.0,0.0,0.0,0.0,0.0,0.0,0.0,0.0,0.0,0.0,0.0,0.0,0.0,0.0,0.0,0.0,0.0,0.0,0.0,0.0,0.0,0.0,0.0,0.0,0.0,0.0,0.0,0.0,0.0,0.0,0.0,0.0,0.0,0.0,0.0,0.0,0.0,0.0,0.0,0.0,0.0,0.0,0.0,0.0,0.0,0.0,0.0,0.0,0.0,0.0,0.0,0.0,0.0,0.0,0.0,0.0,0.0,0.0,0.0,0.0,0.0,0.0,0.0,0.0,0.0,0.0,0.0,0.0,0.0,0.0,0.0,0.0,0.0,0.0,0.0,0.0,0.0,0.0,0.0,0.0,0.0,0.0,0.0,0.0,0.0,0.0,0.0,0.0,0.0,0.0,0.0,0.0,0.0,0.0,0.0,0.0,0.0,0.0,0.0,0.0,0.0,0.0,0.0,0.0,0.0,0.0,0.0,0.0,0.0,0.0,0.0,0.0,0.0,0.0,0.0,0.0,0.0,0.0,0.0,0.0,0.0,0.0,0.0,0.0,0.0,0.0,0.0,0.0,0.0,0.0,0.0,0.0,0.0,0.0,0.0,0.0,0.0,0.0,0.0,0.0,0.0,0.0,0.0,0.0,0.0,0.0,0.0,0.0,0.0,0.0,0.0,0.0,0.0,0.0,0.0,0.0,0.0,0.0,0.0,0.0,0.0,0.0,0.0,0.0,0.0,0.0,0.0,0.0,0.0,0.0,0.0,0.0,0.0,0.0,0.0,0.0,0.0,0.0,0.0,0.0,0.0,0.0,0.0,0.0,0.0,0.0,0.0,0.0,0.0,0.0,0.0,0.0,0.0,0.0,0.0,0.0,0.0,0.0,0.0,0.0,0.0,0.0,0.0,0.0,0.0,0.0,0.0,0.0,0.0,0.0,0.0,0.0,0.0,0.0,0.0,0.0,0.0,0.0,0.0,0.0,0.0,0.0,0.0,0.0,0.0,0.0,0.0,0.0,0.0,0.0,0.0,0.0,0.0,0.0,0.0,0.0,0.0,0.0,0.0,0.0,0.0,0.0,0.0,0.0,0.0,0.0,0.0,0.0,0.0,0.0,0.0,0.0,0.0,0.0,0.0,0.0,0.0,0.0,0.0,0.0,0.0,0.0,0.0,0.0,0.0,0.0,0.0,0.0,0.0,0.0,0.0,0.0,0.0,0.0,0.0,0.0,0.0,0.0,0.0,0.0,0.0,0.0,0.0,0.0,0.0,0.0,0.0,0.0,0.0,0.0,0.0,0.0,0.0,0.0,0.0,0.0,0.0,0.0,0.0,0.0,0.0,0.0,0.0,0.0,0.0,0.0,0.0,0.0,0.0,0.0,0.0,0.0,0.0,0.0,0.0,0.0,0.0,0.0,0.0,0.0,0.0,0.0,0.0,0.0,0.0,0.0,0.0,0.0,0.0,0.0,0.0,0.0,0.0,0.0,0.0,0.0,0.0,0.0,0.0,0.0,0.0,0.0,0.0,0.0,0.0,0.0,0.0,0.0,0.0,0.0,0.0,0.0,0.0,0.0,0.0,0.0,0.0,0.0,0.0,0.0,0.0,0.0,0.0,0.0,0.0,0.0,0.0,0.0,0.0,0.0,0.0,0.0,0.0,0.0,0.0,0.0,0.0,0.0,0.0,0.0,0.0,0.0,0.0,0.0,0.0,0.0,0.0,0.0,0.0,0.0,0.0,0.0,0.0,0.0,0.0,0.0,0.0,0.0,0.0,0.0,0.0,0.0,0.0,0.0,0.0,0.0,0.0,0.0,0.0,0.0,0.0,0.0,0.0,0.0,0.0,0.0,0.0,0.0,0.0,0.0,0.0,0.0,0.0,0.0,0.0,0.0,0.0,0.0,0.0,0.0,0.0,0.0,0.0,0.0,0.0,0.0,0.0,0.0,0.0,0.0,0.0,0.0,0.0,0.0,0.0,0.0,0.0,0.0,0.0,0.0,0.0,0.0,0.0,0.0,0.0,0.0,0.0,0.0,0.0,0.0,0.0,0.0,0.0,0.0,0.0,0.0,0.0,0.0,0.0,0.0,0.0,0.0,0.0,0.0,0.0,0.0,0.0,0.0,0.0,0.0,0.0,0.0,0.0,0.0,0.0,0.0,0.0,0.0,0.0,0.0,0.0,0.0,0.0,0.0,0.0,0.0,0.0,0.0,0.0,0.0,0.0,0.0,0.0,0.0,0.0,0.0,0.0,0.0,0.0,0.0,0.0,0.0,0.0,0.0,0.0,0.0,0.0,0.0,0.0,0.0,0.0,0.0,0.0,0.0,0.0,0.0,0.0,0.0,0.0,0.0,0.0,0.0,0.0,0.0,0.0,0.0,0.0,0.0,0.0,0.0,0.0,0.0,0.0,0.0,0.0,0.0,0.0,0.0,0.0,0.0,0.0,0.0,0.0,0.0,0.0,0.0,0.0,0.0,0.0,0.0,0.0,0.0,0.0,0.0,0.0,0.0,0.0,0.0,0.0,0.0,0.0,0.0,0.0,0.0,0.0,0.0,0.0,0.0,0.0,0.0,0.0,0.0,0.0,0.0,0.0,0.0,0.0,0.0,0.0,0.0,0.0,0.0,0.0,0.0,0.0,0.0,0.0,0.0,0.0,0.0,0.0,0.0,0.0,0.0,0.0,0.0,0.0,0.0,0.0,0.0,0.0,0.0,0.0,0.0,0.0,0.0,0.0,0.0,0.0,0.0,0.0,0.0,0.0,0.0,0.0,0.0,0.0,0.0,0.0,0.0,0.0,0.0,0.0,0.0,0.0,0.0,0.0,0.0,0.0,0.0,0.0,0.0,0.0,0.0,0.0,0.0,0.0,0.0,0.0,0.0,0.0,0.0,0.0,0.0,0.0,0.0,0.0,0.0,0.0,0.0,0.0,0.0,0.0,0.0,0.0,0.0,0.0,0.0,0.0,0.0,0.0,0.0,0.0,0.0,0.0,0.0,0.0,0.0,0.0,0.0,0.0,0.0,0.0,0.0,0.0,0.0,0.0,0.0,0.0,0.0,0.0,0.0,0.0,0.0,0.0,0.0,0.0,0.0,0.0,0.0,0.0,0.0,0.0,0.0,0.0,0.0,0.0,0.0,0.0,0.0,0.0,0.0,0.0,0.0,0.0,0.0,0.0,0.0,0.0,0.0,0.0,0.0,0.0,0.0,0.0,0.0,0.0,0.0,0.0,0.0,0.0,0.0,0.0,0.0,0.0,0.0,0.0,0.0,0.0,0.0,0.0,0.0,0.0,0.0,0.0,0.0,0.0,0.0,0.0,0.0,0.0,0.0,0.0,0.0,0.0,0.0,0.0,0.0,0.0,0.0,0.0,0.0,0.0,0.0,0.0,0.0,0.0,0.0,0.0,0.0,0.0,0.0,0.0,0.0,0.0,0.0,0.0,0.0,0.0,0.0,0.0,0.0,0.0,0.0,0.0,0.0,0.0,0.0,0.0,0.0,0.0,0.0,0.0,0.0,0.0,0.0,0.0,0.0,0.0,0.0,0.0,0.0,0.0,0.0,0.0,0.0,0.0,0.0,0.0,0.0,0.0,0.0,0.0,0.0,0.0,0.0,0.0,0.0,0.0,0.0,0.0,0.0,0.0,0.0,0.0,0.0,0.0,0.0,0.0,0.0,0.0,0.0,0.0,0.0,0.0,0.0,0.0,0.0,0.0,0.0,0.0,0.0,0.0,0.0,0.0,0.0,0.0,0.0,0.0,0.0,0.0,0.0,0.0,0.0,0.0,0.0,0.0,0.0,0.0,0.0,0.0,0.0,0.0,0.0,0.0,0.0,0.0,0.0,0.0,0.0,0.0,0.0,0.0,0.0,0.0,0.0,0.0,0.0,0.0,0.0,0.0,0.0,0.0,0.0,0.0,0.0,0.0,0.0,0.0,0.0,0.0,0.0,0.0,0.0,0.0,0.0,0.0,0.0,0.0,0.0,0.0,0.0,0.0,0.0,0.0,0.0,0.0,0.0,0.0,0.0,0.0,0.0,0.0,0.0,0.0,0.0,0.0,0.0,0.0,0.0,0.0,0.0,0.0,0.0,0.0,0.0,0.0,0.0,0.0,0.0,0.0,0.0,0.0,0.0,0.0,0.0,0.0,0.0,0.0,0.0,0.0,0.0,0.0,0.0,0.0,0.0,0.0,0.0,0.0,0.0,0.0,0.0,0.0,0.0,0.0,0.0,0.0,0.0,0.0,0.0,0.0,0.0,0.0,0.0,0.0,0.0,0.0,0.0,0.0,0.0,0.0,0.0,0.0,0.0,0.0,0.0,0.0,0.0,0.0,0.0,0.0,0.0,0.0,0.0,0.0,0.0,0.0,0.0,0.0,0.0,0.0,0.0,0.0,0.0,0.0,0.0,0.0,0.0,0.0,0.0,0.0,0.0,0.0,0.0,0.0,0.0,0.0,0.0,0.0,0.0,0.0,0.0,0.0,0.0,0.0,0.0,0.0,0.0,0.0,0.0,0.0,0.0,0.0,0.0,0.0,0.0,0.0,0.0,0.0,0.0,0.0,0.0,0.0,0.0,0.0,0.0,0.0,0.0,0.0,0.0,0.0,0.0,0.0,0.0,0.0,0.0,0.0,0.0,0.0,0.0,0.0,0.0,0.0,0.0,0.0,0.0,0.0,0.0,0.0,0.0,0.0,0.0,0.0,0.0,0.0,0.0,0.0,0.0,0.0,0.0,0.0,0.0,0.0,0.0,0.0,0.0,0.0,0.0,0.0,0.0,0.0,0.0,0.0,0.0,0.0,0.0,0.0,0.0,0.0,0.0,0.0,0.0,0.0,0.0,0.0,0.0,0.0,0.0,0.0,0.0,0.0,0.0,0.0,0.0,0.0,0.0,0.0,0.0,0.0,0.0,0.0,0.0,0.0,0.0,0.0,0.0,0.0,0.0,0.0,0.0,0.0,0.0,0.0,0.0,0.0,0.0,0.0,0.0,0.0,0.0,0.0,0.0,0.0,0.0,0.0,0.0,0.0,0.0,0.0,0.0,0.0,0.0,0.0,0.0,0.0,0.0,-4.6733,0.0,0.0,0.0,0.0,0.0,0.0,0.0,0.0,0.0,0.0,0.0,0.0,0.0,0.0,0.0,0.0,0.0,0.0,0.0,0.0,0.0,0.0,0.0,0.0,-2.918,-2.9879,-2.9835,-3.0138,0.0,0.0,0.0,0.0,0.0,0.0,0.0,0.0,0.0,-2.9379,-3.0136,-3.0136,-3.098,-3.2522,-3.0797,-3.0026,-3.0026,0.0,0.0,0.0,0.0,0.0,0.0,0.0,0.0,0.0,0.0,0.0,0.0,0.0,0.0,0.0,0.0,0.0,0.0,0.0,0.0,0.0,0.0,0.0,0.0,0.0,0.0,0.0,0.0,0.0,0.0,0.0,0.0,0.0,0.0,0.0,0.0,0.0,0.0,0.0,0.0,0.0,0.0,0.0,0.0,0.0,0.0,0.0,0.0,0.0,0.0,0.0,0.0,0.0,0.0,0.0,0.0,0.0,0.0,0.0,0.0,0.0,0.0,0.0,0.0,0.0,0.0,0.0,0.0,0.0,0.0,0.0,-4.8514,0.0,0.0,0.0,0.0,0.0,0.0,0.0,0.0,0.0,0.0,0.0,0.0,0.0,0.0,0.0,0.0,0.0,0.0,0.0,0.0,0.0,-2.8086,-2.8086,-2.9593,-3.0627,-3.0709,-3.127,-3.1542,-3.1418,-3.083,0.0,0.0,0.0,0.0,-2.7295,-2.8668,-3.0136,-3.1604,-3.2449,-3.355,-3.4871,-3.5716,-3.5716,-3.4945,-3.2412,0.0,0.0,0.0,0.0,0.0,0.0,0.0,0.0,0.0,0.0,0.0,0.0,0.0,0.0,0.0,0.0,0.0,0.0,0.0,0.0,0.0,0.0,0.0,0.0,0.0,0.0,0.0,0.0,0.0,0.0,0.0,0.0,0.0,0.0,0.0,0.0,0.0,0.0,0.0,0.0,0.0,0.0,0.0,0.0,0.0,0.0,0.0,0.0,0.0,0.0,0.0,0.0,0.0,0.0,0.0,0.0,0.0,0.0,0.0,0.0,0.0,0.0,0.0,0.0,-5.3427,-5.396,-5.3916,-5.5038,-5.6877,-5.3632,-5.4296,-5.7215,0.0,0.0,0.0,0.0,0.0,0.0,0.0,0.0,0.0,0.0,0.0,0.0,0.0,0.0,0.0,0.0,0.0,0.0,0.0,0.0,-2.8086,-2.8086,-2.9593,-3.085,-3.1487,-3.1565,-3.1283,-3.0604,-3.1052,0.0,0.0,0.0,0.0,-2.9826,-3.0638,-3.1531,-3.2449,-3.6707,-3.8872,-3.9093,-3.9937,-4.0267,-4.001,-3.689,-3.5018,-3.4037,0.0,0.0,0.0,0.0,0.0,0.0,0.0,0.0,0.0,0.0,0.0,0.0,0.0,0.0,0.0,0.0,0.0,0.0,0.0,0.0,0.0,0.0,0.0,0.0,0.0,0.0,0.0,0.0,0.0,0.0,0.0,0.0,0.0,0.0,0.0,0.0,0.0,0.0,0.0,0.0,0.0,-4.4446,-4.4674,0.0,0.0,0.0,0.0,0.0,0.0,0.0,0.0,0.0,0.0,0.0,0.0,0.0,0.0,-5.1926,-5.4931,-5.6071,-5.5455,-5.8517,-5.9633,-5.8963,-5.8932,-5.9501,-6.0454,-6.0681,0.0,-5.7468,-5.6671,0.0,0.0,0.0,0.0,0.0,0.0,0.0,0.0,0.0,0.0,0.0,0.0,0.0,0.0,0.0,0.0,0.0,0.0,0.0,0.0,0.0,-3.0924,-3.24,-3.3673,-3.409,-3.3991,-3.3253,-3.2613,0.0,0.0,0.0,-3.0696,-3.0257,-3.1887,-3.4064,-3.6707,-4.0194,-4.1919,-4.1919,-4.2286,-4.2433,-4.2396,-4.0965,-3.8872,-3.634,-3.5275,0.0,0.0,0.0,0.0,0.0,0.0,0.0,0.0,0.0,0.0,0.0,0.0,0.0,0.0,0.0,0.0,0.0,0.0,0.0,0.0,0.0,0.0,0.0,0.0,0.0,0.0,0.0,0.0,0.0,0.0,0.0,0.0,0.0,0.0,0.0,0.0,0.0,0.0,0.0,-4.2886,-4.4183,-4.5094,-4.3861,-4.2526,0.0,0.0,0.0,0.0,0.0,0.0,0.0,0.0,0.0,-5.4639,-5.4715,-5.5938,-5.8459,-6.0838,-6.2107,-6.2201,-6.4019,-6.4904,-6.4947,-6.4389,-6.4547,-6.5305,-6.53,-6.4958,-6.4237,-6.1033,-5.8728,-5.709,0.0,0.0,0.0,0.0,-5.5527,-5.5701,0.0,0.0,0.0,0.0,0.0,0.0,0.0,0.0,0.0,0.0,0.0,0.0,-3.0745,-3.2497,-3.4154,-3.5625,-3.6186,-3.6269,-3.5747,-3.4104,-3.2859,-3.2279,-3.1293,-3.078,-3.0846,-3.3613,-3.6743,-4.0194,-4.2396,-4.3497,-4.3497,-4.3497,-4.3497,-4.3497,-4.3497,-4.1846,-3.8982,-3.8389,-3.6229,-3.3183,0.0,0.0,0.0,0.0,0.0,0.0,0.0,0.0,0.0,0.0,0.0,0.0,0.0,0.0,0.0,0.0,0.0,0.0,0.0,0.0,0.0,0.0,0.0,0.0,0.0,0.0,0.0,0.0,0.0,0.0,0.0,0.0,0.0,0.0,0.0,0.0,0.0,-4.4357,-4.554,-4.6107,-4.6609,-4.6194,0.0,0.0,0.0,0.0,0.0,0.0,-5.6587,-5.6664,-5.7925,-6.0637,-6.0714,-6.1822,-6.4153,-6.5413,-6.6452,-6.7261,-6.7779,-6.8399,-6.9125,-6.8373,-6.8375,-6.8906,-6.8335,-6.8904,-6.9891,-6.5213,-6.3334,-6.313,-6.0904,-5.9426,-5.8901,-6.1225,-6.1507,-6.1438,0.0,0.0,0.0,0.0,0.0,0.0,0.0,0.0,0.0,0.0,0.0,-3.082,-3.1652,-3.3918,-3.5702,-3.6556,-3.6615,-3.6589,-3.663,-3.4995,-3.4031,-3.4067,-3.2511,-3.1982,-3.265,-3.647,-3.9313,-4.1038,-4.269,-4.3497,-4.3497,-4.3497,-4.3497,-4.3497,-4.3497,-4.3387,-4.3057,-4.0744,-3.9203,-3.8021,-3.4388,0.0,0.0,0.0,0.0,0.0,0.0,0.0,0.0,0.0,0.0,0.0,0.0,0.0,0.0,0.0,0.0,0.0,0.0,0.0,0.0,0.0,0.0,0.0,0.0,0.0,0.0,0.0,0.0,0.0,0.0,0.0,0.0,0.0,0.0,0.0,0.0,0.0,0.0,-4.9082,-5.2373,0.0,0.0,0.0,0.0,-5.6091,-5.632,-5.7504,-5.9988,-6.0141,-6.1669,-6.4993,-6.507,-6.591,-6.763,-6.7706,-6.8139,-6.8777,-6.8815,-6.9165,-6.9853,-6.9778,-6.9778,-6.9816,-6.9778,-7.0346,-7.1066,-6.9205,-6.704,-6.4955,-6.5524,-6.3883,-6.1597,-6.5737,-6.6688,-6.6612,0.0,0.0,0.0,-2.8346,-2.7863,-2.7511,-2.699,-2.7102,-2.7362,-2.7603,-2.9832,-3.1875,-3.3213,-3.5057,-3.696,-3.8776,-3.8905,-3.8905,-3.8961,-3.6414,-3.5414,-3.6467,-3.392,-3.403,-3.7358,-3.9301,-4.1038,-4.2653,-4.3204,-4.3497,-4.3497,-4.3497,-4.3497,-4.3497,-4.3566,-4.3566,-4.3493,-4.2647,-4.1181,-3.9381,-3.8265,-3.5789,0.0,0.0,0.0,0.0,0.0,0.0,0.0,0.0,0.0,0.0,0.0,0.0,0.0,0.0,0.0,0.0,0.0,0.0,0.0,0.0,0.0,0.0,0.0,0.0,0.0,0.0,0.0,0.0,0.0,0.0,0.0,0.0,0.0,0.0,0.0,0.0,0.0,-5.329,-5.5325,0.0,-5.4944,-5.6816,-5.9071,-6.1325,-6.2968,-6.4726,-6.6713,-6.6827,-6.763,-6.9387,-6.9464,-6.9999,-7.1183,-7.1718,-7.2066,-7.2303,-7.1665,-7.1443,-7.1635,-7.046,-7.0157,-7.0649,-7.0157,-7.0726,-7.194,-7.0839,-6.9887,-6.9163,-6.9429,-6.8821,-6.7911,-6.9431,-7.0079,-7.0573,0.0,-3.0745,0.0,-2.8738,-2.8292,-2.8012,-2.7771,-2.8217,-2.8738,-2.9275,-3.1504,-3.3547,-3.4884,-3.6727,-3.8517,-4.0111,-4.0489,-4.0637,-4.0667,-3.7886,-3.67,-3.7802,-3.5736,-3.6287,-3.9976,-4.1025,-4.2173,-4.3532,-4.3532,-4.3566,-4.36,-4.3566,-4.3566,-4.36,-4.36,-4.3634,-4.3667,-4.3795,-4.2839,-4.1235,-4.1101,-3.9126,-3.6298,0.0,0.0,0.0,0.0,0.0,0.0,0.0,0.0,0.0,0.0,0.0,0.0,0.0,0.0,0.0,0.0,0.0,0.0,0.0,0.0,0.0,0.0,0.0,0.0,0.0,0.0,0.0,0.0,0.0,0.0,0.0,0.0,0.0,0.0,0.0,-5.6965,-5.5938,-5.871,-6.0199,-5.888,-6.1554,-6.4191,-6.6139,-6.8088,-6.9655,-7.0763,-7.1107,-7.1527,-7.21,-7.2138,-7.2406,-7.2979,-7.3246,-7.3628,-7.4167,-7.2846,-7.2545,-7.3041,-7.1447,-7.118,-7.1938,-7.175,-7.2281,-7.3227,-7.3344,-7.308,-7.251,-7.194,-7.2054,-7.251,-7.251,-7.285,-7.3227,-3.0597,-2.9965,-2.9407,-2.9407,-2.87,-2.844,-2.9258,-2.9407,-3.0002,-3.1578,-3.3956,-3.5813,-3.663,-3.8934,-4.042,-4.0457,-4.12,-4.1646,-4.1646,-3.9268,-3.7894,-3.7894,-3.796,-3.8691,-4.0191,-4.1678,-4.2824,-4.3634,-4.3634,-4.3667,-4.3804,-4.3667,-4.3667,-4.3804,-4.3667,-4.3701,-4.3874,-4.4199,-4.4177,-4.3828,-4.2667,-4.1569,-4.0465,0.0,0.0,0.0,0.0,0.0,0.0,0.0,0.0,0.0,0.0,0.0,0.0,0.0,0.0,0.0,0.0,0.0,0.0,0.0,0.0,0.0,0.0,0.0,0.0,0.0,0.0,0.0,0.0,0.0,0.0,0.0,0.0,0.0,-5.4814,-5.7167,-5.872,-5.716,-6.2777,-6.5834,-6.3388,-6.6827,-6.9578,-7.0381,-7.1221,-7.1718,-7.1718,-7.252,-7.3017,-7.3055,-7.3055,-7.3055,-7.3055,-7.2215,-7.2601,-7.4099,-7.2353,-7.2356,-7.3839,-7.2926,-7.2886,-7.372,-7.4553,-7.4895,-7.5046,-7.6638,-7.6373,-7.4743,-7.3151,-7.3492,-7.4932,-7.4932,-7.4932,-7.4705,-3.0485,-2.9965,-2.9407,-2.9407,-2.9221,-2.9109,-2.937,-2.989,-3.0634,-3.1652,-3.3956,-3.6036,-3.7411,-3.9268,-4.0866,-4.2054,-4.2352,-4.2463,-4.2463,-3.9602,-3.7894,-3.7894,-4.0667,-4.2421,-4.2865,-4.3213,-4.3513,-4.3771,-4.3771,-4.3771,-4.3804,-4.3771,-4.3771,-4.3804,-4.38,-4.4289,-4.5088,-4.5236,-4.5717,-4.6221,-4.4858,-4.3361,-4.1942,0.0,0.0,0.0,0.0,0.0,0.0,0.0,0.0,0.0,0.0,0.0,0.0,0.0,0.0,0.0,0.0,0.0,0.0,0.0,0.0,0.0,0.0,0.0,0.0,0.0,0.0,0.0,0.0,0.0,0.0,0.0,0.0,-6.0729,-6.0327,-6.3175,-6.5378,-6.5588,-6.7267,-6.8406,-6.8356,-6.9387,-7.0419,-7.1259,-7.1565,-7.1985,-7.2597,-7.2864,-7.3284,-7.3858,-7.3858,-7.3858,-7.3858,-7.424,-7.4698,-7.5122,-7.4446,-7.4714,-7.5665,-7.4672,-7.4326,-7.4553,-7.4819,-7.4895,-7.4932,-7.5387,-7.5311,-7.4932,-7.5046,-7.5349,-7.569,-7.5122,-7.5274,-7.569,-3.0002,-2.9741,-2.9407,-2.9407,-2.9407,-2.9407,-2.9407,-3.0373,-3.1526,-3.2655,-3.4661,-3.6742,-3.8711,-4.0123,-4.1423,-4.2686,-4.3095,-4.2872,-4.1869,-3.9677,-3.8859,-3.99,-4.218,-4.3595,-4.3897,-4.3832,-4.3869,-4.3869,-4.3869,-4.4017,-4.442,-4.435,-4.4535,-4.4901,-4.4934,-4.5382,-4.6157,-4.6327,-4.6796,-4.741,-4.6717,-4.5701,-4.4717,-4.4997,-4.432,-4.3129,-4.259,-4.1992,-4.1316,-4.0816,0.0,0.0,0.0,0.0,0.0,0.0,0.0,0.0,0.0,0.0,0.0,0.0,0.0,0.0,0.0,0.0,0.0,0.0,0.0,0.0,0.0,0.0,0.0,0.0,-6.2292,-6.5765,-6.6227,-6.7372,-6.851,-6.9447,-6.9599,-6.9976,-7.0877,-7.0954,-7.1298,-7.2176,-7.2559,-7.2979,-7.3476,-7.3858,-7.424,-7.4736,-7.4393,-7.4393,-7.4736,-7.4889,-7.531,-7.5997,-7.551,-7.5703,-7.6465,-7.5436,-7.5205,0.0,-7.5888,-7.6268,-7.6648,-7.7331,-7.7635,0.0,0.0,0.0,0.0,0.0,-7.6834,-7.7176,-2.9407,-2.9407,-2.9407,-2.9407,-2.9407,-2.9407,-2.9407,-3.0782,-3.2358,-3.3993,-3.5665,-3.7671,-4.0234,-4.1163,-4.1943,-4.2872,-4.3578,-4.302,-4.068,-3.99,-4.0457,-4.2575,-4.2835,-4.325,-4.3897,-4.3897,-4.3934,-4.4045,-4.4045,-4.4554,-4.5435,-4.5333,-4.5704,-4.6513,-4.6405,-4.6632,-4.7099,-4.7375,-4.7691,-4.8056,-4.8279,-4.8125,-4.775,-4.801,-4.7663,-4.7048,-4.7048,-4.6047,-4.4739,-4.4739,0.0,0.0,0.0,0.0,0.0,0.0,0.0,0.0,0.0,0.0,0.0,0.0,0.0,0.0,0.0,0.0,0.0,0.0,0.0,0.0,0.0,0.0,0.0,0.0,-6.8935,-7.1799,-7.1553,-7.038,-6.9733,-7.0366,-7.0514,-7.093,-7.1723,-7.1833,-7.2215,-7.3055,-7.3781,-7.4201,-7.4201,0.0,0.0,0.0,0.0,-7.4813,-7.5768,-7.5119,-7.5577,-7.7105,-7.6271,-7.6387,-7.7264,-7.6313,-7.6313,-7.715,-7.7911,-7.8673,-7.951,-8.0956,-8.1527,-8.1109,-7.7293,-7.668,-7.8083,-7.8887,-7.9233,-7.9122,-2.9518,-2.9407,-2.9407,-2.9407,-2.9407,-2.9407,-2.9407,-3.0782,-3.2358,-3.3993,-3.5665,-3.7894,-4.1014,-4.1497,-4.2203,-4.3652,-4.3912,-4.3243,-4.146,-4.1832,-4.2017,-4.1832,-4.3095,-4.3838,-4.3992,-4.3992,-4.4326,-4.5032,-4.5032,-4.5472,-4.6252,-4.6252,-4.6327,-4.6513,-4.6688,-4.7325,-4.8299,-4.8552,-4.9226,-5.0124,-5.0183,-4.9337,-4.803,-4.8068,-4.8009,-4.7855,-4.7855,-4.7663,-4.7355,-4.7355,-4.6817,-4.6009,-4.5124,-4.4278,0.0,0.0,0.0,0.0,0.0,0.0,0.0,0.0,0.0,0.0,0.0,0.0,0.0,0.0,0.0,0.0,0.0,0.0,0.0,-6.4231,-6.9145,-7.2677,-7.2467,-7.3306,-7.3231,-7.133,-7.1819,-7.2348,-7.2503,-7.2681,-7.3059,-7.383,-7.4091,-7.4201,-7.4201,-7.4354,0.0,-7.5462,-7.5348,-7.5959,-7.7487,-7.8061,-7.8787,-7.9742,0.0,0.0,-8.1492,-8.0576,-8.0611,-8.1326,-8.16,-8.1794,-8.1984,-8.2288,-8.2019,-8.1326,-8.1216,-8.1288,-8.1507,-8.174,-8.1863,-8.179,-3.0076,-3.0002,-2.989,-2.9481,-2.9407,-2.9407,-2.9407,-3.0782,-3.2358,-3.3993,-3.5999,-3.8228,-4.0717,-4.0606,-4.068,-4.1497,-4.1163,-4.1311,-4.2129,-4.2203,-4.2389,-4.276,-4.3578,-4.3986,-4.3986,-4.3986,-4.4432,-4.5287,-4.5287,-4.5918,-4.7107,-4.7107,-4.733,-4.7701,-4.8022,-4.8541,-4.9224,-4.9501,-5.0057,-5.0702,-5.0702,-5.0164,-4.9394,-4.9394,-4.9394,-4.9394,-4.9394,-4.9394,-4.9394,-4.9394,-4.9125,-4.874,-4.8279,-4.724,-4.5855,0.0,0.0,0.0,0.0,0.0,0.0,0.0,0.0,0.0,0.0,0.0,0.0,0.0,0.0,-5.7873,-6.0737,0.0,-6.6688,-6.9557,-7.2893,-7.5085,-7.4847,-7.5812,-7.5703,-7.3421,-7.3231,-7.3458,-7.3915,-7.3646,-7.3794,-7.4633,-7.4707,-7.4934,-7.5424,-7.5462,-7.6036,-7.7335,-7.6991,-7.7564,-7.9245,-7.9665,-8.0315,-8.1156,-8.1461,-8.203,-8.279,-8.2371,-8.233,-8.2669,-8.2332,-8.2371,-8.2868,-8.3328,-8.3211,-8.2828,-8.3447,-8.272,-8.1413,-8.1413,-8.1534,-8.1576,-3.0857,-3.0857,-3.0522,-2.9593,-2.9407,-2.9407,-2.9407,-3.0634,-3.2135,-3.377,-3.585,-3.7819,-3.9491,-3.9045,-3.8748,-3.9082,-3.8674,-3.964,-4.2612,-4.2352,-4.2649,-4.3949,-4.3986,-4.3986,-4.3986,-4.3986,-4.4432,-4.5287,-4.5287,-4.6104,-4.7701,-4.7701,-4.8144,-4.8993,-4.9315,-4.9646,-4.991,-5.0159,-5.0462,-5.0702,-5.0702,-5.0702,-5.0702,-5.0702,-5.0702,-5.0702,-5.0702,-5.0702,-5.0702,-5.0702,-5.0702,-5.0702,-5.0702,-4.974,-4.8394,-4.7432,-4.7971,0.0,0.0,0.0,0.0,0.0,0.0,0.0,0.0,-5.2818,-5.3587,-5.8858,-6.0512,-6.2233,-6.6392,-6.8625,-7.1151,-7.5134,-7.6916,-7.7724,-7.7527,-7.8049,-7.7871,-7.6274,-7.517,-7.4828,-7.5551,-7.5057,-7.4941,-7.5436,-7.5701,-7.6079,-7.6649,-7.6876,-7.7755,-7.9474,-7.8863,-7.936,-8.1232,-8.1079,-8.1423,-8.2302,-8.2568,-8.2758,-8.2949,-8.2988,-8.3064,-8.3179,-8.2645,-8.2797,-8.3486,-8.3907,-8.4098,-8.406,-8.3905,-8.2414,-8.0431,-8.0736,-8.0964,-8.1147,-3.1801,-3.1652,-3.1169,-2.9667,-2.9407,-2.9407,-2.9407,-3.015,-3.1318,-3.2915,-3.3993,-3.5256,-3.6928,-3.7039,-3.7522,-3.8971,-3.9714,-4.0866,-4.2686,-4.3392,-4.3801,-4.3986,-4.3986,-4.3986,-4.3986,-4.3986,-4.4432,-4.5287,-4.5287,-4.6104,-4.7701,-4.7701,-4.8278,-4.9352,-4.9608,-4.991,-5.0183,-5.0504,-5.0682,-5.0702,-5.0702,-5.0702,-5.0702,-5.0702,-5.0702,-5.0702,-5.0702,-5.0702,-5.0702,-5.0702,-5.0702,-5.0702,-5.0702,-5.0548,-5.0087,-4.8432,-4.7586,-4.6894,-4.5663,-4.8163,-5.1933,-5.5318,-5.5549,-5.7357,0.0,-6.5013,-6.3397,-6.9283,-7.0591,-7.1052,-7.2371,-7.4014,-7.5322,-7.587,-7.7977,-7.9453,-7.9254,-7.9915,-8.0343,-7.9934,-7.8255,-7.7103,-7.7135,-7.7379,-7.715,-7.6234,-7.7186,-7.7447,-7.6653,-7.7413,-7.8634,-8.0315,-8.0277,-8.1385,-8.383,-8.3104,-8.3142,-8.3983,-8.2645,-8.2377,-8.2989,-8.314,-8.3598,-8.4251,-8.5014,-8.5396,-8.5359,-8.3829,-8.3293,-8.3141,-8.1574,-8.0846,-8.0915,-8.2298,-8.2871,-8.2981,-3.247,-3.1727,-3.0894,-3.0225,-2.9704,-2.9407,-2.9407,-3.0076,-3.0984,-3.2135,-3.3398,-3.4476,-3.5182,-3.481,-3.4996,-3.6147,-3.7894,-3.9825,-4.1943,-4.328,-4.3986,-4.3986,-4.3986,-4.3986,-4.3986,-4.3986,-4.4432,-4.5287,-4.5401,-4.5998,-4.6995,-4.7342,-4.7905,-4.8657,-4.911,-4.963,-5.0206,-5.0584,-5.0702,-5.0702,-5.0702,-5.0702,-5.0702,-5.0702,-5.0702,-5.0702,-5.0702,-5.0356,0.0,-5.051,-5.0356,-5.001,-5.0548,-5.0356,-4.9779,-4.9086,-4.9663,-5.1471,-5.5549,-5.5895,-5.6126,-6.0358,-6.1166,-6.2012,-6.6244,-6.5974,-6.6359,-7.1822,-7.3745,-7.4668,-7.5553,-7.6669,-7.763,0.0,-7.9131,-7.9946,-8.0382,-8.063,-8.0758,-8.0688,-7.9819,-7.9057,-7.8522,-7.8178,-7.7795,-7.7377,-7.8285,-7.8891,-7.9048,-7.9427,-8.0384,-8.2032,-8.1499,-8.192,-8.3484,-8.3103,-8.3103,-8.3484,-8.3333,-8.3448,-8.3754,-8.3868,-8.3828,-8.3676,-8.4594,-8.4939,-8.4787,-8.4248,-8.3673,-8.3211,-8.2553,-8.1776,-8.1042,-8.1598,-8.1862,-8.2002,-3.2247,-3.1392,-3.0522,-3.0336,-2.9779,-2.9407,-2.9407,-2.989,-3.0559,-3.1377,-3.247,-3.3213,-3.3213,-3.247,-3.2507,-3.377,-3.6147,-3.8599,-4.1089,-4.2983,-4.3986,-4.3986,-4.3986,-4.3986,-4.3986,-4.3986,-4.4321,-4.4952,-4.5177,-4.5619,-4.6265,-4.6732,-4.7311,-4.8022,-4.8452,-4.9121,-5.0013,-5.0258,-5.0471,-5.0702,-5.0702,-5.0702,-5.0702,-5.0702,-5.0548,-5.0317,-5.0317,-4.9933,-4.9433,-4.9586,-4.9394,-4.9125,-4.951,-4.9356,-4.9086,-4.9317,-5.0702,-5.3472,-5.9473,-5.9896,-5.9588,-6.3589,-6.5667,-6.6705,-6.6705,-6.7552,-6.936,-7.3091,-7.5168,-7.6553,-7.7169,-7.813,-7.9054,-7.9708,-8.0015,-8.04,-8.1016,-8.0997,-8.086,-8.086,-8.0758,-8.042,-7.9807,-7.8933,-7.8321,-7.8053,-7.9118,-8.0183,-8.1065,-8.1598,-8.2483,-8.3866,-8.3218,-8.299,-8.3372,-8.3333,-8.3218,-8.3028,-8.3678,-8.406,-8.4097,-8.4401,-8.4284,-8.3939,-8.4588,-8.4669,-8.4402,-8.4356,-8.3815,-8.3043,-8.2945,-8.217,-8.1131,-8.1195,-8.1189,-8.1131,-3.082,-3.0634,-3.0373,-2.9593,-2.9407,-2.9407,-2.9407,-2.9407,-2.9741,-3.0522,-3.0671,-3.0708,-3.0708,-3.0002,-3.0485,-3.2804,-3.5293,-3.7782,-4.0271,-4.2686,-4.3986,-4.3986,-4.3986,-4.3986,-4.3986,-4.3986,-4.4023,-4.4023,-4.4317,-4.4834,-4.5631,-4.5897,-4.6643,-4.7716,-4.7739,-4.8388,-4.9433,-4.9433,-4.9933,-5.0702,-5.0702,-5.0702,-5.0702,-5.0702,-5.0164,-4.9433,-4.9433,-4.9433,-4.9163,-4.7548,-4.7509,-4.8009,-4.724,-4.7548,-4.8317,-4.9163,-4.9433,-4.9933,-5.1779,-5.5818,-6.0281,-6.3743,-6.8321,-7.1975,-7.1975,-7.3245,-7.4476,-7.463,-7.6053,-7.7284,-7.7284,-7.8669,-7.9785,-7.9823,-8.0516,-8.1054,-8.1093,-8.1093,-8.1093,-8.1093,-8.1093,-8.1093,0.0,-8.0087,-7.9003,-7.7984,-7.9723,-8.1167,-8.1837,-8.3518,-8.4857,-8.57,-8.57,-8.5317,-8.4552,-8.4441,-8.402,-8.3285,-8.3323,-8.3397,-8.3538,-8.445,-8.5324,-8.6017,-8.6055,-8.5599,-8.4791,-8.3978,-8.3131,-8.2247,-8.1477,-8.1131,-8.1208,-8.1977,-8.1747,-8.1208,-3.2135,-3.134,-3.0708,-3.0946,-3.0113,-2.9407,-2.9407,-2.9407,-2.9518,-2.9779,-2.9816,0.0,0.0,0.0,0.0,0.0,-3.5256,-3.7745,-4.0234,-4.2166,-4.3429,-4.3986,-4.3986,-4.3986,-4.3986,-4.3986,-4.3986,-4.3986,-4.4279,-4.4449,-4.4543,-4.5192,-4.5887,-4.6654,-4.7006,-4.7665,-4.8548,-4.8548,-4.9048,-4.9817,-4.9817,-5.0164,-5.0702,-5.0702,-4.9779,-4.8471,0.0,-4.7355,-4.6894,-4.6894,-4.6317,-4.574,-4.6624,-4.6701,-4.6701,-4.8125,-5.0125,-5.2779,-5.6742,-6.0704,-6.482,-6.936,-7.2206,-7.4014,-7.4591,-7.5168,-7.5861,-7.6976,-7.5938,-7.4938,-7.5476,-7.6515,-7.7092,-7.6515,-7.9054,-8.1093,-8.1093,-8.1093,-8.1093,-8.1093,-8.1093,0.0,0.0,0.0,0.0,-8.0778,-8.1458,-8.2413,-8.3807,-8.4494,-8.4882,-8.5078,-8.4471,-8.3977,-8.3673,-8.3637,-8.3483,-8.3252,-8.3895,-8.4306,-8.4484,-8.5324,-8.5247,-8.4478,-8.5055,-8.4824,-8.4016,-8.3708,-8.3093,-8.2324,-8.2631,-8.2747,-8.2862,-8.3708,-8.4209,-8.4401,-3.2581,-3.2172,-3.1949,-3.2172,-3.1154,0.0,0.0,0.0,0.0,0.0,0.0,0.0,0.0,0.0,0.0,0.0,0.0,-3.6593,-3.8525,-4.0717,-4.2277,-4.3095,-4.2872,-4.2983,-4.354,-4.302,-4.3132,-4.3986,-4.398,-4.4186,-4.458,-4.4889,-4.527,-4.5659,-4.6105,-4.6743,-4.753,-4.7626,-4.8509,-4.9817,-4.9202,-4.9471,-5.0164,-4.9548,-4.824,0.0,-4.5817,-4.497,-4.4278,-4.4547,-4.4085,-4.3585,-4.4739,-4.574,-4.6894,-4.8856,-5.1664,-5.5395,-6.1435,-6.4897,-6.8013,-7.3129,-7.5014,-7.5707,-7.5938,-7.6938,-7.7861,-7.8054,-7.6092,-7.4361,-7.4284,-7.4976,-7.4861,-7.2783,-7.6284,-7.9169,-7.8861,-7.9092,-7.9746,-8.0939,-8.1093,-8.09,0.0,0.0,0.0,-8.1785,-8.2439,-8.3401,-8.4824,-8.517,-8.5291,-8.5185,-8.4613,-8.4122,-8.3819,-8.409,-8.4169,-8.4207,-8.4848,-8.5258,-8.5363,-8.5555,-8.5247,-8.4478,-8.4439,-8.4478,-8.4439,-8.3862,-8.3439,-8.3285,-8.3862,-8.4055,-8.417,-8.5016,-8.6055,-8.6901,-3.221,-3.3138,-3.3956,0.0,0.0,0.0,0.0,0.0,0.0,0.0,0.0,0.0,0.0,0.0,0.0,0.0,0.0,0.0,-3.5442,-3.8451,-4.0568,-4.1423,-4.0791,-4.1089,-4.2649,-4.1229,-4.1601,-4.3906,-4.3446,-4.3998,-4.55,-4.5016,-4.4825,-4.4825,-4.5115,-4.5681,-4.6466,-4.6743,-4.824,-5.0279,-4.8625,-4.8471,-4.9009,-4.7432,-4.574,-4.4124,-4.3355,-4.247,-4.1585,-4.0854,-4.1354,-4.2277,-4.247,-4.5278,-4.9048,-5.1548,-5.4126,-5.778,-6.5166,-6.7936,-6.9898,-7.4899,-7.6784,-7.7207,-7.6438,-7.8784,-8.0362,-7.7707,-7.6322,-7.5053,-7.3206,-7.3707,-7.3053,-6.9013,-7.2783,-7.5976,-7.513,-7.5745,-7.7476,0.0,-8.1093,-8.1093,-8.1093,0.0,0.0,-8.1246,0.0,-8.3978,-8.4901,-8.5709,-8.6094,-8.6094,-8.6094,-8.5747,-8.4978,-8.5681,-8.5996,-8.5996,-8.606,-8.6094,-8.6055,-8.5324,-8.5401,-8.6017,-8.4401,-8.4632,-8.5978,-8.4362,-8.4209,-8.4978,-8.5016,-8.5055,-8.5209,-8.6017,-8.7363,-8.8743,0.0,0.0,0.0,0.0,0.0,0.0,0.0,0.0,0.0,0.0,0.0,0.0,0.0,0.0,0.0,0.0,0.0,0.0,-3.5404,-3.6853,-3.8265,-3.9677,-4.016,-4.0568,-4.0977,-4.1353,-4.1809,-4.2445,-4.3114,-4.3617,-4.4071,-4.4753,-4.5115,-4.5115,-4.5381,-4.5629,-4.584,-4.5914,-4.6317,-4.6855,-4.6432,-4.6355,-4.6509,-4.6086,-4.4893,-4.3393,-4.3162,-4.1739,-4.02,-4.1854,-4.5124,-4.8856,-5.1356,-5.3318,-5.5088,-5.7011,-5.9819,-6.3166,-6.7013,-7.0552,-7.386,-7.7053,-7.8515,-7.9285,-7.9708,-8.0477,-8.0015,-7.6169,-7.2668,-6.9052,-6.482,-6.7321,-6.9436,-6.7705,-7.4399,0.0,-7.9515,-7.9669,-8.0131,-8.1016,-8.1093,-8.1093,-8.1093,-8.2208,0.0,0.0,-8.3362,-8.4247,-8.5709,-8.5978,-8.6094,-8.6094,-8.6094,-8.6017,-8.5786,-8.5983,-8.606,-8.606,-8.6094,-8.6094,-8.6094,-8.5901,-8.5901,-8.6094,-8.5632,-8.5709,-8.6055,-8.5632,-8.5593,-8.5863,-8.6517,-8.7171,-8.7825,-8.8632,-8.9723,-9.075,0.0,0.0,0.0,0.0,0.0,0.0,0.0,0.0,0.0,0.0,0.0,0.0,0.0,0.0,0.0,0.0,0.0,0.0,0.0,-3.5962,-3.7299,-3.7522,-3.8339,-3.8785,-3.8785,-3.8611,-3.9063,-4.0147,-4.0478,-4.1203,-4.2297,-4.2633,-4.2781,-4.2781,-4.3063,-4.3194,-4.3194,-4.3321,-4.3778,0.0,0.0,-4.4162,-4.447,-4.4085,-4.3124,-4.197,-4.197,-4.247,-4.3662,-4.6971,-5.001,-5.2741,-5.5011,-5.678,-5.8588,-6.1012,-6.3628,-6.6436,-6.9744,-7.3168,-7.6284,-7.8054,-7.9438,-7.9823,-7.7669,-7.7746,-7.6746,-7.1398,-6.7475,-6.4089,-6.0819,-6.4397,-6.7051,-6.4705,-7.2514,-7.8861,-7.8861,-7.8861,-7.9554,-8.14,-8.1323,-8.1246,-8.1593,-8.2824,-8.3747,0.0,-8.417,-8.4747,-8.6017,-8.5786,-8.5747,-8.6094,-8.6094,-8.6094,-8.6094,-8.6094,-8.6094,-8.6094,-8.6094,-8.6094,-8.6094,-8.5747,-8.5978,-8.6632,0.0,-8.6401,-8.7709,-8.6978,-8.7094,-8.7825,-8.8325,-8.8786,-8.9321,-8.9877,-9.0681,-9.1434,0.0,0.0,0.0,0.0,0.0,0.0,0.0,0.0,0.0,-3.0002,-3.0485,-3.082,0.0,0.0,0.0,0.0,0.0,0.0,0.0,0.0,-3.7002,-3.5702,-3.6408,-3.6816,-3.6705,-3.5306,-3.5591,-3.7612,-3.7141,-3.8009,-4.0115,-3.9649,-3.9435,-3.9477,-3.9853,-3.9966,-4.0023,-4.0367,-4.1316,-4.2547,-4.1893,-4.2008,-4.2508,0.0,-4.1162,-4.0508,-4.0623,-4.3855,-4.8779,-5.3049,-5.4934,-5.5742,-5.6973,-5.8973,-6.1473,-6.4551,-6.6474,-6.8475,-7.2437,-7.5284,-7.7361,-7.8246,-7.9823,-7.9554,-7.3707,-7.3514,-7.2514,-6.5397,-6.2089,-6.005,-5.8742,-6.2666,-6.5089,-6.1973,-6.9552,-7.6053,-7.6746,-7.6746,-7.8092,-8.1862,-8.1593,-8.14,-8.2208,-8.3093,-8.3939,-8.4824,-8.4901,-8.5247,-8.6055,-8.544,-8.5401,-8.6094,-8.6094,-8.6094,-8.6094,-8.6094,-8.6094,-8.6094,-8.6094,-8.6094,-8.6094,-8.5401,-8.5978,-8.7478,0.0,0.0,-8.9979,-8.8517,-8.8782,-9.0124,-9.0124,-9.0119,-9.0185,-9.045,-9.0946,-9.145,0.0,0.0,0.0,0.0,0.0,0.0,0.0,0.0,0.0,0.0,-3.2321,-3.1838,0.0,0.0,0.0,0.0,0.0,0.0,0.0,0.0,0.0,-3.6482,-3.7262,-3.7373,-3.6705,-3.6582,-3.64,-3.6175,-3.6285,-3.6635,-3.7259,-3.7791,-3.8146,-3.8323,-3.91,-3.9423,-3.95,-4.02,-4.0277,-4.0008,-4.0508,-4.0431,-4.0008,-4.0508,0.0,0.0,-4.1316,-4.4393,-4.8779,-5.3049,-5.728,-6.1396,-6.5051,-6.6974,-6.8167,-6.9436,-7.0014,-7.0706,-7.2899,-7.4822,-7.6592,-7.813,-7.9823,-7.9746,-7.4476,-7.3514,-7.1168,-6.2243,-5.9511,-5.7588,-5.3895,-5.7396,-6.1743,-6.4551,-7.0591,-7.6399,-8.0592,-8.0631,-8.0746,-8.2131,-8.1593,-8.14,-8.2208,-8.3093,0.0,0.0,0.0,0.0,-8.6055,-8.5978,-8.5978,-8.6094,-8.6094,-8.6094,-8.6094,-8.6094,-8.6094,-8.6094,-8.6094,-8.6094,-8.6094,-8.5978,-8.6824,-8.844,0.0,0.0,-9.0941,-9.0671,-9.0802,-9.1204,-9.1204,-9.1345,-9.1572,-9.1595,-9.1821,-9.216,0.0,0.0,0.0,0.0,0.0,0.0,0.0,-3.2804,-3.377,-3.585,-3.5813,-3.5442,-3.4959,-3.5256,-3.5665,0.0,0.0,0.0,0.0,0.0,0.0,0.0,-3.7225,-3.7336,-3.6073,-3.5739,-3.5362,-3.4988,0.0,-3.4887,-3.4996,-3.5614,-3.5681,-3.5353,-3.5776,-3.5968,-3.6007,-3.6853,-3.7007,-3.6738,-3.8007,-3.8546,-3.87,-3.9546,0.0,0.0,-4.2162,-4.5201,-4.9163,-5.1664,-5.6472,-6.2243,-6.6936,-6.9013,-6.986,-7.0667,-7.0898,-7.1091,-7.1937,-7.4014,-7.6207,-7.7015,-7.9169,-7.8938,-7.0744,-6.8859,-6.609,-5.628,-5.3587,-5.251,-5.0894,-5.4741,-5.8858,-6.0935,-6.8475,-7.5245,-7.8554,-8.0208,-8.1554,-8.2824,-8.1862,-8.1593,-8.2862,-8.3362,-8.4132,0.0,0.0,0.0,-8.6094,-8.6094,-8.6094,-8.6094,-8.6094,-8.6094,-8.6094,-8.6094,-8.6094,-8.6094,-8.6177,-8.6268,-8.6268,-8.6401,-8.7367,-8.8853,-8.8952,0.0,-9.1392,-9.1504,-9.1631,-9.1694,-9.1694,-9.1766,-9.1915,-9.2034,-9.2137,-9.2327,0.0,0.0,0.0,0.0,0.0,0.0,0.0,-3.4773,-3.5962,-3.8599,-3.9342,-3.9082,-3.7634,-3.6928,-3.6705,0.0,0.0,0.0,0.0,0.0,0.0,0.0,0.0,0.0,-3.6036,0.0,0.0,-3.4311,-3.3845,0.0,0.0,0.0,0.0,0.0,-3.3083,-3.3083,-3.2968,-3.4045,-3.4353,0.0,0.0,-3.7392,-3.8123,0.0,0.0,0.0,0.0,-4.547,-4.8548,-5.0164,-5.4241,-5.9473,-6.4397,-6.7167,-6.8783,-6.959,-6.9937,-7.0206,-7.0744,-7.3245,-7.5784,-7.5938,-7.8438,-7.7977,-6.709,-6.4474,-6.1435,-5.1202,-4.8432,-4.8163,-4.9202,-5.2818,-5.6049,-5.7319,-6.4974,-7.2014,-7.5515,-7.8169,-8.0631,-8.3016,-8.2016,-8.1747,-8.3439,-8.3593,0.0,0.0,0.0,0.0,-8.6363,-8.6363,-8.6363,-8.6363,-8.6247,-8.6209,-8.6209,-8.6247,-8.6274,-8.6254,-8.6412,-8.6507,-8.6519,-8.6899,-8.7808,-8.9075,-8.9421,0.0,0.0,-9.1789,-9.1936,-9.1938,-9.1938,-9.1976,-9.207,-9.2197,-9.2249,-9.2417,0.0,0.0,0.0,0.0,0.0,0.0,0.0,-3.663,-3.8711,-4.1943,-4.1757,-4.1014,-4.016,-3.9974,-3.964,0.0,0.0,0.0,0.0,0.0,0.0,0.0,0.0,0.0,0.0,0.0,0.0,-3.4561,-3.398,0.0,0.0,0.0,0.0,0.0,0.0,-3.3622,-3.3006,-3.4661,0.0,0.0,0.0,0.0,0.0,0.0,0.0,0.0,0.0,-4.4432,-4.5393,-4.9356,-5.1087,-5.2356,-5.6703,-6.1281,-6.5243,-6.609,-6.6859,-6.7936,-7.0283,-7.2822,-7.5014,-7.5784,-7.7977,-7.7246,-6.6936,-6.4012,-6.055,-5.0317,-4.7586,-4.7509,-4.9086,-5.0433,-5.301,-5.8396,-6.0781,-6.5243,-7.4668,-7.5592,-7.7053,-8.1862,-8.1631,-8.1747,-8.3439,-8.3593,0.0,0.0,0.0,0.0,0.0,-8.7286,-8.7286,-8.7286,-8.6748,-8.644,-8.644,-8.6632,-8.674,-8.6751,-8.6776,-8.6731,-8.6806,-8.7603,-8.8458,-8.9331,0.0,0.0,0.0,-9.1894,-9.2034,-9.2182,-9.2182,-9.23,-9.2459,-9.2468,-9.2475,-9.2592,0.0,0.0,0.0,0.0,0.0,0.0,-3.8079,-3.8562,-3.9974,-4.3801,-4.3132,-4.2203,-4.1869,-4.0977,-3.9863,-3.8488,0.0,0.0,0.0,0.0,0.0,0.0,0.0,0.0,0.0,0.0,-3.7237,-3.7003,-3.5399,0.0,0.0,0.0,0.0,0.0,0.0,-3.3237,-3.2968,-3.4199,0.0,0.0,0.0,0.0,0.0,0.0,0.0,0.0,0.0,0.0,-4.5316,-4.7048,-4.9009,-5.0741,-5.0856,-5.4049,-5.8704,-6.3666,-6.5705,-6.7051,-7.009,-7.2399,-7.4168,-7.5014,-7.4822,-7.2437,-6.482,-6.0819,-5.6588,-4.8971,-4.6701,-4.6624,-4.8317,-4.8509,-4.951,-5.2856,-5.628,-6.0281,-6.5359,-7.0629,-7.4899,-7.7438,-7.9708,-8.1554,0.0,0.0,0.0,0.0,0.0,0.0,0.0,-8.829,-8.8142,-8.7571,-8.7505,-8.7185,-8.6683,-8.6751,-8.6803,-8.6804,-8.6923,-8.6998,-8.7005,-8.7481,-8.8325,-8.9535,0.0,0.0,0.0,-9.221,-9.2312,-9.2393,-9.2393,-9.2412,-9.2482,-9.2482,-9.2482,-9.26,0.0,0.0,0.0,0.0,0.0,-3.6891,-3.9602,-3.9714,-4.0791,-4.4432,-4.3689,-4.2723,-4.2463,-4.0791,-3.9268,-3.8339,-3.8562,0.0,0.0,0.0,0.0,0.0,0.0,0.0,0.0,0.0,-3.8271,-3.8307,-3.7063,-3.6151,0.0,0.0,-3.4468,-3.366,0.0,0.0,0.0,0.0,0.0,0.0,0.0,0.0,0.0,0.0,0.0,0.0,0.0,0.0,0.0,0.0,0.0,-4.8856,-4.7086,-4.874,-5.2741,-5.9896,-6.3128,-6.5166,-6.8783,-7.1398,-7.336,-7.4437,-7.2629,-6.9052,-6.3397,-5.8781,-5.3933,-4.7778,-4.6009,-4.6047,-4.7471,-4.7471,-4.7817,-4.951,-5.301,-5.6511,-5.9473,-6.559,-7.0514,-7.2591,-7.5515,-7.8169,0.0,0.0,0.0,0.0,0.0,0.0,0.0,-8.8808,-8.8778,-8.8118,-8.8166,-8.7752,-8.6877,-8.6957,-8.6969,-8.6961,-8.7142,-8.7196,-8.7192,-8.7885,-8.8743,-8.9766,0.0,0.0,0.0,-9.242,-9.2482,-9.2482,-9.2482,-9.2482,-9.2482,-9.2482,-9.2482,-9.26,0.0,0.0,0.0,0.0,0.0,0.0,-3.8599,-3.9825,-4.1237,-4.3689,-4.3318,-4.25,-4.1683,-3.9417,-3.8228,-3.9008,-3.8377,0.0,0.0,0.0,0.0,0.0,0.0,0.0,0.0,0.0,-3.9583,-3.7695,-3.8738,-3.8354,-3.6685,-3.6699,-3.6238,-3.5455,0.0,0.0,0.0,0.0,0.0,0.0,0.0,0.0,0.0,0.0,0.0,0.0,0.0,0.0,0.0,0.0,0.0,0.0,0.0,-4.624,-4.8125,-5.4049,-5.8204,-6.1781,-6.5974,-6.9629,-7.2591,-7.4284,-7.2206,-6.8398,-6.3243,-5.8781,-5.378,-4.7009,-4.5586,-4.5855,-4.674,-4.7548,-4.8663,-5.0394,-5.1395,-5.401,-5.9935,-6.0858,-6.282,-6.7859,-6.8513,-7.0514,-7.5592,0.0,0.0,0.0,0.0,0.0,0.0,-8.861,-8.9205,-8.9008,-8.8595,-8.7978,-8.7128,-8.7303,-8.7383,-8.7383,-8.7397,-8.7407,-8.7446,-8.9203,-8.9984,0.0,0.0,0.0,0.0,-9.2482,-9.2482,-9.2482,-9.2482,-9.2482,-9.2482,-9.2482,-9.2482,-9.2482,0.0,0.0,0.0,0.0,0.0,0.0,0.0,-3.8042,-3.8525,-4.042,-3.9937,-3.9565,-3.9863,-3.8191,-3.7634,-3.8971,-3.7856,0.0,0.0,0.0,0.0,0.0,0.0,0.0,0.0,0.0,-3.9054,-3.9621,-3.9415,-3.9277,-3.9277,-3.8123,-3.7123,-3.6315,-3.5738,-3.5353,0.0,0.0,0.0,0.0,0.0,0.0,0.0,0.0,0.0,0.0,0.0,0.0,0.0,0.0,0.0,0.0,0.0,0.0,0.0,-4.9625,-5.3741,-5.7973,-6.105,-6.3128,-6.4397,-6.432,-6.1358,-5.8011,-5.6395,-5.2741,-4.8894,-4.6163,-4.5586,-4.5855,-4.674,-4.6624,-4.7509,-5.0971,-5.1279,-5.2356,-5.5972,-6.1973,-6.6359,-6.7398,-7.3168,-7.7938,0.0,0.0,0.0,0.0,0.0,0.0,0.0,0.0,-8.9143,-8.8351,-8.852,-8.817,-8.7302,-8.7408,-8.7461,-8.7383,-8.7411,-8.7387,-8.7446,-8.8579,0.0,0.0,0.0,0.0,0.0,-9.2482,-9.2482,-9.2482,-9.2482,-9.2482,-9.2482,-9.2482,-9.2482,-9.2482,0.0,0.0,0.0,0.0,0.0,0.0,0.0,-3.7002,-3.7151,-3.8488,-3.7931,-3.791,-3.9069,-3.7231,-3.6833,-3.9151,-3.7604,0.0,0.0,0.0,0.0,0.0,0.0,0.0,0.0,-3.8777,-3.9161,-4.0508,-4.0315,-4.0315,-4.0469,-3.9431,-3.8123,-3.6699,-3.6199,-3.5776,0.0,0.0,0.0,0.0,0.0,0.0,-4.0585,0.0,0.0,0.0,0.0,0.0,0.0,0.0,0.0,0.0,0.0,0.0,0.0,0.0,-5.0125,-5.351,-5.6742,-5.8704,-5.9781,-5.955,-5.6319,-5.3203,-5.3203,-4.9933,-4.6663,-4.5778,-4.5586,-4.5778,-4.6317,-4.624,-4.7048,-5.001,-5.0317,-5.1779,-5.6242,-6.1589,-6.5667,-6.7398,-7.4168,0.0,0.0,0.0,0.0,0.0,0.0,0.0,0.0,0.0,-8.8341,-8.7681,-8.8323,-8.8273,-8.7426,-8.7447,-8.7453,-8.7414,-8.7411,-8.7397,-8.7446,-8.8305,0.0,0.0,0.0,0.0,0.0,-9.2482,-9.2482,-9.2482,-9.2482,-9.2482,-9.2482,-9.2482,-9.2482,-9.2443,0.0,0.0,0.0,0.0,0.0,0.0,0.0,-3.6508,-3.6742,-3.7474,-3.6954,-3.7205,-3.8889,-3.6385,-3.597,-3.9337,0.0,0.0,0.0,0.0,0.0,0.0,0.0,0.0,0.0,-3.92,-3.9623,-4.0508,-4.1431,-4.1508,-4.0777,-4.07,-3.9315,-3.6892,-3.6815,-3.6315,0.0,0.0,0.0,0.0,-3.9046,-3.9854,0.0,0.0,0.0,0.0,0.0,0.0,0.0,0.0,0.0,0.0,0.0,0.0,0.0,0.0,0.0,0.0,0.0,-5.5588,-5.7742,-5.8357,-5.5549,-5.2664,-5.2664,-4.9625,0.0,-4.5778,-4.5586,-4.5624,-4.5663,-4.6317,-4.7163,-4.8202,-4.9009,-5.2164,-5.9842,-6.0704,-6.2666,-6.8282,-7.2657,0.0,0.0,0.0,0.0,0.0,0.0,0.0,0.0,0.0,-8.7128,-8.7117,-8.81,-8.8201,-8.7405,-8.7387,-8.7414,-8.7414,-8.7397,-8.7397,-8.7446,-8.8383,0.0,0.0,0.0,0.0,0.0,-9.2482,-9.2482,-9.2482,-9.2482,-9.2482,-9.2482,-9.2482,-9.2482,-9.2404,0.0,0.0,0.0,0.0,0.0,0.0,0.0,0.0,0.0,0.0,-3.4795,-3.5296,-3.5886,-3.5284,-3.5645,0.0,0.0,0.0,0.0,0.0,0.0,0.0,0.0,0.0,0.0,-3.8315,-3.9008,-4.0508,-4.2047,-4.3008,-4.3393,-4.2777,-4.1123,-3.8661,-3.8007,-3.6892,0.0,0.0,0.0,0.0,-3.9892,-4.0739,0.0,0.0,0.0,0.0,-4.2047,-4.3047,0.0,0.0,0.0,0.0,0.0,0.0,0.0,0.0,-4.4124,-4.4509,-4.5509,0.0,-5.024,-4.9125,-4.8125,-4.7394,0.0,-4.6624,-4.5855,-4.5624,-4.5586,-4.5778,-4.6471,-4.6201,-4.7009,-5.0471,-5.0664,-5.3069,-6.0795,-6.7268,-7.1953,-7.3976,-7.7549,0.0,0.0,0.0,0.0,0.0,0.0,0.0,0.0,0.0,-8.733,-8.7341,-8.7581,-8.7603,-8.742,-8.7451,-8.7496,-8.7496,-8.7436,-8.7414,-8.7446,-8.9008,0.0,0.0,0.0,0.0,-9.2482,-9.2482,-9.2482,-9.2482,-9.2482,-9.2482,-9.2482,-9.2482,-9.2482,-9.2482,0.0,0.0,0.0,0.0,0.0,0.0,0.0,0.0,0.0,0.0,0.0,-3.4831,-3.5019,0.0,0.0,0.0,0.0,0.0,0.0,0.0,0.0,0.0,0.0,0.0,0.0,-3.8007,-3.9008,-4.1085,-4.2431,-4.3508,-4.4278,-4.347,-4.1739,-3.9238,-3.7584,-3.6353,0.0,0.0,0.0,-3.9354,-4.0162,0.0,0.0,0.0,0.0,0.0,-4.1662,-4.2393,0.0,-4.3124,-4.3624,-4.4201,0.0,0.0,0.0,0.0,-4.3085,-4.3085,-4.3085,-4.4701,-4.6124,-4.524,-4.5278,-4.5586,-4.5586,-4.5586,-4.5586,-4.5586,-4.5586,-4.574,-4.6201,-4.8235,-4.9872,-5.0125,-5.4208,-5.9186,-6.4431,-6.972,-7.3779,-7.589,-7.7871,0.0,0.0,0.0,0.0,0.0,0.0,0.0,0.0,0.0,-8.7407,-8.7446,-8.7407,-8.7407,-8.7407,-8.7456,-8.7461,-8.7461,-8.7408,-8.7381,-8.7446,-8.8383,0.0,0.0,0.0,0.0,-9.2482,-9.2482,-9.2482,-9.2482,-9.2482,-9.2482,-9.2482,-9.2482,-9.2482,-9.2443,0.0,0.0,0.0,0.0,0.0,0.0,0.0,0.0,0.0,0.0,0.0,0.0,0.0,0.0,0.0,0.0,0.0,0.0,0.0,0.0,0.0,0.0,0.0,0.0,0.0,0.0,-3.9238,-4.1816,-4.2816,-4.3701,-4.447,-4.3932,-4.2162,-3.9392,-3.6969,-3.5738,0.0,0.0,-3.8392,-3.9354,-3.9892,0.0,0.0,0.0,0.0,0.0,0.0,0.0,0.0,-4.2354,-4.3124,-4.3855,-4.347,0.0,0.0,0.0,0.0,0.0,-4.3047,-4.4162,-4.5068,-4.4316,-4.4855,-4.5547,-4.5432,-4.5509,-4.5586,-4.5586,-4.5586,-4.5911,-4.6814,-5.0735,-5.2893,-5.0159,-5.8722,-6.6651,-6.9176,-7.14,-7.3639,-7.6034,0.0,0.0,0.0,0.0,0.0,0.0,0.0,0.0,0.0,0.0,0.0,-8.7492,-8.7446,-8.7414,-8.742,-8.7456,-8.7461,-8.7422,-8.7416,-8.7397,-8.7407,-8.7525,-8.8383,0.0,0.0,0.0,-9.2326,-9.2443,-9.2482,-9.2482,-9.2482,-9.2482,-9.2482,-9.2482,-9.2404,-9.2209,0.0,0.0,0.0,0.0,0.0,0.0,0.0,0.0,0.0,0.0,0.0,0.0,0.0,0.0,0.0,0.0,0.0,0.0,0.0,0.0,0.0,0.0,0.0,0.0,0.0,0.0,0.0,-4.1816,-4.3355,-4.4547,-4.5393,-4.6047,-4.4162,-4.0239,-3.843,-3.6815,-3.5584,-3.6507,-3.7815,-3.9238,-3.8623,0.0,0.0,0.0,0.0,0.0,0.0,0.0,0.0,-4.0315,-4.0893,-4.1816,-3.9662,0.0,0.0,0.0,0.0,0.0,-4.2701,-4.6262,-4.8548,-4.4338,-4.4432,-4.5393,-4.4662,-4.5047,-4.5586,-4.5586,-4.5586,-4.7216,-5.245,-5.1046,-5.085,-5.6141,-6.3302,-6.9435,-7.2809,-7.7855,-8.0068,-7.6922,0.0,0.0,0.0,0.0,0.0,0.0,0.0,0.0,0.0,0.0,0.0,-8.7405,-8.7459,-8.747,-8.7498,-8.75,-8.75,-8.7461,-8.7416,-8.7397,-8.7446,-8.8149,-8.8657,0.0,0.0,-9.1233,-9.1546,-9.2209,-9.2482,-9.2482,-9.2482,-9.2482,-9.2482,-9.2482,-9.2053,-9.1467,0.0,0.0,0.0,0.0,0.0,0.0,0.0,0.0,0.0,0.0,0.0,0.0,0.0,0.0,0.0,0.0,0.0,0.0,0.0,0.0,0.0,0.0,0.0,0.0,0.0,0.0,0.0,-4.3162,-4.4855,-4.5893,-4.6278,-4.4355,-4.2162,-3.9738,-3.7623,-3.6238,-3.5532,-3.6353,-3.77,-3.9277,0.0,0.0,0.0,0.0,0.0,0.0,0.0,0.0,0.0,0.0,-4.0085,-4.0816,-3.92,0.0,0.0,0.0,0.0,0.0,-4.0816,-4.3705,-4.6493,-4.6509,-5.0257,-5.3819,-5.3469,-5.3778,-5.3466,-5.1111,-5.0646,-5.1499,-5.4312,-5.6276,-6.0526,-6.9899,-7.0001,-7.0494,-7.4967,-7.6364,-7.6855,0.0,0.0,0.0,0.0,0.0,0.0,0.0,0.0,0.0,0.0,0.0,0.0,0.0,-8.7453,-8.7495,-8.75,-8.75,-8.7498,-8.7444,-8.7408,-8.7397,-8.7407,-8.7798,-8.8266,-8.8774,0.0,-9.0843,-9.135,-9.217,-9.2482,-9.2482,-9.2482,-9.2482,-9.2482,-9.2482,-9.2287,-9.2014,0.0,0.0,0.0,0.0,0.0,0.0,0.0,0.0,0.0,0.0,0.0,0.0,0.0,0.0,0.0,0.0,0.0,0.0,0.0,0.0,0.0,0.0,0.0,0.0,0.0,0.0,-4.1931,-4.4893,-4.6624,-4.7394,-4.7086,-4.3201,-4.0739,-3.9469,-3.7123,-3.5968,-3.5815,-3.643,-3.77,-3.9238,0.0,0.0,0.0,0.0,0.0,0.0,0.0,0.0,0.0,0.0,0.0,0.0,0.0,0.0,0.0,-3.8661,-3.8892,-3.9662,-4.0085,-4.2453,-4.5722,-4.9394,-5.3898,-5.8023,-6.03,-6.0148,-5.8982,-5.687,-5.6403,-5.6481,-5.673,-6.1627,-6.8572,-7.7503,-7.4389,-7.2557,-7.7458,0.0,0.0,0.0,0.0,0.0,0.0,0.0,0.0,0.0,0.0,0.0,0.0,0.0,0.0,0.0,-8.7461,-8.75,-8.75,-8.75,-8.7456,-8.7407,-8.7392,-8.7392,-8.7407,-8.7407,-8.7759,-8.8461,-8.9516,-9.0374,-9.1077,-9.2092,-9.2482,-9.2482,-9.2482,-9.2482,-9.2482,-9.2287,-9.2326,-9.26,0.0,0.0,0.0,0.0,0.0,0.0,0.0,0.0,0.0,0.0,0.0,0.0,0.0,0.0,0.0,0.0,0.0,0.0,0.0,0.0,0.0,0.0,0.0,0.0,0.0,-4.3547,-4.4855,-4.6701,-4.8394,-4.8817,-4.7971,-4.5278,-4.2739,-4.0315,-3.8584,-3.7353,-3.6622,-3.6699,-3.77,-3.9161,-3.7546,0.0,0.0,0.0,0.0,0.0,0.0,0.0,0.0,0.0,0.0,0.0,0.0,0.0,-3.9354,-3.9238,-3.9777,-4.0777,-4.2393,-4.6339,-5.0448,-5.2413,-4.9886,-4.918,-5.7899,-5.6911,-5.5458,-5.9993,-6.0939,-6.1195,-6.2084,-6.4578,-6.7052,-6.8655,-7.3091,-7.7636,0.0,0.0,0.0,0.0,0.0,0.0,0.0,0.0,0.0,0.0,0.0,0.0,0.0,0.0,0.0,0.0,0.0,-8.75,-8.75,-8.75,-8.7456,-8.7407,-8.7407,-8.7407,-8.7407,-8.7407,-8.7446,-8.7603,-8.9281,-9.0023,-9.0218,-9.1819,-9.2482,-9.2482,-9.2482,-9.2482,-9.2404,-9.1663,-9.1858,-9.2522,0.0,0.0,0.0,0.0,0.0,0.0,0.0,0.0,0.0,0.0,0.0,0.0,0.0,0.0,0.0,0.0,0.0,0.0,0.0,0.0,0.0,0.0,0.0,-4.0392,-4.2239,-4.4124,-4.5932,-4.7663,-4.8279,-4.8432,-4.8009,-4.3855,-4.1162,-3.9662,-3.743,-3.6546,-3.6699,-3.6699,-3.77,-3.9238,-3.8584,-3.8392,0.0,0.0,0.0,0.0,0.0,0.0,0.0,0.0,-3.7161,-3.7815,-3.6776,-3.7777,-3.9084,-3.8007,-3.8277,-3.9084,-3.9738,-4.4855,-5.0146,-5.0808,-5.0868,-5.3358,-6.3269,-6.4438,-6.3538,-6.3928,-6.5683,-6.6627,-6.4854,-7.0121,-7.4172,-7.2361,-7.7137,0.0,0.0,0.0,0.0,0.0,0.0,0.0,0.0,0.0,0.0,0.0,0.0,0.0,0.0,0.0,0.0,0.0,0.0,-8.75,-8.75,-8.75,-8.7457,-8.7397,-8.7414,-8.7407,-8.7407,-8.7407,-8.7407,-8.7486,-8.8657,-8.9516,-9.0101,-9.1272,-9.2053,-9.2482,-9.2482,-9.2482,-9.2443,-9.217,-9.2248,-9.2678,0.0,0.0,0.0,0.0,0.0,0.0,0.0,0.0,0.0,0.0,0.0,0.0,0.0,0.0,0.0,0.0,0.0,0.0,0.0,0.0,0.0,0.0,0.0,-4.0239,-4.1354,-4.4162,-4.6163,-4.7317,-4.7837,-4.7837,-4.7183,-4.2876,-4.0608,-3.9969,-3.743,-3.6892,-3.7853,-3.7353,-3.7969,-3.9277,-3.9008,-3.8354,0.0,0.0,0.0,0.0,0.0,0.0,0.0,0.0,-3.6469,-3.7161,-3.6815,-3.77,-3.8715,-3.7833,-3.9532,-4.1658,-4.139,-4.5648,-5.0571,-5.2433,-5.3164,-5.6152,-6.6684,-6.7968,-6.7381,-6.8903,-6.979,-6.9634,-6.7576,-7.2684,-7.6581,0.0,0.0,0.0,0.0,0.0,0.0,0.0,0.0,0.0,0.0,0.0,0.0,0.0,0.0,0.0,0.0,0.0,0.0,0.0,0.0,0.0,-8.75,-8.75,-8.7459,-8.7408,-8.7381,-8.7407,-8.7407,-8.7407,-8.7407,-8.7446,-8.8305,-8.9203,-9.0062,-9.0921,-9.178,-9.2482,-9.2482,-9.2482,-9.2522,-9.2795,-9.2912,-9.3146,0.0,0.0,0.0,0.0,0.0,0.0,0.0,0.0,0.0,0.0,0.0,0.0,0.0,0.0,0.0,0.0,0.0,0.0,0.0,0.0,0.0,0.0,0.0,-3.8777,-4.0431,-4.3816,-4.5586,-4.5624,-4.7261,-4.7165,-4.5399,-4.2902,-4.1728,-4.1662,-3.9123,-3.8931,-4.0354,-3.87,-3.8507,-3.92,-3.8354,-3.7469,-3.6699,0.0,0.0,0.0,0.0,0.0,0.0,0.0,-3.6161,-3.593,-3.8469,-3.87,-3.819,-3.9136,-4.4228,-4.9433,-4.8621,-4.9741,-5.2591,-5.8537,-5.629,-5.5553,-6.6681,-6.5361,-6.4687,-7.4954,-7.2938,-6.96,-7.0537,-7.1409,-7.2299,-7.3153,0.0,0.0,0.0,0.0,0.0,0.0,0.0,0.0,0.0,0.0,0.0,0.0,0.0,0.0,0.0,0.0,0.0,0.0,0.0,0.0,-8.75,-8.75,-8.7459,-8.7408,-8.7381,-8.7407,-8.7407,-8.7407,-8.7407,-8.7446,-8.8305,-8.9203,-9.0062,-9.096,-9.178,-9.2482,-9.2482,-9.2482,-9.26,-9.3497,-9.381,-9.4044,0.0,0.0,0.0,0.0,0.0,0.0,0.0,0.0,0.0,0.0,0.0,0.0,0.0,0.0,0.0,0.0,0.0,0.0,-3.416,-3.3853,-3.4237,0.0,0.0,0.0,0.0,0.0,-4.3782,-4.7355,-4.6013,-4.4822,-4.3761,-4.1767,-4.023,-3.9123,-3.8969,-3.8507,-3.7815,-3.7969,-3.8161,-3.843,-3.8708,-3.7963,-3.6772,0.0,0.0,0.0,0.0,0.0,0.0,0.0,0.0,0.0,-3.7189,-3.8268,-3.8993,-3.8714,-4.0519,-4.2413,-4.1577,-4.7921,-5.4523,-5.3315,-5.8741,-6.5256,-6.8574,-6.7663,-6.8046,-7.4726,-7.3992,-7.2015,-7.1675,-7.53,0.0,0.0,0.0,0.0,0.0,0.0,0.0,0.0,0.0,0.0,0.0,0.0,0.0,0.0,0.0,0.0,0.0,0.0,0.0,0.0,0.0,0.0,-8.75,-8.75,-8.7459,-8.7408,-8.7381,-8.7407,-8.7407,-8.7407,-8.7407,-8.7407,-8.7681,-8.8618,-9.0101,-9.1546,-9.2287,-9.2482,-9.2482,-9.2482,-9.26,-9.3497,-9.381,-9.4044,0.0,0.0,0.0,0.0,0.0,0.0,0.0,0.0,0.0,0.0,-3.8777,-3.8238,0.0,0.0,0.0,0.0,0.0,0.0,-3.366,-3.3506,-3.3891,-3.493,-3.6084,-3.743,0.0,-4.0307,-4.2305,-4.5086,-4.3788,-4.279,-4.2052,-4.1327,-4.0636,-4.0046,-4.0585,-4.0046,-3.8738,-3.8569,-3.8285,-3.8016,-3.8546,-3.7945,-3.6829,0.0,0.0,0.0,0.0,0.0,0.0,0.0,0.0,0.0,-3.6678,-3.7405,-3.8421,-4.0735,-4.2735,-4.497,-4.8241,-5.3975,-5.9306,-6.0477,-6.4866,-6.9405,-7.1423,-7.1767,-7.258,-7.606,-7.5709,-7.4825,-7.5032,-7.7713,0.0,0.0,0.0,0.0,0.0,0.0,0.0,0.0,0.0,0.0,0.0,0.0,0.0,0.0,0.0,0.0,0.0,0.0,0.0,0.0,0.0,0.0,-8.7461,-8.75,-8.7459,-8.7408,-8.7407,-8.7386,-8.7393,-8.7401,-8.7407,-8.7446,-8.8149,-8.9047,-9.014,-9.1819,-9.2482,-9.2482,-9.2482,-9.2482,-9.2639,-9.3888,-9.4317,-9.4552,0.0,0.0,0.0,0.0,0.0,0.0,0.0,0.0,0.0,-3.8007,-3.7892,-3.7546,0.0,0.0,0.0,-3.5493,-3.4699,-3.3853,-3.3083,-3.3699,-3.416,-3.4314,-3.5993,-3.8007,-4.0315,-4.1113,-4.1075,-4.0277,-4.0914,-4.0973,-4.0406,-4.12,-4.204,-4.2854,-4.2871,-4.2294,-4.1239,-3.9492,-3.8324,-3.7593,-3.7797,-3.736,-3.6665,-3.7594,0.0,0.0,0.0,0.0,0.0,0.0,0.0,0.0,-3.6703,-3.6479,-3.7094,-4.3448,-4.8035,-5.2968,-6.1593,-6.3672,-6.5429,-7.4095,-7.2573,-7.0147,-7.4757,-7.6497,-7.7335,-7.8116,-7.7777,-7.7887,-7.9515,-7.9182,0.0,0.0,0.0,0.0,0.0,0.0,0.0,0.0,0.0,0.0,0.0,0.0,0.0,0.0,0.0,0.0,0.0,0.0,0.0,0.0,0.0,0.0,-8.7382,-8.7461,-8.7459,0.0,-8.7386,-8.7399,-8.7417,-8.7393,-8.7401,-8.7479,-8.9235,-8.9977,-9.0133,-9.1819,-9.2482,-9.2482,-9.2482,-9.2482,-9.2717,-9.4473,-9.5098,-9.5346,0.0,0.0,0.0,0.0,0.0,0.0,0.0,0.0,-3.7969,-3.7084,-3.6969,-3.6661,-3.5853,-3.5622,0.0,-3.5493,-3.4699,-3.4122,-3.393,-3.3442,-3.3774,-3.5081,-3.741,-3.8939,-3.9546,-3.9692,-3.9346,-3.8546,-3.8575,-3.8958,-3.9569,-4.0351,-4.0811,-4.1062,-4.1123,-3.9918,-3.7771,-3.6134,-3.5317,-3.5201,-3.5858,-3.5665,-3.5007,-3.5781,-3.5472,0.0,0.0,0.0,0.0,0.0,0.0,0.0,-3.6625,-3.7007,-3.7245,-3.8692,-4.3973,-4.9645,-5.1015,-5.8514,-6.6639,-6.9372,-7.2612,-7.5462,-7.6549,-7.6978,-7.7134,-7.7262,-7.8799,-8.0257,0.0,0.0,0.0,0.0,0.0,0.0,0.0,0.0,0.0,0.0,0.0,0.0,0.0,0.0,0.0,0.0,0.0,0.0,0.0,0.0,0.0,0.0,0.0,-8.7392,-8.7414,-8.7414,-8.7405,0.0,-8.7377,-8.7408,-8.7417,-8.736,-8.7321,-8.7438,-8.9155,-8.9935,-9.0052,-9.1787,-9.2498,-9.2498,-9.2514,-9.2482,-9.2717,-9.4473,-9.5118,-9.5333,0.0,0.0,0.0,0.0,0.0,0.0,0.0,0.0,-3.77,-3.6815,-3.6699,-3.6392,-3.5584,-3.5122,0.0,0.0,-3.384,-3.3557,-3.3557,-3.3506,-3.4428,-3.6555,-3.9039,-4.0038,-3.9315,-3.9231,-3.8616,-3.7392,-3.688,-3.7341,-3.867,-3.9523,-4.0169,-4.0569,-4.0655,-3.9262,-3.6787,-3.5493,-3.4961,-3.4972,-3.504,-3.5049,-3.502,-3.5047,-3.4559,-3.3915,-3.4393,0.0,0.0,0.0,0.0,0.0,0.0,0.0,-3.6715,-3.995,-4.3197,-4.7264,-5.4211,-6.0734,-6.6673,-7.1245,-7.4759,-7.7101,-7.7101,-7.7414,-7.772,-7.7667,-7.9118,0.0,0.0,0.0,0.0,0.0,0.0,0.0,0.0,0.0,0.0,0.0,0.0,0.0,0.0,0.0,0.0,0.0,0.0,0.0,0.0,0.0,0.0,0.0,-8.7407,-8.7414,-8.7392,-8.7392,-8.7387,-8.7407,-8.736,-8.7331,-8.7281,-8.7292,-8.7302,-8.7419,-8.9135,-8.9915,-9.0032,-9.1769,-9.2481,-9.249,-9.2507,-9.2489,-9.2702,-9.446,-9.5099,-9.5348,0.0,0.0,0.0,0.0,0.0,0.0,0.0,0.0,0.0,-3.6584,-3.6507,-3.6199,-3.5353,-3.4622,-3.3853,0.0,0.0,0.0,-3.3108,-3.3991,-3.5489,-3.767,-3.9868,-4.0422,-3.9108,-3.8869,-3.8063,-3.6671,-3.5657,-3.6104,-3.7924,-3.8761,-3.9625,-4.0409,-4.0095,-3.8743,-3.6639,-3.534,-3.4865,-3.4923,-3.4334,-3.4474,-3.5018,-3.4386,-3.3746,-3.3239,-3.394,-3.4252,-3.453,-3.5398,0.0,0.0,0.0,0.0,-3.6044,-4.1739,-4.3339,-4.6036,-5.8738,-6.3388,-6.6667,-7.4993,-7.7101,-7.7101,-7.7101,-7.7648,-7.8233,-7.835,0.0,0.0,0.0,0.0,0.0,0.0,0.0,0.0,0.0,0.0,0.0,0.0,0.0,0.0,0.0,0.0,0.0,0.0,0.0,0.0,0.0,0.0,-8.7414,-8.7407,-8.7407,-8.7407,-8.7407,-8.7407,-8.7407,-8.7407,-8.7312,-8.7259,-8.7209,-8.7426,-8.7437,-8.737,-8.8969,-8.9749,-9.0022,-9.1582,-9.2344,-9.2481,-9.2498,-9.2496,-9.2681,-9.4286,-9.4959,-9.5311,0.0,0.0,0.0,0.0,0.0,0.0,0.0,0.0,0.0,0.0,-3.5661,-3.5353,-3.4468,-3.4276,-3.3853,-3.2968,-3.2904,-3.3185,-3.3876,0.0,0.0,-3.6779,-3.7846,-3.8323,-3.8108,-3.7325,-3.6826,-3.6596,-3.5053,-3.557,-3.7973,-3.8182,-3.8749,-3.953,-3.7414,-3.6284,-3.5741,-3.272,-3.1888,-3.2556,-3.245,-3.2488,-3.2566,-3.246,-3.2387,-3.2309,-3.2387,-3.2932,-3.3668,-3.4491,-3.4764,0.0,0.0,0.0,-3.5909,-3.6835,-4.173,-4.7094,-4.8426,-5.7417,-6.8161,-7.5305,-7.7101,-7.7101,-7.7101,-7.7179,-7.7492,0.0,0.0,0.0,0.0,0.0,0.0,0.0,0.0,0.0,0.0,0.0,0.0,0.0,0.0,0.0,0.0,0.0,0.0,0.0,0.0,0.0,0.0,-8.7397,-8.7397,-8.7407,-8.7407,-8.7407,-8.7407,-8.7407,-8.7407,-8.7407,-8.7321,-8.727,-8.7248,-8.8001,-8.7923,-8.7261,-8.8274,-8.9131,-8.9872,-9.0885,-9.1715,-9.2429,-9.2475,-9.2507,-9.2629,-9.359,-9.4452,-9.5223,0.0,0.0,0.0,0.0,0.0,0.0,0.0,0.0,0.0,0.0,0.0,-3.4968,-3.3622,-3.3468,-3.2929,-3.1558,-3.1904,-3.2492,-3.3322,-3.4985,-3.5929,-3.5914,-3.7179,-3.7655,-3.7156,-3.6335,-3.5645,-3.52,-3.3964,-3.4533,-3.6687,-3.6737,-3.7489,-3.8724,-3.6759,-3.5314,-3.4257,-3.1315,-3.0589,-3.1291,-3.0317,-3.2488,-3.5943,-3.2104,-3.3034,-3.5982,-3.3117,-3.2348,-3.2854,-3.4174,-3.4291,-3.4057,-3.4915,0.0,0.0,0.0,-3.8633,-4.407,-5.1419,-6.0339,-6.9054,-7.5501,-7.7101,-7.7101,-7.7101,-7.7101,-7.7218,0.0,0.0,0.0,0.0,0.0,0.0,0.0,0.0,0.0,0.0,0.0,0.0,0.0,0.0,0.0,0.0,0.0,0.0,0.0,0.0,0.0,-8.6611,-8.7118,-8.7381,-8.7407,-8.7393,-8.7393,-8.7393,-8.7393,-8.7386,-8.733,-8.7302,-8.7532,-8.7949,-8.8339,-8.83,-8.7988,-8.9352,-9.017,-9.0599,-9.147,-9.2068,-9.2471,-9.2507,-9.2521,-9.2655,-9.3474,-9.4048,-9.4571,0.0,0.0,0.0,0.0,0.0,0.0,0.0,0.0,0.0,0.0,0.0,-3.4584,-3.3083,0.0,0.0,0.0,-3.0574,-3.1262,-3.2077,-3.3576,-3.451,-3.4726,-3.6144,-3.6527,-3.563,-3.5178,-3.458,-3.381,-3.3133,-3.394,-3.6028,-3.6037,-3.7005,-3.861,-3.6735,-3.5198,-3.3863,-3.1018,-3.0317,-3.1096,-3.0891,-3.4224,-3.9038,-3.5905,-3.7891,-4.1575,-3.6033,-3.4213,-3.4291,-3.3785,-3.3395,-3.32,-3.4057,-3.4291,0.0,0.0,0.0,-4.0588,-5.3097,-5.9787,-6.5072,-7.2885,-7.4993,-7.5501,-7.6789,-7.7101,-7.7101,0.0,0.0,0.0,0.0,0.0,0.0,0.0,0.0,0.0,0.0,0.0,0.0,0.0,0.0,0.0,0.0,0.0,0.0,0.0,0.0,0.0,-8.6073,-8.6912,-8.7407,-8.7407,-8.7393,-8.7386,-8.7417,-8.7369,-8.7477,-8.7643,-8.7621,-8.8065,-8.8845,-8.9079,-8.9196,-8.9235,-9.0326,-9.0911,-9.1197,-9.1847,-9.2249,-9.2495,-9.2514,-9.2531,-9.2651,-9.3263,-9.3595,-9.4005,0.0,0.0,0.0,0.0,0.0,0.0,0.0,0.0,0.0,0.0,0.0,-3.393,-3.3006,-3.2891,-3.1878,-2.9382,-2.9166,-2.9462,-3.0275,-3.1262,-3.2105,-3.2821,-3.3776,0.0,-3.2936,-3.3662,-3.37,-3.2942,-3.2928,-3.4262,-3.6914,-3.7016,-3.7987,-3.9624,-3.7058,-3.585,-3.5538,-3.2187,-3.1252,-3.2382,-3.6288,-3.8104,-3.9232,-4.6247,-4.9136,-4.8591,-4.1799,-3.9941,-3.963,-3.3195,-3.1525,-3.2309,-3.3205,-3.3473,-3.359,0.0,0.0,0.0,-4.6933,-4.9567,-5.2819,-6.5429,-6.9176,-7.1089,-7.5969,0.0,0.0,0.0,0.0,0.0,0.0,0.0,0.0,0.0,0.0,0.0,0.0,0.0,0.0,0.0,0.0,0.0,0.0,0.0,0.0,0.0,0.0,0.0,-8.6041,-8.6939,-8.7407,-8.7407,-8.7407,-8.7393,-8.7417,-8.7351,-8.7721,-8.8545,-8.8518,-8.8974,-8.9858,-9.0677,-9.1066,-9.1028,-9.0287,-9.0443,-9.1197,-9.1232,-9.1734,-9.2482,-9.2482,-9.2498,-9.2499,-9.2546,-9.3107,-9.3927,0.0,0.0,0.0,0.0,0.0,0.0,0.0,0.0,0.0,0.0,0.0,0.0,0.0,-3.2429,-3.1289,-2.9205,-2.8504,-2.8492,-2.9306,-3.024,-3.112,-3.1904,-3.335,-3.398,-3.3618,-3.3442,-3.3234,-3.2971,-3.1321,-3.1903,-3.4544,-3.4591,-3.5878,-3.8032,-3.5967,-3.5071,-3.4759,-3.0239,-2.8797,-3.0,-3.4841,-3.9777,-4.4378,-4.6091,-5.0849,-5.557,-4.7611,-4.3176,-4.0799,-3.885,-3.5109,-3.1408,-3.2304,-3.2582,-3.2854,-3.4262,-3.5675,-3.8419,-4.5928,-4.9176,-5.2498,-6.1017,-6.6288,-6.9879,-7.1753,-7.472,0.0,0.0,0.0,0.0,0.0,0.0,0.0,0.0,0.0,0.0,0.0,0.0,0.0,0.0,0.0,0.0,0.0,0.0,0.0,0.0,0.0,0.0,-8.526,-8.6627,-8.7401,-8.7386,-8.7386,-8.7659,-8.8227,-8.8178,-8.8584,-8.9515,-8.9442,-8.9883,-9.0725,-9.1076,-9.1504,-9.2002,-9.169,-9.1768,-9.2041,-9.2015,-9.2233,-9.2572,-9.2576,-9.2576,-9.2551,-9.2574,-9.2717,-9.3107,0.0,0.0,0.0,0.0,0.0,0.0,0.0,0.0,-3.4507,-3.5391,0.0,0.0,0.0,0.0,-3.097,-2.918,-2.8198,-2.8045,-2.8834,-2.9499,-3.0215,-3.1057,-3.2571,-3.321,-3.2914,-3.2413,-3.2155,-3.2201,-3.0217,-3.0498,-3.283,-3.283,-3.4062,-3.624,-3.3902,-3.3863,-3.5226,-3.1174,-2.9498,-3.0156,-3.765,-4.2159,-4.4845,-4.9253,-5.3575,-5.6583,-5.1156,-4.7384,-4.4968,-4.489,-4.1688,-3.7313,-3.5304,-3.3278,-3.188,-3.3054,-3.4818,-3.7444,-4.2299,-4.5547,-4.9103,-5.5747,-6.0627,-6.4843,-6.8903,-7.226,0.0,0.0,0.0,0.0,0.0,0.0,0.0,0.0,0.0,0.0,0.0,0.0,0.0,0.0,0.0,0.0,0.0,0.0,0.0,0.0,0.0,0.0,-8.481,-8.641,-8.7495,-8.7798,-8.7798,-8.8227,-8.9106,-8.9047,-8.9486,-9.0413,-9.0378,-9.0807,-9.1622,-9.1655,-9.2003,-9.2547,-9.2547,-9.2522,-9.252,-9.252,-9.2541,-9.2617,-9.2617,-9.2611,-9.2619,-9.2606,-9.2561,-9.26,0.0,0.0,0.0,0.0,0.0,0.0,0.0,0.0,-3.4507,-3.5391,0.0,0.0,0.0,0.0,0.0,-2.9181,-2.8224,-2.8083,-2.8848,-2.8964,-2.9372,-3.0263,-3.1222,-3.1317,-3.0559,-3.055,-3.0595,-3.0658,-2.9758,-3.0302,-3.2075,-3.1997,-3.2888,-3.4369,-3.1057,-3.2343,-3.6902,-3.5109,-3.3473,-3.3122,-4.4978,-4.5351,-4.0517,-5.6612,-5.8208,-5.1979,-5.2784,-5.2918,-5.2489,-5.0891,-5.0594,-4.9603,-4.1955,-3.5538,-3.0818,-3.0823,-3.2673,-3.4874,0.0,0.0,0.0,-4.9189,-5.1882,-5.5708,-6.7498,0.0,0.0,0.0,0.0,0.0,0.0,0.0,0.0,0.0,0.0,0.0,0.0,0.0,0.0,0.0,0.0,0.0,0.0,0.0,0.0,0.0,0.0,-8.4755,-8.4805,-8.6405,-8.7692,-8.8589,-8.8687,-8.9106,-8.9933,-8.9922,-9.0381,-9.124,-9.1309,-9.1756,-9.2522,-9.2568,-9.2598,-9.26,-9.26,-9.2615,-9.2617,-9.2617,-9.2617,-9.2617,-9.2617,-9.2615,-9.2599,-9.2613,-9.2561,-9.26,0.0,0.0,0.0,0.0,0.0,-3.5493,-3.5493,-3.4776,-3.4507,0.0,0.0,0.0,-3.2954,-3.1519,-3.0368,-2.9934,-2.9154,-2.8806,-2.9037,-2.9126,-2.9535,-3.0394,-3.1331,-3.1732,-3.1515,-3.1605,-3.1682,-3.166,-2.9552,-2.9445,-3.1135,-2.9888,-3.055,-3.2737,-3.1797,-3.1836,-3.2382,-2.942,-2.9693,-3.2771,-4.0439,-4.5179,-4.8699,-5.7536,-6.2713,-6.5033,0.0,-6.0497,-5.6494,0.0,-5.1083,-4.1136,-3.5889,-3.2655,-3.0901,-3.1543,-3.3154,-3.4882,-3.575,0.0,0.0,0.0,0.0,0.0,0.0,0.0,0.0,0.0,0.0,0.0,0.0,0.0,0.0,0.0,0.0,0.0,0.0,0.0,0.0,0.0,0.0,0.0,0.0,0.0,0.0,0.0,0.0,-8.4113,-8.4766,-8.6395,-8.7721,-8.8648,-8.8685,-8.9398,-9.0898,-9.092,-9.1363,-9.2223,-9.2216,-9.2365,-9.256,-9.257,-9.2609,-9.2599,-9.2599,-9.2609,-9.2617,-9.2617,-9.2617,-9.2617,-9.2617,-9.2615,-9.2599,-9.2613,-9.2561,-9.2522,0.0,0.0,-3.8277,-3.7392,-3.6853,-3.6546,-3.6546,-3.5801,-3.5556,0.0,0.0,0.0,-3.2952,-3.2568,-3.1928,-3.0825,-3.0417,-3.0072,-2.9621,-2.9699,-2.9967,-3.0535,-3.1057,-3.1365,-3.1436,-3.1159,-3.1174,-3.1563,-2.9303,-2.8909,-3.0234,-2.8485,-2.868,-3.0433,-2.9732,-2.9537,-2.9533,-2.6848,-2.7745,-3.1831,-4.1451,-4.5763,-4.7531,-5.7497,-6.1779,0.0,0.0,0.0,-5.9007,-6.4052,-5.5969,-4.3389,-4.0896,-3.6072,-3.1373,-3.1508,-3.3314,-3.535,-3.5868,-3.7864,-4.0093,-4.1342,0.0,0.0,-5.4927,-5.9026,0.0,0.0,0.0,0.0,0.0,0.0,0.0,0.0,0.0,0.0,0.0,0.0,0.0,0.0,0.0,0.0,0.0,0.0,0.0,0.0,-8.2962,-8.4005,-8.5242,-8.6596,-8.7905,-8.9142,-8.9223,-9.0055,-9.1717,-9.1796,-9.207,-9.2539,-9.2578,-9.2617,-9.2617,-9.2617,-9.2617,-9.2617,-9.2617,-9.2617,-9.2617,-9.2617,-9.2617,-9.2617,-9.2617,-9.2615,-9.2599,-9.2613,-9.2561,-9.2482,0.0,0.0,-3.9084,-3.8392,-3.82,-3.8161,-3.8277,-3.7555,-3.7256,0.0,-3.6136,-3.4381,-3.3753,-3.4798,-3.4543,-3.2015,-3.1819,-3.139,-3.0398,-3.0298,-3.0319,-3.0464,-3.0471,-3.0535,-3.0662,-2.9883,-2.9922,-3.0779,-2.8948,-2.8563,-2.9455,-2.7628,-2.7238,-2.7978,-2.642,-2.6537,-2.7823,-2.6537,-2.7662,-3.1515,-4.462,-4.6286,0.0,0.0,-5.8693,-5.4225,-6.2129,-6.288,-6.1206,-6.8229,-6.2624,-5.2485,-5.1044,-4.3194,-3.4062,-3.1781,-3.3973,-3.6985,-3.6215,-3.7864,-4.0171,-4.1732,-4.1654,0.0,-5.6762,-5.8597,0.0,0.0,0.0,0.0,0.0,0.0,0.0,0.0,0.0,0.0,0.0,0.0,0.0,0.0,0.0,0.0,0.0,0.0,0.0,-8.2112,-8.3009,-8.4206,-8.5792,-8.683,-8.8101,-8.969,-8.9896,-9.0664,-9.2124,-9.2434,-9.2533,-9.2383,-9.2533,-9.2567,-9.2567,-9.2533,-9.2535,-9.2535,-9.2535,-9.2535,-9.2535,-9.2535,-9.2572,-9.2567,-9.2577,-9.2574,-9.2551,-9.2567,-9.2561,-9.2482,-3.8815,-3.9084,-3.9431,-3.9931,-3.9469,-3.9262,-3.9922,-3.9253,-3.9007,-3.9802,-3.8887,-3.8367,-3.8939,-3.7454,-3.574,-3.3909,-3.2618,-3.1507,-3.0607,-2.935,-2.8963,-2.9674,-2.9713,-2.9718,-2.9766,-2.9572,-2.9922,-3.0779,-2.8368,-2.7978,-2.9455,-2.7043,-2.6381,-2.7121,-2.6147,-2.5874,-2.6264,-2.7277,-3.0808,-3.6009,-3.9558,-4.4175,-4.9907,-5.8487,-6.3339,-6.5997,-6.9109,-6.8916,-6.6824,-6.4393,-6.2707,-5.9776,-4.9434,-4.7766,-4.743,-3.6192,-3.8263,-4.3027,-3.7507,-3.7864,-3.9897,-4.021,-4.1225,0.0,-4.5558,-4.7549,0.0,0.0,0.0,0.0,0.0,0.0,0.0,0.0,0.0,0.0,0.0,0.0,0.0,0.0,0.0,0.0,0.0,0.0,-8.2123,-8.2112,-8.357,-8.4607,-8.5005,-8.6443,-8.7724,-8.8733,-8.9345,-9.0178,-9.1145,-9.1996,-9.244,-9.2383,-9.2425,-9.2432,-9.2432,-9.226,-9.2195,-9.2195,-9.2195,-9.2195,-9.2195,-9.2195,-9.2293,-9.2459,-9.258,-9.2512,-9.239,-9.2537,-9.2561,-9.2482,-3.8661,-3.9315,-4.0046,-4.0454,-4.0515,-4.0768,-4.1562,-4.0952,-4.0705,-4.1492,-4.1259,-4.0614,-3.943,-3.8208,-3.6466,-3.3896,-3.2656,-3.1424,-3.0069,-2.9274,-2.8831,-2.8831,-2.8831,-2.9065,-2.9494,-2.9494,-2.9922,-3.0779,-2.9065,-2.8641,-2.9455,-2.7316,-2.8359,-3.1855,-2.758,-2.758,-3.0608,-2.8048,-2.9177,-3.3373,-4.1116,0.0,-5.5835,-6.3184,-6.7528,-6.992,-7.1714,-7.2107,-7.1239,-6.7831,-6.3808,0.0,-5.6221,-5.3073,-4.9184,-4.1418,-4.31,-4.5991,-3.9149,-3.8843,-4.0561,-4.0991,-4.1108,0.0,0.0,0.0,-4.8642,0.0,0.0,0.0,0.0,0.0,0.0,0.0,0.0,0.0,0.0,0.0,0.0,0.0,0.0,0.0,0.0,0.0,-8.2089,-8.2128,-8.3308,-8.4211,-8.4687,-8.5846,-8.7091,-8.8351,-8.875,-8.9546,-9.0789,-9.1347,-9.1795,-9.2159,-9.2243,-9.227,-9.2247,-9.2154,-9.211,-9.211,-9.211,-9.211,-9.211,-9.211,-9.213,-9.2158,-9.2303,-9.2526,-9.2773,-9.2409,-9.2614,-9.2908,-3.7954,-3.9185,-4.0284,-4.0482,-4.119,-4.1997,-4.279,-4.2215,-4.1984,-4.2772,-4.3551,-4.3027,-4.037,-4.0466,-3.9441,-3.626,-3.5259,-3.3751,-3.1294,-3.087,-3.0585,-3.02,-2.8914,-2.907,-3.094,-2.9688,-2.9416,-3.0312,-2.926,-2.8836,-2.8987,-2.7394,-2.9718,-3.4996,-2.9917,-3.0263,-3.4374,-2.984,-2.9649,-3.3423,0.0,-5.2222,-5.6146,-6.4947,-6.8423,-6.9026,-7.2327,-7.395,-7.4236,-7.2028,-6.5678,-5.9075,-6.1637,-5.7399,-5.0431,-4.5201,-4.7039,-4.9034,-4.1023,-4.0327,-4.1888,-4.2084,-4.1615,-4.2513,0.0,0.0,0.0,0.0,0.0,0.0,0.0,0.0,0.0,0.0,0.0,0.0,0.0,0.0,0.0,0.0,0.0,0.0,0.0,0.0,-8.0669,-8.2075,-8.164,-8.2273,-8.4473,-8.5311,-8.6438,-8.7952,-8.8145,-8.8919,-9.0428,-9.071,-9.1192,-9.1897,-9.2013,-9.2053,-9.2064,-9.2025,-9.2025,-9.2025,-9.2025,-9.2025,-9.2025,-9.2025,-9.1948,-9.187,-9.2035,-9.2572,-9.3178,-9.2479,-9.2734,-9.3289,-3.7755,-3.8661,-3.9528,-4.0367,-4.127,-4.2125,-4.2887,-4.2377,-4.2228,-4.3051,-4.5819,-4.7588,-4.7262,-4.8579,-4.8761,-4.6996,-4.5346,-4.2421,-3.7676,-3.6009,-3.5827,-3.7253,-3.1486,-3.0745,-3.6201,-3.0317,-2.7628,-2.8485,-2.6926,-2.6498,-2.7199,-2.6264,-2.6649,-2.8286,-3.2732,-3.3044,-3.0468,-3.4291,-4.0396,-4.7735,-5.0174,-4.7439,0.0,-5.559,-6.1223,-6.3612,-7.2225,-7.5353,-7.4847,0.0,-6.831,-6.4958,-5.496,-5.8187,-6.2201,-4.4431,-4.8098,-5.5269,-4.2971,-4.2045,-4.4036,-4.181,-4.3411,-4.4972,-4.2786,0.0,-4.306,-4.3255,0.0,0.0,0.0,0.0,0.0,0.0,0.0,0.0,0.0,0.0,0.0,0.0,0.0,0.0,0.0,0.0,0.0,-8.1557,-7.713,-7.7209,-8.415,-8.5188,-8.599,-8.6919,-8.7615,-8.8389,-8.9356,-9.0207,-9.1058,-9.1887,-9.1914,-9.1926,-9.1909,-9.1793,-9.1754,-9.1754,-9.1754,-9.1754,-9.1754,-9.1754,-9.1754,-9.1754,-9.1956,-9.2461,-9.3129,-9.3,-9.3022,-9.3141,-3.691,-3.7901,-3.8623,-3.9008,-4.024,-4.1454,-4.2223,-4.2974,-4.3595,-4.4017,-4.5324,-4.6057,-4.5638,-4.5366,-4.5327,-4.5667,-4.4578,-4.2097,0.0,0.0,-3.5626,-3.339,-3.0005,-2.9615,-3.2655,-2.942,-2.7823,-2.8212,-2.7004,-2.6576,-2.6887,-2.6069,-2.8281,-3.2978,-3.4987,-3.7663,-4.0626,-4.0318,-4.1363,0.0,0.0,0.0,0.0,-6.0925,-6.8671,-7.0186,-7.4168,-7.5943,-7.6145,0.0,-6.9224,0.0,-6.5241,-6.2327,-5.7315,-5.1954,-5.2428,-5.2668,-4.3755,-4.4918,-4.7562,-4.2978,-4.5191,-4.7172,-4.2236,-4.0991,-4.1069,-4.1732,0.0,0.0,0.0,0.0,0.0,0.0,-4.8228,0.0,0.0,0.0,0.0,0.0,0.0,0.0,0.0,0.0,0.0,0.0,0.0,-7.7601,-8.3308,-8.4289,-8.5062,-8.5913,-8.6726,-8.7809,-8.9201,-8.9588,-9.0478,-9.1793,-9.1793,-9.1793,-9.1793,-9.1716,-9.1716,-9.1716,-9.1716,-9.1716,-9.1716,-9.1716,-9.1716,-9.1726,-9.2234,-9.2921,-9.3553,-9.305,-9.3523,-9.4214,-3.6059,-3.7101,-3.7823,-3.8028,-3.9173,-4.0339,-4.1191,-4.2404,-4.3497,-4.4278,-4.5016,-4.5424,-4.5328,-4.5476,-4.6083,-4.731,-4.7456,-4.5861,0.0,0.0,-3.8688,-3.6605,-3.1398,-3.0195,-3.3657,-2.9844,-2.7745,-2.7511,-2.6887,-2.6693,-2.6887,-2.6069,-2.8939,-3.4802,-3.6306,-4.0559,-4.6551,-4.5534,-4.524,-4.5802,-4.9589,-5.105,-5.2498,-6.6575,-7.3646,-7.5965,-7.5965,-7.6414,-7.6802,-7.5358,-6.9334,0.0,-7.0316,-6.4847,-5.6376,-5.8406,-5.7551,-5.4317,-4.69,-4.8372,-5.0425,-4.372,-4.5195,-4.6947,-4.1897,-4.0617,-4.0855,-4.2104,-4.1285,0.0,0.0,0.0,-4.1442,-4.3354,0.0,-4.7421,0.0,0.0,0.0,0.0,0.0,0.0,0.0,0.0,0.0,0.0,0.0,0.0,-8.2625,-8.367,-8.4482,-8.5256,-8.6145,-8.7461,-8.9163,-8.9201,-9.0052,-9.1716,-9.1716,-9.1716,-9.1716,-9.1716,-9.1716,-9.1716,-9.1716,-9.1716,-9.1716,-9.1716,-9.1716,-9.1765,-9.2458,-9.3245,-9.3946,-9.3495,-9.4139,-9.4975,-3.5461,-3.6311,-3.7123,-3.802,-3.8287,-3.871,-3.9728,-3.9896,-4.0831,-4.3325,0.0,0.0,0.0,0.0,0.0,-5.7055,0.0,-5.8556,-5.3518,0.0,-4.8351,-5.4041,-3.8351,-3.4158,-4.4184,-3.2912,-2.6576,-2.5796,-2.5757,-2.6147,-2.6887,-2.6069,-2.6693,-2.8831,-3.6317,-4.0305,-4.1832,-4.916,-5.6551,-6.3398,-6.3554,-6.8515,-7.5108,0.0,-7.0448,-7.6958,-7.6958,0.0,0.0,-7.1243,-6.8734,0.0,0.0,0.0,0.0,0.0,-6.3071,-6.5074,0.0,0.0,-5.1796,-4.3266,-4.2529,-4.3202,-4.0469,-4.1087,-4.224,-4.2279,-4.3564,-4.4461,-4.3681,-4.3525,-4.3528,-4.3609,-4.3726,0.0,0.0,0.0,0.0,0.0,0.0,0.0,0.0,0.0,0.0,0.0,0.0,0.0,-8.22,-8.3631,-8.4482,-8.5256,-8.6145,-8.7461,-8.9163,-8.9201,-9.0052,-9.1716,-9.1716,-9.1716,-9.1716,-9.1716,-9.1716,-9.1716,-9.1716,-9.1716,-9.1716,-9.1716,-9.1716,-9.1793,-9.2518,-9.3276,-9.4068,-9.4706,-9.4978,-9.4901,-3.6479,-3.6868,-3.6969,-3.6608,-3.7094,-3.828,-4.0325,-4.111,0.0,0.0,0.0,0.0,0.0,-5.4008,-5.5719,0.0,0.0,-5.7392,-5.3946,-5.0003,0.0,0.0,0.0,-3.5566,0.0,-3.3574,-2.8485,-2.6498,-2.6498,-2.6615,-2.6887,-2.6069,-2.6887,-2.9377,-3.659,-4.2788,-4.8213,-5.3717,-5.8534,-6.2574,0.0,-6.6991,-7.1264,0.0,0.0,-7.7009,-7.6985,-7.6991,0.0,-7.4961,-7.1914,-6.914,-7.0781,-6.7416,-6.3291,-6.5238,-6.437,0.0,0.0,0.0,-6.1358,-5.0532,0.0,0.0,0.0,-4.1462,-4.2315,-4.2315,-4.3677,-4.4614,-4.3755,-4.3599,-4.3404,-4.2822,-4.2724,-4.2354,0.0,0.0,0.0,0.0,0.0,0.0,0.0,0.0,0.0,0.0,0.0,0.0,0.0,-8.3322,-8.4211,-8.4482,-8.5875,-8.7461,-8.9163,-8.9201,-9.0052,-9.1716,-9.1716,-9.1716,-9.1716,-9.1716,-9.1716,-9.1716,-9.1716,-9.1716,-9.1716,-9.1716,-9.1687,-9.1745,-9.3083,-9.3753,-9.4039,-9.4779,-9.5052,-9.4788,-3.6629,-3.6746,-3.6735,-3.6689,-3.7495,-3.8694,-4.037,0.0,0.0,0.0,-4.8915,0.0,-5.3374,0.0,-5.5913,0.0,-5.8895,-5.8182,-5.5267,-5.3075,0.0,-5.2308,-4.4712,0.0,0.0,-3.8734,-3.3768,-3.147,-2.9338,-2.829,-2.8251,-2.6809,-2.716,-2.926,-3.4642,-4.2217,-5.1157,-5.5777,-6.1143,-6.6715,0.0,-6.9373,0.0,0.0,-7.5691,-7.4109,0.0,-7.7,-7.7013,-7.7013,-7.4787,-7.26,-7.588,-7.1982,-6.6962,-7.0793,-6.9167,-6.5865,-6.4567,-6.6635,0.0,-5.653,-5.604,0.0,-4.6304,0.0,-4.5878,-4.5878,-4.58,-4.6619,-4.9418,-4.693,-4.4676,-4.5332,-4.3941,-4.2237,0.0,-4.1293,0.0,0.0,0.0,0.0,0.0,0.0,0.0,0.0,0.0,0.0,0.0,0.0,-8.3786,-8.4095,-8.5449,-8.7112,-8.9163,-8.9201,-9.0052,-9.1716,-9.1716,-9.1716,-9.1716,-9.1716,-9.1716,-9.1716,-9.1716,-9.1716,-9.1716,-9.1716,-9.1659,-9.1754,-9.3013,-9.3687,-9.4044,-9.5126,-9.5093,-9.4326,-3.6045,-3.6084,-3.6668,-3.8266,-3.9162,0.0,0.0,0.0,-4.4986,0.0,-4.9751,-5.1336,-5.3907,-5.6369,-5.8195,-5.9089,-6.1394,0.0,-5.8182,-5.7871,0.0,0.0,-5.4241,-5.3386,-5.7638,0.0,0.0,-3.9816,-3.3768,-3.0818,-3.0818,-2.8173,-2.7433,-2.8446,-3.1057,-3.8893,-5.0461,-5.543,-6.4501,-7.5625,-7.6522,-7.5816,-7.4396,-7.6355,0.0,-6.8896,-7.4861,-7.6983,-7.6991,-7.6991,-7.7016,-7.6972,-7.6911,-7.6887,-7.6897,-7.6894,-7.6894,-7.5818,-7.0886,-6.9574,-6.7948,-6.1097,0.0,0.0,0.0,0.0,-5.2795,-5.2795,-5.027,-5.0697,-5.936,-5.2912,-4.7279,-5.027,-4.6579,-4.3044,-4.2306,-4.285,-4.3645,0.0,0.0,0.0,0.0,0.0,0.0,0.0,0.0,0.0,0.0,0.0,0.0,-8.4057,-8.4869,-8.6494,-8.9047,-8.9163,-9.0014,-9.1638,-9.1677,-9.1716,-9.1716,-9.1716,-9.1716,-9.1716,-9.1716,-9.1716,-9.1716,-9.1716,-9.1659,-9.1647,-9.2434,-9.3186,-9.4159,-9.5632,-9.5134,-9.3631,-3.7837,-3.8889,-3.9708,0.0,-3.8578,-3.8928,0.0,0.0,0.0,0.0,-5.524,-5.7794,-6.0963,-6.191,-6.2429,-6.2677,-6.3828,0.0,0.0,0.0,0.0,-6.5274,-5.8117,-5.5721,-5.9371,-4.8777,-4.2672,-4.1646,-3.4353,-3.1135,-3.1719,-2.9109,-2.8675,-3.0234,-3.281,-4.0301,-5.1235,-5.5116,-6.375,-7.49,-7.6366,-7.4056,0.0,0.0,-7.3303,-6.8886,-7.4861,-7.699,-7.7004,-7.7004,-7.6965,-7.6897,-7.6858,-7.6816,-7.6809,-7.6777,-7.676,-7.6449,-7.5144,-7.4755,-7.3449,-6.7864,-6.5517,-6.3326,0.0,0.0,0.0,0.0,0.0,0.0,0.0,-5.2523,-4.9376,-4.5181,-4.2345,-4.1024,-4.2073,-4.1286,0.0,-4.4354,0.0,0.0,0.0,0.0,0.0,0.0,0.0,0.0,0.0,0.0,0.0,-8.394,-8.4869,-8.5913,-8.7267,-8.8544,-8.9704,-9.0749,-9.1406,-9.1716,-9.1716,-9.1716,-9.1716,-9.1716,-9.1716,-9.1716,-9.1716,-9.1659,-9.1531,-9.1547,-9.2338,-9.347,-9.467,-9.4587,-9.424,-9.3624,-3.7915,-3.9357,-4.0604,-4.0838,0.0,0.0,-4.5414,0.0,0.0,-5.3647,-5.6368,0.0,-6.1376,-6.3682,-6.5211,-6.5615,-6.6066,0.0,-6.4163,0.0,0.0,-6.5963,-6.3573,-6.3107,-6.5031,-5.6717,0.0,-4.7291,-3.9926,-3.5093,-3.2625,-2.9979,-2.9082,-2.9823,-3.2736,-3.9017,-4.8044,-5.746,-6.5389,-7.1889,-7.5503,0.0,0.0,-7.5428,-7.4714,-7.1932,-7.5651,-7.6973,-7.6975,-7.6975,-7.6936,-7.6894,-7.6809,-7.6793,-7.6777,-7.6743,-7.6687,-7.6687,-7.6687,-7.6687,-7.6026,-7.3152,-7.1675,-6.9733,-6.511,-6.4022,-6.4022,0.0,0.0,0.0,0.0,0.0,-5.0153,-4.3316,-4.1102,-4.0558,-4.149,-4.1121,0.0,0.0,-4.6293,0.0,0.0,0.0,0.0,0.0,0.0,0.0,0.0,0.0,0.0,-8.2238,-8.3554,-8.5333,-8.7693,-8.7577,-8.866,-9.0981,-9.1097,-9.1329,-9.1716,-9.1716,-9.1716,-9.1716,-9.1716,-9.1716,-9.1716,-9.1629,-9.15,-9.1477,-9.2271,-9.3162,-9.3967,-9.3538,-9.3774,-9.4163,-3.7525,-3.9045,-4.0721,0.0,0.0,0.0,0.0,-4.821,0.0,-5.4346,0.0,-5.8519,-6.0007,-6.4109,-6.7099,-6.7907,0.0,-6.6772,-6.3783,-6.7847,-6.8721,-6.4959,-6.909,-7.1533,-7.1688,-6.651,-6.0546,0.0,-4.6931,-3.9979,-3.3176,-3.0661,-2.9185,-2.8759,-3.1906,-3.7381,-4.5273,-6.0937,-6.8084,-6.9319,-7.4754,-7.6053,-7.4909,-7.6409,-7.6574,-7.6058,-7.6769,-7.6955,-7.691,-7.691,-7.6883,-7.6879,-7.6793,-7.6777,-7.6777,-7.6726,-7.6687,-7.6687,-7.6687,-7.6687,-7.6687,-7.6687,-7.6687,-7.556,-7.1131,-7.0121,-7.0121,-7.0121,-6.6547,-6.5887,0.0,0.0,-5.1047,-4.4287,-4.285,-4.2733,-4.3199,-4.3684,-4.3846,-4.3346,0.0,0.0,0.0,0.0,0.0,0.0,0.0,0.0,0.0,0.0,0.0,-8.073,-8.2432,0.0,-8.8312,0.0,-8.7654,-9.1019,-9.071,-9.0981,-9.1716,-9.1716,-9.1716,-9.1716,-9.1716,-9.1716,-9.1716,-9.1629,-9.15,-9.1445,-9.2122,-9.2503,-9.2679,-9.2795,-9.3774,-9.4747,-3.9357,-4.1266,-4.2786,-4.2357,0.0,-5.0789,-5.4391,-5.6975,-5.9413,-6.1888,-6.493,-6.6975,-6.7285,-6.8086,-6.8668,-6.8878,-6.9445,0.0,0.0,0.0,0.0,-7.0118,-7.0932,-7.1765,-7.2541,-6.6821,-6.0856,0.0,0.0,-3.9721,-3.2283,-3.0401,-2.9793,-3.0463,-3.2492,-4.1054,-5.4564,-6.2473,0.0,-7.457,-7.6287,-7.6825,-7.6574,-7.6886,-7.6917,-7.6819,-7.6936,-7.6983,-7.6987,-7.6923,-7.6869,-7.6793,-7.6743,-7.6743,-7.6726,-7.6687,-7.6687,-7.6687,-7.6687,-7.6687,-7.6687,-7.6687,-7.6687,-7.6493,-7.556,-7.5366,-7.5366,-7.5366,-7.4667,-7.3074,-6.9927,0.0,0.0,0.0,0.0,0.0,0.0,-5.4556,-5.2706,-4.9847,0.0,0.0,0.0,0.0,0.0,0.0,0.0,0.0,0.0,0.0,0.0,0.0,0.0,0.0,0.0,0.0,0.0,-8.7538,-9.0207,-9.1561,-9.1716,-9.1716,-9.1716,-9.1716,-9.1716,-9.1716,-9.1716,-9.1531,-9.1406,-9.1341,-9.1528,-9.2029,-9.2729,-9.3423,-9.424,-9.467,-4.1695,-4.2747,-4.4306,-4.6566,0.0,0.0,0.0,-6.4001,0.0,-6.3637,-6.5139,-6.6446,-6.6446,-6.8801,-7.0393,-7.0393,-7.0765,-7.0965,-7.0911,-7.1744,-7.2191,-7.2075,-7.2541,0.0,-7.3455,-7.0173,-6.3854,-5.439,0.0,-4.1967,-3.14,-3.0586,-2.9921,-2.9725,-3.5935,-4.4042,-5.367,0.0,0.0,-7.2667,-7.5757,-7.7004,-7.7004,-7.7004,-7.6994,-7.6983,-7.6983,-7.7011,-7.6987,-7.6923,-7.6869,-7.6864,-7.6809,-7.6777,-7.676,-7.676,-7.6743,-7.6687,-7.6687,-7.6687,-7.6687,-7.6687,-7.6687,-7.6687,-7.6687,-7.6687,-7.6687,-7.6687,-7.6687,-7.49,-6.8917,-6.2857,0.0,0.0,0.0,0.0,0.0,0.0,-5.7765,-5.6587,-5.8483,0.0,0.0,0.0,0.0,0.0,0.0,0.0,0.0,0.0,0.0,0.0,0.0,0.0,0.0,0.0,0.0,-8.9279,-9.0478,-9.1251,-9.1716,-9.1716,-9.1716,-9.1716,-9.1716,-9.1687,-9.1629,-9.1438,-9.1336,-9.1336,-9.1236,-9.1741,-9.255,-9.2973,-9.3864,-9.4674,-4.4702,-4.5124,-4.6761,-5.1554,-5.6095,0.0,-6.3592,-6.8436,-7.0006,-6.5245,-6.5192,-6.562,-6.5659,-6.922,-7.163,-7.163,-7.1792,-7.1892,-7.1814,-7.2585,-7.3045,-7.2967,-7.3698,-7.4184,-7.4367,-7.3718,-6.7702,0.0,0.0,-4.5351,-3.2695,-3.1587,-3.1184,-3.1845,-4.0344,0.0,0.0,0.0,-6.8953,-7.121,-7.5351,-7.6999,-7.6999,-7.6999,-7.6999,-7.6999,-7.6999,-7.6999,-7.6999,-7.6923,-7.6897,-7.6908,-7.6894,-7.6864,-7.6793,-7.6793,-7.676,-7.6687,-7.6687,-7.6687,-7.6687,-7.6687,-7.6687,-7.6687,-7.6687,-7.6687,-7.6687,-7.6687,-7.6687,-7.49,-6.8917,-6.4955,0.0,0.0,0.0,0.0,0.0,0.0,-6.2517,-6.32,-6.0181,0.0,0.0,0.0,0.0,0.0,-5.667,0.0,-6.9473,0.0,0.0,0.0,0.0,-8.3863,-8.6184,0.0,-8.7886,0.0,-9.0555,-9.0865,-9.1677,-9.1522,-9.1522,-9.1716,-9.1716,-9.1659,-9.157,-9.1406,-9.1341,-9.1336,-9.1133,-9.1485,-9.2136,-9.2482,-9.333,-9.4216,-4.8854,-5.0095,0.0,0.0,0.0,0.0,0.0,-6.8499,-7.1589,-7.0937,-7.0912,-7.099,-7.0961,-7.1418,-7.1704,-7.1704,-7.2405,-7.2848,-7.2773,-7.3592,-7.4024,-7.3885,-7.3963,-7.44,-7.5269,-7.5184,-7.1545,0.0,0.0,-4.9332,-3.8849,-3.4127,-3.5563,-4.227,-4.4744,0.0,0.0,-6.6322,-7.0481,-7.6298,-7.6804,-7.6999,-7.6999,-7.6999,-7.6999,-7.6999,-7.6999,-7.6999,-7.6999,-7.6999,-7.6936,-7.6897,-7.6908,-7.6864,-7.6793,-7.6793,-7.676,-7.6687,-7.6687,-7.6687,-7.6687,-7.6687,-7.6687,-7.6687,-7.6687,-7.6687,-7.6687,-7.6687,-7.6687,-7.49,-6.8917,-7.1753,-7.2258,0.0,0.0,0.0,0.0,0.0,-6.9367,-6.9467,-6.3712,0.0,0.0,0.0,0.0,0.0,-5.7714,0.0,0.0,0.0,0.0,-7.663,0.0,-7.7674,-7.6436,-8.541,0.0,-8.8273,-8.9704,-9.0865,-9.1677,-9.0865,-9.0942,-9.1716,-9.1716,-9.1591,-9.14,-9.14,-9.1341,-9.1245,-9.1241,-9.121,-9.1297,-9.2833,-9.3025,-9.268,0.0,0.0,0.0,0.0,0.0,0.0,0.0,-7.126,-7.2756,-7.3263,-7.238,-7.1899,-7.2429,-7.2468,-7.2686,-7.3154,-7.3524,-7.3676,-7.3611,-7.4481,-7.4956,-7.4843,-7.539,-7.5855,-7.6242,-7.5738,-7.2105,0.0,0.0,0.0,-4.1254,-3.9636,-4.3038,-5.0728,0.0,-6.1042,-6.6956,-7.1115,-7.4494,-7.6999,-7.6999,-7.6999,-7.6999,-7.6999,-7.6999,-7.6999,-7.6999,-7.6999,-7.6999,-7.6999,-7.6987,-7.6975,-7.6962,-7.6897,-7.6869,-7.6869,-7.684,-7.6809,-7.6809,-7.6793,-7.676,-7.676,-7.6743,-7.6687,-7.6687,-7.6687,-7.6687,-7.6687,-7.6687,-7.5988,-7.3579,-7.2608,-7.2064,0.0,0.0,0.0,0.0,0.0,-7.6687,-7.7213,-7.341,-7.0523,0.0,0.0,0.0,0.0,-5.6205,0.0,0.0,0.0,0.0,-7.3226,0.0,-8.1968,-7.9724,-8.5836,-8.8814,-8.8698,-8.9356,-9.013,-9.0903,-9.0555,-9.0865,-9.1716,-9.1591,-9.1531,-9.15,-9.1236,-9.1171,-9.121,-9.1028,-9.0877,-9.0953,-9.2141,-9.2676,-9.3059,-6.0642,0.0,-6.1616,0.0,-6.718,-6.8271,-7.2791,-7.3492,-7.3698,-7.4333,-7.3308,-7.2702,-7.3325,-7.3384,-7.3632,-7.4197,-7.4452,-7.4566,-7.4522,-7.5373,-7.5868,-7.578,-7.6438,0.0,-7.6793,-7.6216,-7.3555,-6.8694,-6.1244,0.0,-4.8677,-4.7189,0.0,0.0,-6.3614,-6.7236,-7.0041,-7.4934,-7.6999,-7.6999,-7.6999,-7.6999,-7.6999,-7.6999,-7.6999,-7.6999,-7.6999,-7.6999,-7.6999,-7.6999,-7.6999,-7.6999,-7.6999,-7.6936,-7.691,-7.691,-7.6883,-7.6894,-7.6894,-7.6879,-7.6809,-7.6809,-7.6793,-7.676,-7.676,-7.676,-7.676,-7.6743,-7.6954,-7.711,-7.7093,-7.4356,-7.3152,-7.6376,0.0,0.0,0.0,-7.8632,-7.8942,-7.8864,-7.4926,-7.258,-7.3588,0.0,0.0,0.0,0.0,0.0,0.0,0.0,0.0,0.0,0.0,0.0,0.0,-8.5836,-8.8582,-8.9936,-8.8931,-8.9124,-9.04,-9.04,-9.0865,-9.1716,-9.15,-9.147,-9.15,-9.1133,-9.1064,-9.1103,-9.0799,-9.0679,-9.0794,-9.1635,-9.2171,-9.2707,-6.4597,-6.5416,-6.7005,-7.2128,-7.2986,-7.3297,-7.4233,-7.4388,-7.4392,-7.4402,-7.4369,-7.433,-7.429,-7.4345,-7.4368,-7.4285,-7.5103,-7.5551,-7.5484,-7.6303,-7.6741,0.0,0.0,-7.6721,-7.6793,-7.684,-7.6832,-7.6763,0.0,0.0,-6.3677,-5.6878,-5.8257,-6.6574,-6.6652,-7.0481,-7.6882,-7.696,-7.6999,-7.6999,-7.6999,-7.6999,-7.6999,-7.6999,-7.6999,-7.6999,-7.6999,-7.6999,-7.6999,-7.6999,-7.6999,-7.6999,-7.6999,-7.6936,-7.691,-7.691,-7.6883,-7.6894,-7.6894,-7.6894,-7.6894,-7.6894,-7.6894,-7.6894,-7.6894,-7.6894,-7.6879,-7.6793,-7.7486,-7.8085,-7.8092,-7.8665,-7.8085,-7.4783,0.0,0.0,0.0,-7.5244,-7.4293,-7.1921,-6.3999,-6.2433,-7.1802,0.0,0.0,0.0,0.0,0.0,0.0,0.0,0.0,-7.6204,-7.6436,0.0,-7.9028,-8.4946,-8.9163,-9.1638,-8.8234,-8.7963,-9.04,-9.04,-9.0865,-9.1716,-9.15,-9.14,-9.1368,-9.1098,-9.0953,-9.0915,-9.0759,-9.0638,-9.0708,-9.151,-9.1319,-9.1013,-7.1282,-7.1555,-7.21,-7.3687,-7.3999,-7.4272,-7.5168,-7.5269,-7.5514,-7.6086,-7.6157,-7.6132,-7.6082,-7.5568,-7.5433,0.0,-7.6253,-7.6365,0.0,-7.6591,-7.6715,-7.6687,-7.676,-7.6777,-7.6793,-7.687,-7.6887,-7.6894,0.0,0.0,0.0,-6.3624,-6.6574,-7.3715,-7.3715,-7.4934,-7.6999,-7.6999,-7.6999,-7.6999,-7.6999,-7.6999,-7.6999,-7.6999,-7.6999,-7.6999,-7.6999,-7.6999,-7.6999,-7.6999,-7.661,-7.6103,-7.6103,-7.652,-7.6987,-7.6987,-7.6975,-7.6962,-7.6962,-7.691,-7.6897,-7.6897,-7.6908,-7.6894,-7.6894,-7.7322,-7.789,-7.8392,-7.8703,-7.888,-7.8787,-7.9466,-7.9678,-7.8592,-8.0024,0.0,-7.9872,-7.9675,-7.9343,-7.8612,-7.6531,-7.6311,0.0,-7.4508,0.0,0.0,0.0,0.0,0.0,0.0,0.0,0.0,-7.7983,0.0,-7.984,-8.4018,-8.7151,-8.9085,-8.6803,-8.6764,-8.8737,-8.9898,-9.0837,-9.1629,-9.147,-9.1368,-9.1341,-9.1028,-9.0954,-9.0877,-9.0717,-9.0635,-9.0631,-9.0899,-9.1166,-9.1548,-7.4817,-7.4622,-7.4478,-7.4831,-7.4879,-7.517,-7.606,-7.6175,-7.6394,-7.6948,-7.6991,-7.697,-7.6917,-7.6439,0.0,-7.6741,-7.6816,-7.6777,-7.6743,-7.6687,-7.6743,-7.6777,-7.6793,-7.6809,-7.684,0.0,0.0,-7.6923,-7.2647,-7.0589,-7.0559,-7.0559,-7.2857,-7.6999,-7.6999,-7.6999,-7.6999,-7.6999,-7.6999,-7.696,-7.6637,-7.6481,-7.6442,-7.613,-7.6013,-7.6013,-7.6025,-7.6025,-7.6025,-7.6025,-7.5674,-7.5207,-7.5207,-7.5596,-7.6103,-7.6415,-7.6493,-7.6571,-7.6921,-7.6987,-7.6846,-7.6534,-7.6663,-7.6933,-7.7252,-7.7704,-7.831,-7.9077,-7.9504,-7.9737,-7.9639,-8.0295,-8.0877,-8.0898,-8.132,-8.1646,-8.1734,-8.1669,-8.0678,-7.8184,0.0,0.0,0.0,-7.6382,0.0,0.0,0.0,0.0,0.0,0.0,0.0,-7.4579,-8.0769,0.0,-8.2122,-8.425,-8.6184,-8.7886,-8.6455,-8.6377,-8.7461,-8.8814,-9.0228,-9.16,-9.147,-9.1374,-9.1241,-9.0991,-9.0877,-9.0799,-9.0676,-9.0593,-9.0593,-9.0593,-9.0937,-9.1395,-7.5647,-7.5112,0.0,0.0,-7.578,0.0,-7.6875,-7.6992,-7.6987,-7.699,-7.7017,-7.6981,-7.6923,-7.6975,-7.6962,-7.6809,0.0,0.0,0.0,-7.676,-7.676,-7.6894,-7.6864,-7.684,-7.691,-7.691,-7.6923,-7.6999,-7.6999,-7.6999,-7.6999,-7.6999,-7.6999,-7.6999,-7.6999,-7.6999,-7.6999,-7.6999,-7.6999,-7.6921,-7.6028,-7.5716,-7.5599,-7.482,-7.4509,-7.447,-7.4416,-7.4388,-7.4388,-7.4388,-7.435,-7.4311,-7.4311,-7.4311,-7.4505,-7.5441,-7.5674,-7.5869,-7.6754,-7.6987,-7.6793,-7.5974,-7.6313,-7.7097,-7.7909,-7.8124,-7.8417,-7.9214,-8.001,-8.0573,-8.0572,-8.117,-8.1691,-8.1677,-8.1585,-8.1553,-8.1691,-8.16,-7.9192,0.0,0.0,0.0,0.0,-7.2723,-7.5701,0.0,0.0,0.0,0.0,0.0,-7.4463,-8.3631,-8.3902,-8.4327,-8.5217,-8.5217,-8.6029,-8.7654,-8.688,-8.6532,-8.6532,-8.7461,-8.9223,-9.1522,-9.1431,-9.1341,-9.1175,-9.0992,-9.0799,-9.0719,-9.0635,-9.0593,-9.0593,-9.0593,-9.0593,-9.0708,0.0,0.0,-7.6403,-7.6638,-7.6677,-7.6756,-7.6953,-7.6983,-7.7,-7.6984,-7.7012,-7.6983,-7.6987,-7.6999,-7.6975,-7.6883,-7.6883,-7.6869,-7.6879,-7.6809,-7.6809,-7.6894,-7.6894,-7.6869,-7.691,-7.6936,-7.6987,-7.6999,-7.6999,-7.6999,-7.6999,-7.6999,-7.6999,-7.6999,-7.6999,-7.6999,-7.6999,-7.6999,-7.6999,-7.6999,-7.6754,-7.6676,-7.6598,-7.5702,-7.539,-7.5312,-7.4661,-7.4388,-7.4388,-7.4388,-7.396,-7.3414,-7.3414,-7.3403,-7.3691,-7.521,-7.5638,-7.582,-7.6689,-7.6894,-7.6801,-7.6606,-7.7143,-7.7965,-7.8785,-7.9484,-8.0165,-8.0958,-8.1247,-8.1381,-8.1291,-8.1398,-8.1577,-8.1646,-8.1553,-8.1553,-8.1734,-8.1669,-8.0981,0.0,-7.9183,-7.9114,-7.9105,-7.926,-7.8177,0.0,0.0,0.0,0.0,-7.3728,-7.5779,-8.1929,-8.2122,-8.2857,-8.4366,-8.4366,-8.4598,-8.4985,-8.541,-8.5604,-8.5681,-8.719,-8.8847,-9.0582,-9.1129,-9.127,-9.1064,-9.0915,-9.0799,-9.0719,-9.0635,-9.0593,-9.0593,-9.0593,-9.0593,-9.0631,-7.752,-7.7225,-7.6951,-7.6983,-7.6983,-7.7016,-7.6995,-7.6997,-7.7012,-7.7012,-7.7004,-7.6999,-7.6999,-7.6999,-7.6987,-7.6936,-7.691,-7.6897,-7.6883,-7.6879,-7.6894,-7.6949,-7.6922,-7.6897,-7.6936,-7.6987,-7.6999,-7.6999,-7.6999,-7.6999,-7.6999,-7.6999,-7.6999,-7.6999,-7.6999,-7.6999,-7.6999,-7.6999,-7.6999,-7.696,-7.652,-7.6118,-7.5729,-7.4833,-7.4248,-7.3859,-7.3375,-7.3219,-7.3219,-7.3219,-7.2908,-7.2518,-7.2518,-7.2756,-7.3288,-7.4598,-7.522,-7.5726,-7.6645,-7.6793,-7.6821,-7.7174,-7.7292,-7.772,-7.9347,-8.0045,-8.0605,-8.143,-8.16,-8.1577,-8.1504,-8.1504,-8.1528,-8.1624,-8.0284,-7.9842,-8.1601,-8.0436,0.0,-8.1497,-8.1669,-8.16,-8.1504,-8.1504,-8.015,-7.69,0.0,0.0,-7.6707,-7.7132,-7.8641,-8.1426,-8.1504,-8.1968,-8.2896,-8.3708,-8.4289,-8.4637,-8.4714,-8.514,-8.5952,-8.688,-8.8383,-9.0242,-9.1021,-9.1168,-9.0953,-9.0838,-9.0719,-9.0638,-9.0593,-9.0593,-9.0593,-9.0593,-9.0593,-9.0593,-7.7969,-7.7497,-7.698,-7.7017,-7.7011,-7.6981,-7.7011,-7.6999,-7.6999,-7.6999,-7.6999,-7.6999,-7.6999,-7.6999,-7.6999,-7.6999,-7.6936,-7.691,-7.691,-7.6922,-7.6936,-7.6999,-7.6923,-7.6923,-7.6999,-7.6999,-7.6999,-7.6999,-7.6999,-7.6999,-7.6999,-7.6999,-7.6999,-7.6999,-7.6843,-7.6882,-7.6999,-7.6843,-7.6882,-7.6921,-7.6118,-7.5327,-7.4509,-7.3613,-7.2756,-7.1977,-7.1844,-7.1817,-7.1817,-7.1817,-7.1817,-7.1817,-7.1922,-7.2536,-7.3324,-7.4133,-7.4972,-7.581,-7.6566,-7.6803,-7.7021,-7.762,-7.7423,-7.7595,-7.971,-8.0304,-8.0614,-8.1349,-8.1504,-8.1504,-8.1504,-8.1504,-8.1219,-8.0467,-7.8624,-7.8025,-8.0242,0.0,-7.8554,-8.1364,-8.1691,-8.1646,-8.1528,-8.1504,-8.1504,-8.1504,-8.1504,0.0,0.0,-8.1504,-8.1504,-8.1504,-8.1504,-8.162,-8.189,-8.336,-8.4482,-8.5294,-8.4482,-8.4908,-8.6416,-8.6621,-8.7929,-9.0018,-9.0884,-9.11,-9.0877,-9.0759,-9.0638,-9.0593,-9.0593,-9.0593,-9.0593,-9.0593,-9.0593,-9.0593,-7.7151,-7.7051,-7.6944,-7.6983,-7.6983,-7.6983,-7.6999,-7.6999,-7.6999,-7.6999,-7.6999,-7.6999,-7.6999,-7.6999,-7.6999,-7.6999,-7.6999,-7.6987,-7.6987,-7.6923,-7.6923,-7.6999,-7.6923,-7.6923,-7.6999,-7.6999,-7.6999,-7.6999,-7.6999,-7.6999,-7.6999,-7.6999,-7.6999,-7.696,-7.622,-7.6298,-7.696,-7.622,-7.6337,-7.6999,-7.6843,-7.6247,-7.539,-7.4533,-7.3637,-7.278,-7.205,-7.1817,-7.1817,-7.1817,-7.1817,-7.1922,-7.2601,-7.3377,-7.4172,-7.4981,-7.576,-7.6397,-7.6594,-7.7116,-7.7633,-7.7682,-7.8665,-7.9748,-8.0111,-8.0769,-8.1349,-8.1465,-8.1504,-8.1504,-8.1504,-8.1504,-7.9903,-7.49,-7.7866,-7.9283,-7.4924,0.0,-8.1193,-8.1737,-8.1734,-8.1669,-8.16,-8.1528,-8.1504,-8.1504,-8.1504,-8.1504,-8.1504,-8.1504,-8.1504,-8.1504,-8.1504,-8.22,-8.367,-8.394,-8.4482,-8.5294,-8.4482,-8.4598,-8.5565,-8.6858,-8.7974,-8.8997,-9.0406,-9.0953,-9.0719,-9.0719,-9.0638,-9.0593,-9.0593,-9.0593,-9.0593,-9.0593,-9.0593,-9.0593,-7.7004,-7.6983,-7.6936,-7.6999,-7.6999,-7.6999,-7.6999,-7.6999,-7.6999,-7.6999,-7.6999,-7.6999,-7.6999,-7.6999,-7.6999,-7.6999,-7.6999,-7.6999,-7.6999,-7.6987,-7.6987,-7.6999,-7.6987,-7.6987,-7.6999,-7.6999,-7.6999,-7.6999,-7.6999,-7.6999,-7.6999,-7.6999,-7.6765,-7.6298,-7.5869,-7.5674,-7.5558,-7.5168,-7.5246,-7.5596,-7.5596,-7.509,-7.4272,-7.3843,-7.3142,-7.2362,-7.1934,-7.1817,-7.1856,-7.2276,-7.2458,-7.2562,-7.3348,-7.4123,-7.4885,-7.5217,-7.5894,-7.6488,-7.6488,-7.7124,-7.7876,-7.8293,-7.9299,-8.0343,-8.0807,-8.1233,-8.1504,-8.1504,-8.1528,-8.1553,-8.1553,-8.1577,-8.0733,-7.8047,-7.8357,0.0,0.0,-7.8496,-7.9718,-8.1581,-8.1734,-8.1669,-8.1624,-8.1528,-8.1504,-8.1504,-8.1504,-8.1504,-8.1504,-8.1504,-8.1504,-8.1504,-8.1504,-8.2355,-8.4095,-8.4095,-8.4753,-8.5991,-8.514,-8.5125,-8.5854,-8.707,-8.795,-8.8675,-9.0261,-9.0838,-9.0719,-9.0638,-9.0635,-9.0593,-9.0593,-9.0593,-9.0593,-9.0593,-9.0593,-9.0593,-7.7022,-7.6999,-7.6999,-7.6999,-7.6999,-7.6999,-7.6999,-7.6999,-7.6999,-7.6999,-7.6999,-7.6999,-7.6999,-7.6999,-7.6999,-7.6999,-7.6999,-7.6999,-7.6999,-7.6999,-7.6999,-7.6999,-7.6999,-7.6804,-7.6415,-7.661,-7.661,-7.6415,-7.6415,-7.6415,-7.6415,-7.6415,-7.6025,-7.5402,-7.5207,-7.4856,-7.4388,-7.4194,-7.4194,-7.4388,-7.4388,-7.3882,-7.3103,-7.3103,-7.2663,-7.2067,-7.2067,-7.2172,-7.2419,-7.3066,-7.327,-7.3371,-7.4144,-7.4809,-7.5312,-7.5485,-7.6006,-7.6466,-7.6421,-7.7171,-7.8177,-7.8834,-7.9763,-8.0691,-8.1349,-8.1504,-8.1504,-8.1504,-8.1553,-8.16,-8.16,-8.1646,-8.1247,-7.9931,0.0,0.0,0.0,-7.8709,-7.8884,-8.1524,-8.1734,-8.1669,-8.1624,-8.1553,-8.1504,-8.1504,-8.1504,-8.1504,-8.1504,-8.1504,-8.1504,-8.1504,-8.1504,-8.2355,-8.4095,-8.4095,-8.4946,-8.661,-8.5913,-8.5832,-8.6345,-8.7164,-8.7776,-8.8265,-8.9803,-9.0491,-9.0411,-9.0558,-9.0593,-9.0593,-9.0593,-9.0593,-9.0593,-9.0593,-9.0593,-9.0593,-7.6999,-7.6999,-7.6999,-7.6999,-7.6999,-7.6999,-7.6999,-7.6999,-7.6999,-7.6999,-7.6999,-7.6999,-7.6999,-7.6999,-7.6999,-7.6999,-7.6999,-7.6999,-7.6999,-7.6999,-7.6999,-7.6999,-7.6999,-7.6259,-7.4622,-7.5363,-7.5402,-7.4583,-7.4583,-7.4583,-7.4583,-7.4583,-7.4544,-7.4466,-7.3648,-7.3687,-7.435,-7.3531,-7.3648,-7.4388,-7.4388,-7.3882,-7.3103,-7.3103,-7.3029,-7.2924,-7.2924,-7.3348,-7.3929,-7.4006,-7.4006,-7.4144,-7.4945,-7.5255,-7.5428,-7.6134,-7.6382,-7.6397,-7.6397,-7.7635,-7.8912,-7.8989,-8.0227,-8.1426,-8.1504,-8.1504,-8.1504,-8.1504,-8.1553,-8.16,-8.16,-8.1646,-7.9869,-7.4344,0.0,0.0,-7.4303,-7.8145,-8.1621,-8.1854,-8.1755,-8.1691,-8.1691,-8.1577,-8.1504,-8.1504,-8.1504,-8.1504,-8.1504,-8.1504,-8.1504,-8.1504,-8.1504,-8.2355,-8.4095,-8.4095,-8.4946,-8.661,-8.6532,-8.6412,-8.6345,-8.7,-8.7295,-8.7273,-8.8766,-8.9409,-8.9447,-9.0287,-9.0593,-9.0593,-9.0593,-9.0593,-9.0593,-9.0593,-9.0593,-9.0593,-7.6999,-7.6999,-7.6999,-7.6999,-7.6999,-7.6999,-7.6999,-7.6999,-7.6999,-7.6999,-7.6999,-7.6999,-7.6999,-7.6999,-7.6999,-7.6999,-7.6999,-7.6999,-7.6999,-7.6999,-7.6765,-7.622,-7.6181,-7.5635,-7.4427,-7.4739,-7.4739,-7.4388,-7.4388,-7.4388,-7.4388,-7.4388,-7.4116,-7.357,-7.3258,-7.2986,-7.2752,-7.244,-7.2791,-7.3609,-7.3561,-7.3665,-7.386,-7.3766,-7.3682,-7.369,-7.369,-7.3868,-7.4183,-7.4673,-7.4848,-7.4984,-7.5735,-7.5963,-7.604,-7.6343,-7.6784,-7.721,-7.721,-7.8061,-7.9105,-7.9656,-8.0662,-8.1577,-8.1577,-8.1577,-8.1553,-8.1504,-8.1577,-8.1669,-8.1669,-8.1734,-8.1058,-7.8806,0.0,-8.1058,-7.8805,-8.0455,-8.1892,-8.1892,-8.1755,-8.1691,-8.1691,-8.1577,-8.1504,-8.1504,-8.1504,-8.1504,-8.1504,-8.1504,-8.1504,-8.1504,-8.1504,-8.2355,-8.4095,-8.4095,-8.4946,-8.661,-8.6461,-8.6345,-8.6191,-8.6838,-8.7081,-8.7006,-8.8074,-8.8835,-8.9332,-8.9676,-9.0135,-9.0593,-9.0593,-9.0593,-9.0593,-9.0593,-9.0593,-9.0593,-7.6999,-7.6999,-7.6999,-7.6999,-7.6999,-7.6999,-7.6999,-7.6999,-7.6999,-7.6999,-7.6999,-7.6999,-7.6999,-7.6999,-7.6999,-7.6999,-7.6999,-7.6999,-7.6999,-7.6727,-7.622,-7.5324,-7.5558,-7.5051,-7.3609,-7.3843,-7.3843,-7.357,-7.357,-7.357,-7.357,-7.357,-7.3258,-7.2674,-7.2674,-7.2362,-7.1817,-7.2067,-7.2522,-7.3068,-7.326,-7.3698,-7.4242,-7.414,-7.4243,-7.4497,-7.4497,-7.4634,-7.4907,-7.5446,-7.5658,-7.5735,-7.6227,-7.6397,-7.6397,-7.6397,-7.6823,-7.7403,-7.7968,-7.8549,-7.923,-8.0067,-8.0942,-8.16,-8.1624,-8.1624,-8.16,-8.1577,-8.1646,-8.1713,-8.1713,-8.1834,-8.1892,-8.1892,-8.1892,-8.1892,-8.1892,-8.1892,-8.1892,-8.1892,-8.1755,-8.1691,-8.1691,-8.1577,-8.1504,-8.1504,-8.1504,-8.1504,-8.1504,-8.1504,-8.1504,-8.1504,-8.1453,-8.2122,-8.3579,-8.3888,-8.4828,-8.6489,-8.6307,-8.6191,-8.5992,-8.6501,-8.6585,-8.6428,-8.7307,-8.7995,-8.8568,-8.9103,-8.9638,-9.0211,-9.0517,-9.0593,-9.0593,-9.0593,-9.044,-9.0211,-7.6999,-7.6999,-7.6999,-7.6999,-7.6999,-7.6999,-7.6999,-7.6999,-7.6999,-7.6999,-7.6999,-7.6999,-7.6999,-7.6999,-7.6999,-7.6999,-7.6999,-7.6999,-7.6999,-7.6181,-7.5324,-7.4427,-7.5207,-7.4466,-7.1856,-7.2635,-7.2674,-7.1817,-7.1817,-7.1817,-7.1817,-7.1817,-7.1817,-7.1817,-7.1817,-7.1817,-7.1856,-7.2679,-7.2988,-7.3066,-7.3829,-7.4106,-7.4106,-7.4106,-7.4595,-7.5333,-7.5333,-7.5752,-7.6397,-7.6397,-7.6397,-7.6397,-7.6397,-7.6397,-7.6397,-7.6397,-7.6397,-7.6808,-7.8596,-7.9044,-7.9238,-8.009,-8.0942,-8.1624,-8.1691,-8.1646,-8.1624,-8.1691,-8.1734,-8.1814,-8.1814,-8.1854,-8.1892,-8.1892,-8.1892,-8.1892,-8.1892,-8.1892,-8.1892,-8.1892,-8.1755,-8.1691,-8.1691,-8.1577,-8.1504,-8.1504,-8.1504,-8.1504,-8.1504,-8.1504,-8.1504,-8.1504,-8.1374,-8.1677,-8.2487,-8.3375,-8.4648,-8.6307,-8.6159,-8.5992,-8.5815,-8.5815,-8.5704,-8.555,-8.6428,-8.681,-8.6963,-8.8606,-8.9294,-8.9409,-9.0249,-9.0593,-9.0593,-9.0593,-9.0058,-8.9294,-7.6999,-7.6999,-7.6999,-7.6999,-7.6999,-7.6999,-7.6999,-7.6999,-7.6999,-7.6999,-7.6999,-7.6999,-7.6999,-7.6999,-7.6999,-7.6999,-7.6999,-7.6999,-7.6999,-7.6765,-7.5947,-7.4466,-7.4077,-7.3219,-7.1817,-7.205,-7.205,-7.1817,-7.1817,-7.1817,-7.1817,-7.1817,-7.2106,-7.264,-7.264,-7.2924,-7.341,-7.3651,-7.4117,-7.4684,-7.4867,-7.5295,-7.5838,-7.5756,-7.5869,-7.6057,-7.6057,-7.6189,-7.6397,-7.6397,-7.6397,-7.6397,-7.6397,-7.6397,-7.6397,-7.6397,-7.7248,-7.8355,-7.8944,-7.9713,-8.0563,-8.1204,-8.154,-8.1734,-8.1794,-8.1499,-8.1337,-8.1646,-8.1499,-8.1412,-8.1734,-8.1854,-8.1892,-8.1892,-8.1892,-8.1892,-8.1892,-8.1892,-8.1892,-8.1892,-8.1755,-8.1691,-8.1691,-8.1577,-8.1504,-8.1504,-8.1504,-8.1453,-8.1347,-8.1347,-8.1319,-8.1167,-8.1107,-8.1501,-8.2378,-8.3156,-8.4119,-8.5235,-8.5685,-8.5923,-8.5923,-8.5704,-8.559,-8.5667,-8.5818,-8.6581,-8.7766,-8.8262,-8.9141,-9.0249,-9.0517,-9.0593,-9.0593,-9.0593,-9.0058,-8.9294,-7.6999,-7.6999,-7.6999,-7.6999,-7.6999,-7.6999,-7.6999,-7.6999,-7.6999,-7.6999,-7.6999,-7.6999,-7.6999,-7.6999,-7.6999,-7.6999,-7.6999,-7.6999,-7.6999,-7.6688,-7.6025,-7.4973,-7.4053,-7.3041,-7.1817,-7.2128,-7.2167,-7.1817,-7.2456,-7.26,-7.2289,-7.2562,-7.2949,-7.3449,-7.3449,-7.369,-7.4106,-7.442,-7.4867,-7.5372,-7.5622,-7.6045,-7.651,-7.6421,-7.6397,-7.6397,-7.6397,-7.6397,-7.6397,-7.6397,-7.6397,-7.6397,-7.6397,-7.6397,-7.6397,-7.6397,-7.7292,-7.8335,-7.876,-7.9538,-8.04,-8.1103,-8.1272,-8.1272,-8.1298,-8.107,-8.0885,-8.1154,-8.1003,-8.0945,-8.1207,-8.1324,-8.1374,-8.1437,-8.1546,-8.1635,-8.1695,-8.1796,-8.1892,-8.1892,-8.1755,-8.1691,-8.1691,-8.1528,-8.14,-8.1308,-8.128,-8.1253,-8.1205,-8.1205,-8.1107,-8.1016,-8.0953,-8.1189,-8.1689,-8.2501,-8.35,-8.4791,-8.5084,-8.5472,-8.589,-8.5667,-8.559,-8.559,-8.5551,-8.6084,-8.7116,-8.7422,-8.8186,-8.9141,-8.9485,-8.96,-8.96,-8.96,-8.9065,-8.8301,-7.6999,-7.6999,-7.6999,-7.6999,-7.6999,-7.6999,-7.6999,-7.6999,-7.6999,-7.6999,-7.6999,-7.6999,-7.6999,-7.6999,-7.6999,-7.6999,-7.6999,-7.6999,-7.6999,-7.6247,-7.578,-7.5702,-7.4859,-7.3639,-7.2028,-7.278,-7.2819,-7.2,-7.3535,-7.3883,-7.309,-7.3806,-7.4144,-7.4222,-7.4222,-7.4243,-7.436,-7.5081,-7.539,-7.5467,-7.6134,-7.6397,-7.6397,-7.6397,-7.6397,-7.6397,-7.6397,-7.6397,-7.6397,-7.6397,-7.6397,-7.6397,-7.6374,-7.6374,-7.6374,-7.6311,-7.6646,-7.7254,-7.819,-7.8749,-7.9241,-8.0225,-8.0348,-8.0312,-8.0451,-8.042,-8.0348,-8.0451,-8.0451,-8.0451,-8.0486,-8.0486,-8.0558,-8.0663,-8.0974,-8.1234,-8.1387,-8.1674,-8.1892,-8.1892,-8.1755,-8.1669,-8.1669,-8.1453,-8.1205,-8.1016,-8.1016,-8.1016,-8.0984,-8.0984,-8.0984,-8.0984,-8.086,-8.0792,-8.0792,-8.1454,-8.2751,-8.4541,-8.4439,-8.4863,-8.5743,-8.5705,-8.5628,-8.5511,-8.5511,-8.555,-8.5702,-8.6467,-8.6849,-8.7001,-8.7804,-8.811,-8.811,-8.811,-8.7536,-8.681,-7.6999,-7.6999,-7.6999,-7.6999,-7.6999,-7.6999,-7.6999,-7.6999,-7.6999,-7.6999,-7.6999,-7.6999,-7.6999,-7.6999,-7.6999,-7.6999,-7.6999,-7.6999,-7.6999,-7.6716,-7.6299,-7.5638,-7.5316,-7.4661,-7.3628,-7.3783,-7.3783,-7.3589,-7.3962,-7.4062,-7.3868,-7.4045,-7.442,-7.5042,-7.5042,-7.5351,-7.5885,-7.6095,-7.6173,-7.6173,-7.6343,-7.6397,-7.6397,-7.6397,-7.6397,-7.6397,-7.6397,-7.6397,-7.6397,-7.6397,-7.6397,-7.6374,-7.6068,-7.5985,-7.5957,-7.5609,-7.6092,-7.6901,-7.7807,-7.8331,-7.8818,-7.9738,-7.967,-7.9576,-8.031,-8.0201,-8.0008,-8.0417,-8.0238,-8.0087,-8.0417,-8.0486,-8.0486,-8.0558,-8.0906,-8.1207,-8.1234,-8.1613,-8.1892,-8.1892,-8.1652,-8.1475,-8.1475,-8.1214,-8.1047,-8.1016,-8.1016,-8.0953,-8.086,-8.086,-8.0788,-8.072,-8.065,-8.0685,-8.0792,-8.095,-8.1908,-8.352,-8.4246,-8.4974,-8.5779,-8.5704,-8.5667,-8.5628,-8.5551,-8.5893,-8.6543,-8.6734,-8.7192,-8.7842,-8.8033,-8.811,-8.811,-8.811,-8.7536,-8.6696,-7.6999,-7.6999,-7.6999,-7.6999,-7.6999,-7.6999,-7.6999,-7.6999,-7.6999,-7.6999,-7.6999,-7.6999,-7.6999,-7.6936,-7.6897,-7.6855,-7.6855,-7.6855,-7.6855,-7.6786,-7.656,-7.6132,-7.6048,-7.576,-7.5294,-7.5236,-7.4829,-7.4106,-7.4885,-7.51,-7.4673,-7.5042,-7.5428,-7.583,-7.583,-7.604,-7.6397,-7.6397,-7.6397,-7.6397,-7.6397,-7.6397,-7.6397,-7.6397,-7.6397,-7.6397,-7.6397,-7.6397,-7.6397,-7.6397,-7.6287,-7.6133,-7.5957,-7.5741,-7.5545,-7.5379,-7.5777,-7.6503,-7.7341,-7.7897,-7.8414,-7.9252,-7.9284,-7.9236,-7.9718,-7.9627,-7.9532,-7.9761,-7.9627,-7.9532,-7.9803,-7.9844,-7.9844,-7.9926,-8.0384,-8.0792,-8.0862,-8.1337,-8.1691,-8.163,-8.1426,-8.1231,-8.1128,-8.1016,-8.0855,-8.0788,-8.0754,-8.0754,-8.0685,-8.0685,-8.0685,-8.0685,-8.0685,-8.0758,-8.0792,-8.0826,-8.167,-8.3361,-8.3783,-8.4627,-8.5815,-8.5704,-8.5667,-8.559,-8.5551,-8.5779,-8.6199,-8.6199,-8.6696,-8.7498,-8.7498,-8.7727,-8.811,-8.811,-8.7536,-8.6696,-7.6999,-7.6999,-7.6999,-7.6999,-7.6999,-7.6999,-7.6999,-7.6987,-7.6987,-7.6987,-7.6975,-7.6962,-7.6962,-7.683,-7.677,-7.6687,-7.6687,-7.6687,-7.6687,-7.6708,-7.669,-7.669,-7.6594,-7.6591,-7.6591,-7.6444,-7.5752,-7.4497,-7.5895,-7.6204,-7.5485,-7.6095,-7.6397,-7.6397,-7.6397,-7.6397,-7.6397,-7.6397,-7.6397,-7.6397,-7.6397,-7.6397,-7.6397,-7.6397,-7.6397,-7.6397,-7.6397,-7.6397,-7.6397,-7.6397,-7.6186,-7.5899,-7.584,-7.5513,-7.5203,-7.513,-7.5396,-7.5868,-7.6663,-7.7191,-7.7689,-7.8666,-7.8891,-7.8928,-7.9079,-7.9116,-7.9116,-7.9116,-7.9116,-7.9116,-7.9116,-7.9066,-7.9116,-7.9214,-7.9751,-8.0201,-8.0389,-8.0962,-8.135,-8.1323,-8.1214,-8.1039,-8.0792,-8.0758,-8.0688,-8.0506,-8.0506,-8.0505,-8.0578,-8.0614,-8.065,-8.0792,-8.0792,-8.0826,-8.0826,-8.0926,-8.1804,-8.3461,-8.3358,-8.4167,-8.5815,-8.5704,-8.5628,-8.5511,-8.5511,-8.5511,-8.5511,-8.5511,-8.6008,-8.681,-8.681,-8.7345,-8.8071,-8.7918,-8.7422,-8.6696,-7.6999,-7.6999,-7.6999,-7.6999,-7.6999,-7.6999,-7.6999,-7.691,-7.683,-7.683,-7.677,-7.6721,-7.6721,-7.6704,-7.6704,-7.6687,-7.6687,-7.6687,-7.6687,-7.6652,-7.6594,-7.6594,-7.6488,-7.6421,-7.6421,-7.6421,-7.6305,-7.6095,-7.6327,-7.6382,-7.6227,-7.6343,-7.6397,-7.6397,-7.6397,-7.6397,-7.6397,-7.6397,-7.6397,-7.6397,-7.6397,-7.6397,-7.6397,-7.6397,-7.6397,-7.6397,-7.6397,-7.6397,-7.6397,-7.6397,-7.6186,-7.584,-7.548,-7.513,-7.4705,-7.4438,-7.4372,-7.4628,-7.5417,-7.5671,-7.6112,-7.7652,-7.8065,-7.8215,-7.8928,-7.9116,-7.9116,-7.9116,-7.9116,-7.9116,-7.9116,-7.9016,-7.8966,-7.8966,-7.9265,-7.968,-8.0125,-8.0558,-8.1012,-8.1258,-8.103,-8.0745,-8.058,-8.0543,-8.0543,-8.0506,-8.0506,-8.0506,-8.0543,-8.0578,-8.065,-8.0792,-8.086,-8.0959,-8.1061,-8.1061,-8.1837,-8.3423,-8.332,-8.4167,-8.5815,-8.5704,-8.5628,-8.5511,-8.5511,-8.5511,-8.5511,-8.5511,-8.6008,-8.681,-8.681,-8.7345,-8.7995,-8.7269,-8.6925,-8.6696,-7.691,-7.691,-7.6897,-7.684,-7.684,-7.684,-7.684,-7.677,-7.6738,-7.6738,-7.6704,-7.6687,-7.6687,-7.6671,-7.6614,-7.6514,-7.6514,-7.6514,-7.6514,-7.651,-7.6488,-7.6488,-7.6421,-7.6397,-7.6397,-7.6397,-7.6397,-7.6397,-7.6397,-7.6397,-7.6397,-7.6397,-7.6397,-7.6397,-7.6397,-7.6397,-7.6397,-7.6397,-7.6397,-7.6397,-7.6397,-7.6397,-7.6397,-7.6397,-7.6397,-7.6397,-7.6397,-7.6397,-7.6374,-7.6186,-7.5861,-7.548,-7.5092,-7.4705,-7.4394,-7.4243,-7.4197,-7.4385,-7.5173,-7.5399,-7.5699,-7.6863,-7.7539,-7.799,-7.8328,-7.8778,-7.9116,-7.9116,-7.9066,-7.9016,-7.9016,-7.8864,-7.8812,-7.8812,-7.9053,-7.9449,-7.9923,-8.0315,-8.0707,-8.0977,-8.0783,-8.0614,-8.0506,-8.0506,-8.0506,-8.0506,-8.0506,-8.0543,-8.0542,-8.065,-8.0758,-8.086,-8.0959,-8.1061,-8.1093,-8.1093,-8.1676,-8.2731,-8.3128,-8.4169,-8.5742,-8.5628,-8.5551,-8.5511,-8.5511,-8.5511,-8.5511,-8.5511,-8.6314,-8.7536,-8.7536,-8.8339,-8.9409,-8.853,-8.7918,-8.746]}]]